<?xml version="1.0" encoding="UTF-8"?>
<gpx xmlns="http://www.topografix.com/GPX/1/1" xmlns:xsi="http://www.w3.org/2001/XMLSchema-instance" version="1.1" xsi:schemaLocation="http://www.topografix.com/GPX/1/1 http://www.topografix.com/GPX/1/1/gpx.xsd">
  <metadata>
    <name>The Odyssey</name>
  </metadata>
  <trk>
    <name>The Odyssey</name>
    <trkseg>
      <trkpt lat="52.229067" lon="-0.27564">
        <ele>16.431799</ele>
        <time>2024-07-06T07:46:00.000Z</time>
      </trkpt>
      <trkpt lat="52.229075" lon="-0.275645">
        <ele>16.431803</ele>
        <time>2024-07-06T07:46:00.000Z</time>
      </trkpt>
      <trkpt lat="52.229193" lon="-0.276385">
        <ele>16.431808</ele>
        <time>2024-07-06T07:46:05.000Z</time>
      </trkpt>
      <trkpt lat="52.229206" lon="-0.276444">
        <ele>16.4318</ele>
        <time>2024-07-06T07:46:05.000Z</time>
      </trkpt>
      <trkpt lat="52.229047" lon="-0.276479">
        <ele>16.431813</ele>
        <time>2024-07-06T07:46:07.000Z</time>
      </trkpt>
      <trkpt lat="52.228937" lon="-0.276504">
        <ele>16.431798</ele>
        <time>2024-07-06T07:46:08.000Z</time>
      </trkpt>
      <trkpt lat="52.228774" lon="-0.276526">
        <ele>16.443873</ele>
        <time>2024-07-06T07:46:10.000Z</time>
      </trkpt>
      <trkpt lat="52.228679" lon="-0.276543">
        <ele>16.466919</ele>
        <time>2024-07-06T07:46:11.000Z</time>
      </trkpt>
      <trkpt lat="52.228516" lon="-0.27658">
        <ele>16.511531</ele>
        <time>2024-07-06T07:46:13.000Z</time>
      </trkpt>
      <trkpt lat="52.228428" lon="-0.276599">
        <ele>16.532737</ele>
        <time>2024-07-06T07:46:14.000Z</time>
      </trkpt>
      <trkpt lat="52.227662" lon="-0.276696">
        <ele>16.73097</ele>
        <time>2024-07-06T07:46:23.000Z</time>
      </trkpt>
      <trkpt lat="52.227438" lon="-0.276692">
        <ele>16.786099</ele>
        <time>2024-07-06T07:46:25.000Z</time>
      </trkpt>
      <trkpt lat="52.227381" lon="-0.276627">
        <ele>16.806248</ele>
        <time>2024-07-06T07:46:26.000Z</time>
      </trkpt>
      <trkpt lat="52.227274" lon="-0.27647">
        <ele>16.843989</ele>
        <time>2024-07-06T07:46:28.000Z</time>
      </trkpt>
      <trkpt lat="52.227138" lon="-0.276279">
        <ele>16.888271</ele>
        <time>2024-07-06T07:46:30.000Z</time>
      </trkpt>
      <trkpt lat="52.227049" lon="-0.276069">
        <ele>16.902607</ele>
        <time>2024-07-06T07:46:32.000Z</time>
      </trkpt>
      <trkpt lat="52.227004" lon="-0.275937">
        <ele>16.908002</ele>
        <time>2024-07-06T07:46:33.000Z</time>
      </trkpt>
      <trkpt lat="52.226956" lon="-0.275819">
        <ele>16.912465</ele>
        <time>2024-07-06T07:46:34.000Z</time>
      </trkpt>
      <trkpt lat="52.226847" lon="-0.275795">
        <ele>16.919414</ele>
        <time>2024-07-06T07:46:35.000Z</time>
      </trkpt>
      <trkpt lat="52.226834" lon="-0.275779">
        <ele>16.920168</ele>
        <time>2024-07-06T07:46:35.000Z</time>
      </trkpt>
      <trkpt lat="52.226803" lon="-0.275814">
        <ele>16.921725</ele>
        <time>2024-07-06T07:46:35.000Z</time>
      </trkpt>
      <trkpt lat="52.22677" lon="-0.27597">
        <ele>16.928035</ele>
        <time>2024-07-06T07:46:36.000Z</time>
      </trkpt>
      <trkpt lat="52.226772" lon="-0.276046">
        <ele>16.930654</ele>
        <time>2024-07-06T07:46:37.000Z</time>
      </trkpt>
      <trkpt lat="52.226873" lon="-0.276143">
        <ele>16.937567</ele>
        <time>2024-07-06T07:46:38.000Z</time>
      </trkpt>
      <trkpt lat="52.226928" lon="-0.276138">
        <ele>16.940257</ele>
        <time>2024-07-06T07:46:39.000Z</time>
      </trkpt>
      <trkpt lat="52.227009" lon="-0.276171">
        <ele>16.944946</ele>
        <time>2024-07-06T07:46:40.000Z</time>
      </trkpt>
      <trkpt lat="52.227134" lon="-0.276286">
        <ele>16.953495</ele>
        <time>2024-07-06T07:46:42.000Z</time>
      </trkpt>
      <trkpt lat="52.227258" lon="-0.27647">
        <ele>16.963275</ele>
        <time>2024-07-06T07:46:44.000Z</time>
      </trkpt>
      <trkpt lat="52.22738" lon="-0.276628">
        <ele>16.971641</ele>
        <time>2024-07-06T07:46:46.000Z</time>
      </trkpt>
      <trkpt lat="52.227453" lon="-0.276688">
        <ele>16.97608</ele>
        <time>2024-07-06T07:46:47.000Z</time>
      </trkpt>
      <trkpt lat="52.227653" lon="-0.276703">
        <ele>16.988271</ele>
        <time>2024-07-06T07:46:49.000Z</time>
      </trkpt>
      <trkpt lat="52.228272" lon="-0.276619">
        <ele>17.06414</ele>
        <time>2024-07-06T07:46:56.000Z</time>
      </trkpt>
      <trkpt lat="52.228424" lon="-0.27659">
        <ele>17.08627</ele>
        <time>2024-07-06T07:46:58.000Z</time>
      </trkpt>
      <trkpt lat="52.228509" lon="-0.27658">
        <ele>17.098289</ele>
        <time>2024-07-06T07:46:59.000Z</time>
      </trkpt>
      <trkpt lat="52.228688" lon="-0.276543">
        <ele>17.123577</ele>
        <time>2024-07-06T07:47:01.000Z</time>
      </trkpt>
      <trkpt lat="52.22876" lon="-0.276526">
        <ele>17.136638</ele>
        <time>2024-07-06T07:47:02.000Z</time>
      </trkpt>
      <trkpt lat="52.228945" lon="-0.276499">
        <ele>17.161367</ele>
        <time>2024-07-06T07:47:04.000Z</time>
      </trkpt>
      <trkpt lat="52.229047" lon="-0.276467">
        <ele>17.177544</ele>
        <time>2024-07-06T07:47:05.000Z</time>
      </trkpt>
      <trkpt lat="52.229193" lon="-0.27644">
        <ele>17.200342</ele>
        <time>2024-07-06T07:47:07.000Z</time>
      </trkpt>
      <trkpt lat="52.229207" lon="-0.276449">
        <ele>17.201377</ele>
        <time>2024-07-06T07:47:07.000Z</time>
      </trkpt>
      <trkpt lat="52.229284" lon="-0.276425">
        <ele>17.211521</ele>
        <time>2024-07-06T07:47:08.000Z</time>
      </trkpt>
      <trkpt lat="52.229288" lon="-0.276428">
        <ele>17.214318</ele>
        <time>2024-07-06T07:47:08.000Z</time>
      </trkpt>
      <trkpt lat="52.229391" lon="-0.276409">
        <ele>17.227196</ele>
        <time>2024-07-06T07:47:09.000Z</time>
      </trkpt>
      <trkpt lat="52.229423" lon="-0.276386">
        <ele>17.23262</ele>
        <time>2024-07-06T07:47:09.000Z</time>
      </trkpt>
      <trkpt lat="52.229655" lon="-0.276349">
        <ele>17.288619</ele>
        <time>2024-07-06T07:47:12.000Z</time>
      </trkpt>
      <trkpt lat="52.22968" lon="-0.276331">
        <ele>17.311024</ele>
        <time>2024-07-06T07:47:12.000Z</time>
      </trkpt>
      <trkpt lat="52.229778" lon="-0.276314">
        <ele>17.381746</ele>
        <time>2024-07-06T07:47:13.000Z</time>
      </trkpt>
      <trkpt lat="52.22986" lon="-0.276307">
        <ele>17.434083</ele>
        <time>2024-07-06T07:47:14.000Z</time>
      </trkpt>
      <trkpt lat="52.229935" lon="-0.276282">
        <ele>17.489234</ele>
        <time>2024-07-06T07:47:15.000Z</time>
      </trkpt>
      <trkpt lat="52.230059" lon="-0.27627">
        <ele>17.574686</ele>
        <time>2024-07-06T07:47:16.000Z</time>
      </trkpt>
      <trkpt lat="52.230213" lon="-0.276235">
        <ele>17.690006</ele>
        <time>2024-07-06T07:47:18.000Z</time>
      </trkpt>
      <trkpt lat="52.230574" lon="-0.276174">
        <ele>17.941083</ele>
        <time>2024-07-06T07:47:22.000Z</time>
      </trkpt>
      <trkpt lat="52.232013" lon="-0.276014">
        <ele>19.954266</ele>
        <time>2024-07-06T07:47:38.000Z</time>
      </trkpt>
      <trkpt lat="52.232195" lon="-0.276015">
        <ele>20.403136</ele>
        <time>2024-07-06T07:47:40.000Z</time>
      </trkpt>
      <trkpt lat="52.232324" lon="-0.276017">
        <ele>20.698884</ele>
        <time>2024-07-06T07:47:41.000Z</time>
      </trkpt>
      <trkpt lat="52.232566" lon="-0.276074">
        <ele>21.265961</ele>
        <time>2024-07-06T07:47:44.000Z</time>
      </trkpt>
      <trkpt lat="52.23268" lon="-0.276111">
        <ele>21.547313</ele>
        <time>2024-07-06T07:47:45.000Z</time>
      </trkpt>
      <trkpt lat="52.233254" lon="-0.276375">
        <ele>23.013245</ele>
        <time>2024-07-06T07:47:52.000Z</time>
      </trkpt>
      <trkpt lat="52.233662" lon="-0.276586">
        <ele>24.347369</ele>
        <time>2024-07-06T07:47:57.000Z</time>
      </trkpt>
      <trkpt lat="52.233957" lon="-0.276854">
        <ele>25.424444</ele>
        <time>2024-07-06T07:48:01.000Z</time>
      </trkpt>
      <trkpt lat="52.234147" lon="-0.277103">
        <ele>26.188119</ele>
        <time>2024-07-06T07:48:04.000Z</time>
      </trkpt>
      <trkpt lat="52.234471" lon="-0.277684">
        <ele>27.708506</ele>
        <time>2024-07-06T07:48:09.000Z</time>
      </trkpt>
      <trkpt lat="52.234867" lon="-0.278994">
        <ele>29.538661</ele>
        <time>2024-07-06T07:48:19.000Z</time>
      </trkpt>
      <trkpt lat="52.235112" lon="-0.279786">
        <ele>30.468318</ele>
        <time>2024-07-06T07:48:25.000Z</time>
      </trkpt>
      <trkpt lat="52.235909" lon="-0.281794">
        <ele>31.970975</ele>
        <time>2024-07-06T07:48:41.000Z</time>
      </trkpt>
      <trkpt lat="52.235958" lon="-0.282107">
        <ele>32.09589</ele>
        <time>2024-07-06T07:48:43.000Z</time>
      </trkpt>
      <trkpt lat="52.235984" lon="-0.282287">
        <ele>32.159959</ele>
        <time>2024-07-06T07:48:44.000Z</time>
      </trkpt>
      <trkpt lat="52.235969" lon="-0.282296">
        <ele>32.166853</ele>
        <time>2024-07-06T07:48:44.000Z</time>
      </trkpt>
      <trkpt lat="52.236041" lon="-0.282429">
        <ele>32.228355</ele>
        <time>2024-07-06T07:48:45.000Z</time>
      </trkpt>
      <trkpt lat="52.236046" lon="-0.28243">
        <ele>32.233196</ele>
        <time>2024-07-06T07:48:45.000Z</time>
      </trkpt>
      <trkpt lat="52.236295" lon="-0.28262">
        <ele>32.399874</ele>
        <time>2024-07-06T07:48:48.000Z</time>
      </trkpt>
      <trkpt lat="52.236295" lon="-0.282643">
        <ele>32.404324</ele>
        <time>2024-07-06T07:48:48.000Z</time>
      </trkpt>
      <trkpt lat="52.236387" lon="-0.282774">
        <ele>32.471962</ele>
        <time>2024-07-06T07:48:49.000Z</time>
      </trkpt>
      <trkpt lat="52.236467" lon="-0.282897">
        <ele>32.526576</ele>
        <time>2024-07-06T07:48:50.000Z</time>
      </trkpt>
      <trkpt lat="52.236682" lon="-0.283353">
        <ele>32.510317</ele>
        <time>2024-07-06T07:48:54.000Z</time>
      </trkpt>
      <trkpt lat="52.237051" lon="-0.284216">
        <ele>32.481377</ele>
        <time>2024-07-06T07:49:01.000Z</time>
      </trkpt>
      <trkpt lat="52.237442" lon="-0.285255">
        <ele>32.447752</ele>
        <time>2024-07-06T07:49:09.000Z</time>
      </trkpt>
      <trkpt lat="52.23775" lon="-0.286156">
        <ele>32.366478</ele>
        <time>2024-07-06T07:49:16.000Z</time>
      </trkpt>
      <trkpt lat="52.237794" lon="-0.286306">
        <ele>32.353422</ele>
        <time>2024-07-06T07:49:17.000Z</time>
      </trkpt>
      <trkpt lat="52.238314" lon="-0.287882">
        <ele>32.210846</ele>
        <time>2024-07-06T07:49:29.000Z</time>
      </trkpt>
      <trkpt lat="52.239094" lon="-0.29105">
        <ele>32.366932</ele>
        <time>2024-07-06T07:49:52.000Z</time>
      </trkpt>
      <trkpt lat="52.239261" lon="-0.291528">
        <ele>32.431348</ele>
        <time>2024-07-06T07:49:56.000Z</time>
      </trkpt>
      <trkpt lat="52.239587" lon="-0.292165">
        <ele>32.532177</ele>
        <time>2024-07-06T07:50:02.000Z</time>
      </trkpt>
      <trkpt lat="52.240205" lon="-0.29295">
        <ele>32.643173</ele>
        <time>2024-07-06T07:50:11.000Z</time>
      </trkpt>
      <trkpt lat="52.240546" lon="-0.29315">
        <ele>32.601503</ele>
        <time>2024-07-06T07:50:15.000Z</time>
      </trkpt>
      <trkpt lat="52.241196" lon="-0.293225">
        <ele>32.528513</ele>
        <time>2024-07-06T07:50:22.000Z</time>
      </trkpt>
      <trkpt lat="52.241387" lon="-0.293249">
        <ele>32.50629</ele>
        <time>2024-07-06T07:50:24.000Z</time>
      </trkpt>
      <trkpt lat="52.241863" lon="-0.293458">
        <ele>32.431033</ele>
        <time>2024-07-06T07:50:29.000Z</time>
      </trkpt>
      <trkpt lat="52.242057" lon="-0.293621">
        <ele>32.259027</ele>
        <time>2024-07-06T07:50:31.000Z</time>
      </trkpt>
      <trkpt lat="52.242274" lon="-0.293957">
        <ele>32.032816</ele>
        <time>2024-07-06T07:50:34.000Z</time>
      </trkpt>
      <trkpt lat="52.242416" lon="-0.294395">
        <ele>31.789891</ele>
        <time>2024-07-06T07:50:37.000Z</time>
      </trkpt>
      <trkpt lat="52.242637" lon="-0.295461">
        <ele>31.259663</ele>
        <time>2024-07-06T07:50:45.000Z</time>
      </trkpt>
      <trkpt lat="52.242786" lon="-0.295856">
        <ele>31.049809</ele>
        <time>2024-07-06T07:50:48.000Z</time>
      </trkpt>
      <trkpt lat="52.243615" lon="-0.297729">
        <ele>30.89622</ele>
        <time>2024-07-06T07:51:04.000Z</time>
      </trkpt>
      <trkpt lat="52.243975" lon="-0.298424">
        <ele>31.065185</ele>
        <time>2024-07-06T07:51:10.000Z</time>
      </trkpt>
      <trkpt lat="52.244273" lon="-0.29877">
        <ele>31.460663</ele>
        <time>2024-07-06T07:51:14.000Z</time>
      </trkpt>
      <trkpt lat="52.244974" lon="-0.299618">
        <ele>32.375784</ele>
        <time>2024-07-06T07:51:24.000Z</time>
      </trkpt>
      <trkpt lat="52.245176" lon="-0.29998">
        <ele>32.703551</ele>
        <time>2024-07-06T07:51:27.000Z</time>
      </trkpt>
      <trkpt lat="52.245474" lon="-0.300355">
        <ele>32.944446</ele>
        <time>2024-07-06T07:51:31.000Z</time>
      </trkpt>
      <trkpt lat="52.246344" lon="-0.301422">
        <ele>33.517359</ele>
        <time>2024-07-06T07:51:43.000Z</time>
      </trkpt>
      <trkpt lat="52.246782" lon="-0.302098">
        <ele>33.715675</ele>
        <time>2024-07-06T07:51:50.000Z</time>
      </trkpt>
      <trkpt lat="52.247084" lon="-0.302625">
        <ele>33.675635</ele>
        <time>2024-07-06T07:51:55.000Z</time>
      </trkpt>
      <trkpt lat="52.24749" lon="-0.303655">
        <ele>33.607951</ele>
        <time>2024-07-06T07:52:03.000Z</time>
      </trkpt>
      <trkpt lat="52.248096" lon="-0.305468">
        <ele>33.41425</ele>
        <time>2024-07-06T07:52:17.000Z</time>
      </trkpt>
      <trkpt lat="52.248575" lon="-0.306257">
        <ele>33.286472</ele>
        <time>2024-07-06T07:52:25.000Z</time>
      </trkpt>
      <trkpt lat="52.248999" lon="-0.306567">
        <ele>33.172653</ele>
        <time>2024-07-06T07:52:30.000Z</time>
      </trkpt>
      <trkpt lat="52.249227" lon="-0.306657">
        <ele>33.097631</ele>
        <time>2024-07-06T07:52:33.000Z</time>
      </trkpt>
      <trkpt lat="52.249818" lon="-0.306712">
        <ele>32.898516</ele>
        <time>2024-07-06T07:52:40.000Z</time>
      </trkpt>
      <trkpt lat="52.250447" lon="-0.306787">
        <ele>32.69098</ele>
        <time>2024-07-06T07:52:47.000Z</time>
      </trkpt>
      <trkpt lat="52.251381" lon="-0.307133">
        <ele>31.541447</ele>
        <time>2024-07-06T07:52:58.000Z</time>
      </trkpt>
      <trkpt lat="52.252075" lon="-0.307015">
        <ele>30.607553</ele>
        <time>2024-07-06T07:53:06.000Z</time>
      </trkpt>
      <trkpt lat="52.2529" lon="-0.306829">
        <ele>28.982831</ele>
        <time>2024-07-06T07:53:15.000Z</time>
      </trkpt>
      <trkpt lat="52.253115" lon="-0.306885">
        <ele>28.49175</ele>
        <time>2024-07-06T07:53:17.000Z</time>
      </trkpt>
      <trkpt lat="52.253292" lon="-0.307119">
        <ele>27.987651</ele>
        <time>2024-07-06T07:53:20.000Z</time>
      </trkpt>
      <trkpt lat="52.253796" lon="-0.308104">
        <ele>26.218757</ele>
        <time>2024-07-06T07:53:29.000Z</time>
      </trkpt>
      <trkpt lat="52.254202" lon="-0.308914">
        <ele>25.055595</ele>
        <time>2024-07-06T07:53:36.000Z</time>
      </trkpt>
      <trkpt lat="52.254421" lon="-0.30936">
        <ele>24.442934</ele>
        <time>2024-07-06T07:53:40.000Z</time>
      </trkpt>
      <trkpt lat="52.255381" lon="-0.310753">
        <ele>22.612729</ele>
        <time>2024-07-06T07:53:54.000Z</time>
      </trkpt>
      <trkpt lat="52.255595" lon="-0.310961">
        <ele>22.436388</ele>
        <time>2024-07-06T07:53:57.000Z</time>
      </trkpt>
      <trkpt lat="52.25637" lon="-0.311106">
        <ele>21.881939</ele>
        <time>2024-07-06T07:54:06.000Z</time>
      </trkpt>
      <trkpt lat="52.256636" lon="-0.311247">
        <ele>21.684525</ele>
        <time>2024-07-06T07:54:09.000Z</time>
      </trkpt>
      <trkpt lat="52.257219" lon="-0.312261">
        <ele>22.091816</ele>
        <time>2024-07-06T07:54:18.000Z</time>
      </trkpt>
      <trkpt lat="52.257677" lon="-0.313426">
        <ele>22.539564</ele>
        <time>2024-07-06T07:54:27.000Z</time>
      </trkpt>
      <trkpt lat="52.258179" lon="-0.314675">
        <ele>22.990455</ele>
        <time>2024-07-06T07:54:37.000Z</time>
      </trkpt>
      <trkpt lat="52.259781" lon="-0.318513">
        <ele>24.035971</ele>
        <time>2024-07-06T07:55:09.000Z</time>
      </trkpt>
      <trkpt lat="52.260126" lon="-0.319106">
        <ele>24.270373</ele>
        <time>2024-07-06T07:55:15.000Z</time>
      </trkpt>
      <trkpt lat="52.260483" lon="-0.319899">
        <ele>24.560291</ele>
        <time>2024-07-06T07:55:22.000Z</time>
      </trkpt>
      <trkpt lat="52.260795" lon="-0.320941">
        <ele>24.893757</ele>
        <time>2024-07-06T07:55:30.000Z</time>
      </trkpt>
      <trkpt lat="52.261173" lon="-0.321869">
        <ele>25.113359</ele>
        <time>2024-07-06T07:55:38.000Z</time>
      </trkpt>
      <trkpt lat="52.263952" lon="-0.330473">
        <ele>26.733049</ele>
        <time>2024-07-06T07:56:44.000Z</time>
      </trkpt>
      <trkpt lat="52.264159" lon="-0.330901">
        <ele>26.758647</ele>
        <time>2024-07-06T07:56:48.000Z</time>
      </trkpt>
      <trkpt lat="52.264361" lon="-0.331213">
        <ele>26.723717</ele>
        <time>2024-07-06T07:56:51.000Z</time>
      </trkpt>
      <trkpt lat="52.265912" lon="-0.332997">
        <ele>25.809567</ele>
        <time>2024-07-06T07:57:12.000Z</time>
      </trkpt>
      <trkpt lat="52.266309" lon="-0.334025">
        <ele>25.459069</ele>
        <time>2024-07-06T07:57:20.000Z</time>
      </trkpt>
      <trkpt lat="52.266643" lon="-0.335715">
        <ele>25.066306</ele>
        <time>2024-07-06T07:57:32.000Z</time>
      </trkpt>
      <trkpt lat="52.267022" lon="-0.337573">
        <ele>25.146624</ele>
        <time>2024-07-06T07:57:45.000Z</time>
      </trkpt>
      <trkpt lat="52.267092" lon="-0.337977">
        <ele>25.164064</ele>
        <time>2024-07-06T07:57:48.000Z</time>
      </trkpt>
      <trkpt lat="52.267121" lon="-0.33811">
        <ele>25.16958</ele>
        <time>2024-07-06T07:57:49.000Z</time>
      </trkpt>
      <trkpt lat="52.267522" lon="-0.34021">
        <ele>26.876472</ele>
        <time>2024-07-06T07:58:04.000Z</time>
      </trkpt>
      <trkpt lat="52.267585" lon="-0.340596">
        <ele>27.184562</ele>
        <time>2024-07-06T07:58:07.000Z</time>
      </trkpt>
      <trkpt lat="52.267751" lon="-0.341548">
        <ele>28.104664</ele>
        <time>2024-07-06T07:58:14.000Z</time>
      </trkpt>
      <trkpt lat="52.267893" lon="-0.342335">
        <ele>28.90759</ele>
        <time>2024-07-06T07:58:20.000Z</time>
      </trkpt>
      <trkpt lat="52.267967" lon="-0.342872">
        <ele>29.455131</ele>
        <time>2024-07-06T07:58:24.000Z</time>
      </trkpt>
      <trkpt lat="52.268109" lon="-0.34394">
        <ele>30.437201</ele>
        <time>2024-07-06T07:58:31.000Z</time>
      </trkpt>
      <trkpt lat="52.268115" lon="-0.344052">
        <ele>30.458942</ele>
        <time>2024-07-06T07:58:32.000Z</time>
      </trkpt>
      <trkpt lat="52.268158" lon="-0.344474">
        <ele>30.554341</ele>
        <time>2024-07-06T07:58:35.000Z</time>
      </trkpt>
      <trkpt lat="52.268283" lon="-0.345286">
        <ele>30.736794</ele>
        <time>2024-07-06T07:58:41.000Z</time>
      </trkpt>
      <trkpt lat="52.268563" lon="-0.345476">
        <ele>30.839094</ele>
        <time>2024-07-06T07:58:44.000Z</time>
      </trkpt>
      <trkpt lat="52.268917" lon="-0.345552">
        <ele>30.965761</ele>
        <time>2024-07-06T07:58:48.000Z</time>
      </trkpt>
      <trkpt lat="52.269163" lon="-0.345666">
        <ele>31.013487</ele>
        <time>2024-07-06T07:58:51.000Z</time>
      </trkpt>
      <trkpt lat="52.269853" lon="-0.346021">
        <ele>30.387049</ele>
        <time>2024-07-06T07:58:59.000Z</time>
      </trkpt>
      <trkpt lat="52.270309" lon="-0.3462">
        <ele>29.986674</ele>
        <time>2024-07-06T07:59:04.000Z</time>
      </trkpt>
      <trkpt lat="52.270595" lon="-0.346276">
        <ele>29.729294</ele>
        <time>2024-07-06T07:59:07.000Z</time>
      </trkpt>
      <trkpt lat="52.270826" lon="-0.346327">
        <ele>29.539215</ele>
        <time>2024-07-06T07:59:10.000Z</time>
      </trkpt>
      <trkpt lat="52.270857" lon="-0.346335">
        <ele>29.510504</ele>
        <time>2024-07-06T07:59:10.000Z</time>
      </trkpt>
      <trkpt lat="52.271487" lon="-0.346535">
        <ele>29.154765</ele>
        <time>2024-07-06T07:59:17.000Z</time>
      </trkpt>
      <trkpt lat="52.271597" lon="-0.346618">
        <ele>29.081597</ele>
        <time>2024-07-06T07:59:18.000Z</time>
      </trkpt>
      <trkpt lat="52.271893" lon="-0.347002">
        <ele>28.878601</ele>
        <time>2024-07-06T07:59:22.000Z</time>
      </trkpt>
      <trkpt lat="52.272326" lon="-0.348148">
        <ele>28.560671</ele>
        <time>2024-07-06T07:59:31.000Z</time>
      </trkpt>
      <trkpt lat="52.273433" lon="-0.350981">
        <ele>29.182367</ele>
        <time>2024-07-06T07:59:54.000Z</time>
      </trkpt>
      <trkpt lat="52.275178" lon="-0.355782">
        <ele>29.758411</ele>
        <time>2024-07-06T08:00:32.000Z</time>
      </trkpt>
      <trkpt lat="52.275657" lon="-0.358179">
        <ele>30.206924</ele>
        <time>2024-07-06T08:00:49.000Z</time>
      </trkpt>
      <trkpt lat="52.275792" lon="-0.358496">
        <ele>30.5009</ele>
        <time>2024-07-06T08:00:52.000Z</time>
      </trkpt>
      <trkpt lat="52.276165" lon="-0.359138">
        <ele>31.255317</ele>
        <time>2024-07-06T08:00:58.000Z</time>
      </trkpt>
      <trkpt lat="52.277008" lon="-0.359798">
        <ele>32.538245</ele>
        <time>2024-07-06T08:01:08.000Z</time>
      </trkpt>
      <trkpt lat="52.280177" lon="-0.361633">
        <ele>40.668539</ele>
        <time>2024-07-06T08:01:45.000Z</time>
      </trkpt>
      <trkpt lat="52.281168" lon="-0.362333">
        <ele>41.485694</ele>
        <time>2024-07-06T08:01:57.000Z</time>
      </trkpt>
      <trkpt lat="52.282725" lon="-0.363356">
        <ele>40.8201</ele>
        <time>2024-07-06T08:02:16.000Z</time>
      </trkpt>
      <trkpt lat="52.283028" lon="-0.363576">
        <ele>40.444401</ele>
        <time>2024-07-06T08:02:20.000Z</time>
      </trkpt>
      <trkpt lat="52.284359" lon="-0.364463">
        <ele>38.863053</ele>
        <time>2024-07-06T08:02:36.000Z</time>
      </trkpt>
      <trkpt lat="52.284926" lon="-0.364847">
        <ele>38.228393</ele>
        <time>2024-07-06T08:02:43.000Z</time>
      </trkpt>
      <trkpt lat="52.285403" lon="-0.365485">
        <ele>37.620294</ele>
        <time>2024-07-06T08:02:50.000Z</time>
      </trkpt>
      <trkpt lat="52.28563" lon="-0.365896">
        <ele>37.748079</ele>
        <time>2024-07-06T08:02:54.000Z</time>
      </trkpt>
      <trkpt lat="52.28736" lon="-0.36906">
        <ele>39.214365</ele>
        <time>2024-07-06T08:03:23.000Z</time>
      </trkpt>
      <trkpt lat="52.287694" lon="-0.369692">
        <ele>39.625637</ele>
        <time>2024-07-06T08:03:29.000Z</time>
      </trkpt>
      <trkpt lat="52.28776" lon="-0.36981">
        <ele>39.706032</ele>
        <time>2024-07-06T08:03:30.000Z</time>
      </trkpt>
      <trkpt lat="52.288778" lon="-0.371671">
        <ele>39.635034</ele>
        <time>2024-07-06T08:03:47.000Z</time>
      </trkpt>
      <trkpt lat="52.288961" lon="-0.372022">
        <ele>39.615584</ele>
        <time>2024-07-06T08:03:50.000Z</time>
      </trkpt>
      <trkpt lat="52.289581" lon="-0.373724">
        <ele>38.355001</ele>
        <time>2024-07-06T08:04:03.000Z</time>
      </trkpt>
      <trkpt lat="52.289805" lon="-0.374613">
        <ele>37.726708</ele>
        <time>2024-07-06T08:04:10.000Z</time>
      </trkpt>
      <trkpt lat="52.289916" lon="-0.374894">
        <ele>37.600397</ele>
        <time>2024-07-06T08:04:12.000Z</time>
      </trkpt>
      <trkpt lat="52.290135" lon="-0.375176">
        <ele>37.461006</ele>
        <time>2024-07-06T08:04:15.000Z</time>
      </trkpt>
      <trkpt lat="52.290834" lon="-0.376204">
        <ele>36.979323</ele>
        <time>2024-07-06T08:04:25.000Z</time>
      </trkpt>
      <trkpt lat="52.291559" lon="-0.377027">
        <ele>36.291969</ele>
        <time>2024-07-06T08:04:35.000Z</time>
      </trkpt>
      <trkpt lat="52.291692" lon="-0.377262">
        <ele>36.085074</ele>
        <time>2024-07-06T08:04:37.000Z</time>
      </trkpt>
      <trkpt lat="52.292408" lon="-0.379361">
        <ele>34.791343</ele>
        <time>2024-07-06T08:04:53.000Z</time>
      </trkpt>
      <trkpt lat="52.292726" lon="-0.37971">
        <ele>34.630459</ele>
        <time>2024-07-06T08:04:57.000Z</time>
      </trkpt>
      <trkpt lat="52.292971" lon="-0.379816">
        <ele>34.524977</ele>
        <time>2024-07-06T08:05:00.000Z</time>
      </trkpt>
      <trkpt lat="52.29349" lon="-0.379863">
        <ele>34.310245</ele>
        <time>2024-07-06T08:05:06.000Z</time>
      </trkpt>
      <trkpt lat="52.293652" lon="-0.379979">
        <ele>34.230597</ele>
        <time>2024-07-06T08:05:08.000Z</time>
      </trkpt>
      <trkpt lat="52.293745" lon="-0.38011">
        <ele>34.185834</ele>
        <time>2024-07-06T08:05:09.000Z</time>
      </trkpt>
      <trkpt lat="52.293808" lon="-0.380208">
        <ele>34.244943</ele>
        <time>2024-07-06T08:05:10.000Z</time>
      </trkpt>
      <trkpt lat="52.29383" lon="-0.380236">
        <ele>34.258017</ele>
        <time>2024-07-06T08:05:10.000Z</time>
      </trkpt>
      <trkpt lat="52.294304" lon="-0.3811">
        <ele>34.697398</ele>
        <time>2024-07-06T08:05:18.000Z</time>
      </trkpt>
      <trkpt lat="52.294223" lon="-0.381263">
        <ele>34.774638</ele>
        <time>2024-07-06T08:05:19.000Z</time>
      </trkpt>
      <trkpt lat="52.2939" lon="-0.381834">
        <ele>35.069317</ele>
        <time>2024-07-06T08:05:24.000Z</time>
      </trkpt>
      <trkpt lat="52.293853" lon="-0.38196">
        <ele>35.126629</ele>
        <time>2024-07-06T08:05:25.000Z</time>
      </trkpt>
      <trkpt lat="52.293187" lon="-0.383345">
        <ele>35.72345</ele>
        <time>2024-07-06T08:05:37.000Z</time>
      </trkpt>
      <trkpt lat="52.292153" lon="-0.385709">
        <ele>36.751044</ele>
        <time>2024-07-06T08:05:57.000Z</time>
      </trkpt>
      <trkpt lat="52.291573" lon="-0.387283">
        <ele>37.501674</ele>
        <time>2024-07-06T08:06:09.000Z</time>
      </trkpt>
      <trkpt lat="52.291388" lon="-0.387669">
        <ele>37.779</ele>
        <time>2024-07-06T08:06:12.000Z</time>
      </trkpt>
      <trkpt lat="52.29137" lon="-0.387707">
        <ele>37.811967</ele>
        <time>2024-07-06T08:06:12.000Z</time>
      </trkpt>
      <trkpt lat="52.289811" lon="-0.390892">
        <ele>40.818598</ele>
        <time>2024-07-06T08:06:40.000Z</time>
      </trkpt>
      <trkpt lat="52.28742" lon="-0.394662">
        <ele>48.444443</ele>
        <time>2024-07-06T08:07:17.000Z</time>
      </trkpt>
      <trkpt lat="52.285329" lon="-0.397663">
        <ele>55.982322</ele>
        <time>2024-07-06T08:07:48.000Z</time>
      </trkpt>
      <trkpt lat="52.28467" lon="-0.398801">
        <ele>58.468438</ele>
        <time>2024-07-06T08:07:59.000Z</time>
      </trkpt>
      <trkpt lat="52.283813" lon="-0.400857">
        <ele>61.727557</ele>
        <time>2024-07-06T08:08:16.000Z</time>
      </trkpt>
      <trkpt lat="52.283314" lon="-0.40177">
        <ele>62.963235</ele>
        <time>2024-07-06T08:08:24.000Z</time>
      </trkpt>
      <trkpt lat="52.283228" lon="-0.401889">
        <ele>63.142575</ele>
        <time>2024-07-06T08:08:25.000Z</time>
      </trkpt>
      <trkpt lat="52.283171" lon="-0.401935">
        <ele>63.244605</ele>
        <time>2024-07-06T08:08:26.000Z</time>
      </trkpt>
      <trkpt lat="52.282813" lon="-0.402147">
        <ele>63.086415</ele>
        <time>2024-07-06T08:08:30.000Z</time>
      </trkpt>
      <trkpt lat="52.282208" lon="-0.402696">
        <ele>61.712702</ele>
        <time>2024-07-06T08:08:38.000Z</time>
      </trkpt>
      <trkpt lat="52.282097" lon="-0.4028">
        <ele>61.462512</ele>
        <time>2024-07-06T08:08:39.000Z</time>
      </trkpt>
      <trkpt lat="52.281655" lon="-0.403241">
        <ele>60.44793</ele>
        <time>2024-07-06T08:08:45.000Z</time>
      </trkpt>
      <trkpt lat="52.281371" lon="-0.403622">
        <ele>59.194454</ele>
        <time>2024-07-06T08:08:49.000Z</time>
      </trkpt>
      <trkpt lat="52.280165" lon="-0.405869">
        <ele>48.804712</ele>
        <time>2024-07-06T08:09:09.000Z</time>
      </trkpt>
      <trkpt lat="52.2792" lon="-0.407774">
        <ele>41.326018</ele>
        <time>2024-07-06T08:09:26.000Z</time>
      </trkpt>
      <trkpt lat="52.279133" lon="-0.407905">
        <ele>40.831302</ele>
        <time>2024-07-06T08:09:27.000Z</time>
      </trkpt>
      <trkpt lat="52.278884" lon="-0.408436">
        <ele>39.943041</ele>
        <time>2024-07-06T08:09:32.000Z</time>
      </trkpt>
      <trkpt lat="52.278768" lon="-0.408534">
        <ele>39.688225</ele>
        <time>2024-07-06T08:09:33.000Z</time>
      </trkpt>
      <trkpt lat="52.278537" lon="-0.408615">
        <ele>39.206419</ele>
        <time>2024-07-06T08:09:36.000Z</time>
      </trkpt>
      <trkpt lat="52.277115" lon="-0.408913">
        <ele>37.160794</ele>
        <time>2024-07-06T08:09:52.000Z</time>
      </trkpt>
      <trkpt lat="52.277067" lon="-0.408932">
        <ele>37.164632</ele>
        <time>2024-07-06T08:09:53.000Z</time>
      </trkpt>
      <trkpt lat="52.276972" lon="-0.408955">
        <ele>37.174097</ele>
        <time>2024-07-06T08:09:54.000Z</time>
      </trkpt>
      <trkpt lat="52.275939" lon="-0.40919">
        <ele>37.269499</ele>
        <time>2024-07-06T08:10:06.000Z</time>
      </trkpt>
      <trkpt lat="52.275767" lon="-0.4093">
        <ele>37.28709</ele>
        <time>2024-07-06T08:10:08.000Z</time>
      </trkpt>
      <trkpt lat="52.275394" lon="-0.409698">
        <ele>37.728006</ele>
        <time>2024-07-06T08:10:13.000Z</time>
      </trkpt>
      <trkpt lat="52.275278" lon="-0.409966">
        <ele>37.949058</ele>
        <time>2024-07-06T08:10:15.000Z</time>
      </trkpt>
      <trkpt lat="52.275159" lon="-0.410646">
        <ele>38.423188</ele>
        <time>2024-07-06T08:10:20.000Z</time>
      </trkpt>
      <trkpt lat="52.275087" lon="-0.411868">
        <ele>39.23825</ele>
        <time>2024-07-06T08:10:28.000Z</time>
      </trkpt>
      <trkpt lat="52.275007" lon="-0.412583">
        <ele>39.307502</ele>
        <time>2024-07-06T08:10:33.000Z</time>
      </trkpt>
      <trkpt lat="52.274976" lon="-0.412686">
        <ele>39.318314</ele>
        <time>2024-07-06T08:10:34.000Z</time>
      </trkpt>
      <trkpt lat="52.274924" lon="-0.412924">
        <ele>39.340712</ele>
        <time>2024-07-06T08:10:36.000Z</time>
      </trkpt>
      <trkpt lat="52.274712" lon="-0.413544">
        <ele>39.402617</ele>
        <time>2024-07-06T08:10:41.000Z</time>
      </trkpt>
      <trkpt lat="52.274655" lon="-0.413637">
        <ele>39.415793</ele>
        <time>2024-07-06T08:10:42.000Z</time>
      </trkpt>
      <trkpt lat="52.27445" lon="-0.413764">
        <ele>39.447009</ele>
        <time>2024-07-06T08:10:44.000Z</time>
      </trkpt>
      <trkpt lat="52.274258" lon="-0.413772">
        <ele>39.473556</ele>
        <time>2024-07-06T08:10:46.000Z</time>
      </trkpt>
      <trkpt lat="52.271713" lon="-0.413958">
        <ele>39.316366</ele>
        <time>2024-07-06T08:11:14.000Z</time>
      </trkpt>
      <trkpt lat="52.270649" lon="-0.414214">
        <ele>39.266124</ele>
        <time>2024-07-06T08:11:26.000Z</time>
      </trkpt>
      <trkpt lat="52.270391" lon="-0.414381">
        <ele>39.284252</ele>
        <time>2024-07-06T08:11:29.000Z</time>
      </trkpt>
      <trkpt lat="52.269974" lon="-0.414718">
        <ele>39.408524</ele>
        <time>2024-07-06T08:11:34.000Z</time>
      </trkpt>
      <trkpt lat="52.267564" lon="-0.415713">
        <ele>40.082214</ele>
        <time>2024-07-06T08:12:02.000Z</time>
      </trkpt>
      <trkpt lat="52.266431" lon="-0.416401">
        <ele>40.136667</ele>
        <time>2024-07-06T08:12:15.000Z</time>
      </trkpt>
      <trkpt lat="52.263211" lon="-0.418563">
        <ele>39.540826</ele>
        <time>2024-07-06T08:12:54.000Z</time>
      </trkpt>
      <trkpt lat="52.262996" lon="-0.41871">
        <ele>39.566283</ele>
        <time>2024-07-06T08:12:57.000Z</time>
      </trkpt>
      <trkpt lat="52.262356" lon="-0.419135">
        <ele>39.642069</ele>
        <time>2024-07-06T08:13:05.000Z</time>
      </trkpt>
      <trkpt lat="52.262044" lon="-0.419388">
        <ele>39.688413</ele>
        <time>2024-07-06T08:13:09.000Z</time>
      </trkpt>
      <trkpt lat="52.261472" lon="-0.419832">
        <ele>39.98912</ele>
        <time>2024-07-06T08:13:16.000Z</time>
      </trkpt>
      <trkpt lat="52.261209" lon="-0.42002">
        <ele>40.134496</ele>
        <time>2024-07-06T08:13:19.000Z</time>
      </trkpt>
      <trkpt lat="52.260737" lon="-0.420484">
        <ele>40.399479</ele>
        <time>2024-07-06T08:13:25.000Z</time>
      </trkpt>
      <trkpt lat="52.260226" lon="-0.421674">
        <ele>41.08089</ele>
        <time>2024-07-06T08:13:35.000Z</time>
      </trkpt>
      <trkpt lat="52.259749" lon="-0.422528">
        <ele>41.725501</ele>
        <time>2024-07-06T08:13:43.000Z</time>
      </trkpt>
      <trkpt lat="52.259336" lon="-0.422964">
        <ele>42.186943</ele>
        <time>2024-07-06T08:13:48.000Z</time>
      </trkpt>
      <trkpt lat="52.258779" lon="-0.42332">
        <ele>43.23267</ele>
        <time>2024-07-06T08:13:55.000Z</time>
      </trkpt>
      <trkpt lat="52.257891" lon="-0.423406">
        <ele>44.801618</ele>
        <time>2024-07-06T08:14:05.000Z</time>
      </trkpt>
      <trkpt lat="52.257544" lon="-0.423568">
        <ele>45.429056</ele>
        <time>2024-07-06T08:14:09.000Z</time>
      </trkpt>
      <trkpt lat="52.257156" lon="-0.423948">
        <ele>46.764148</ele>
        <time>2024-07-06T08:14:14.000Z</time>
      </trkpt>
      <trkpt lat="52.256847" lon="-0.424261">
        <ele>47.784524</ele>
        <time>2024-07-06T08:14:18.000Z</time>
      </trkpt>
      <trkpt lat="52.256356" lon="-0.424849">
        <ele>49.53972</ele>
        <time>2024-07-06T08:14:25.000Z</time>
      </trkpt>
      <trkpt lat="52.256191" lon="-0.425049">
        <ele>50.138876</ele>
        <time>2024-07-06T08:14:27.000Z</time>
      </trkpt>
      <trkpt lat="52.255941" lon="-0.425227">
        <ele>51.016612</ele>
        <time>2024-07-06T08:14:30.000Z</time>
      </trkpt>
      <trkpt lat="52.255631" lon="-0.425274">
        <ele>52.039129</ele>
        <time>2024-07-06T08:14:33.000Z</time>
      </trkpt>
      <trkpt lat="52.254907" lon="-0.425151">
        <ele>54.509389</ele>
        <time>2024-07-06T08:14:41.000Z</time>
      </trkpt>
      <trkpt lat="52.253848" lon="-0.425598">
        <ele>58.394904</ele>
        <time>2024-07-06T08:14:53.000Z</time>
      </trkpt>
      <trkpt lat="52.253551" lon="-0.425651">
        <ele>59.55874</ele>
        <time>2024-07-06T08:14:56.000Z</time>
      </trkpt>
      <trkpt lat="52.253469" lon="-0.425654">
        <ele>59.859633</ele>
        <time>2024-07-06T08:14:57.000Z</time>
      </trkpt>
      <trkpt lat="52.253025" lon="-0.425503">
        <ele>61.648306</ele>
        <time>2024-07-06T08:15:02.000Z</time>
      </trkpt>
      <trkpt lat="52.251749" lon="-0.424721">
        <ele>65.271892</ele>
        <time>2024-07-06T08:15:17.000Z</time>
      </trkpt>
      <trkpt lat="52.251523" lon="-0.42457">
        <ele>65.788766</ele>
        <time>2024-07-06T08:15:20.000Z</time>
      </trkpt>
      <trkpt lat="52.250646" lon="-0.42388">
        <ele>66.648643</ele>
        <time>2024-07-06T08:15:31.000Z</time>
      </trkpt>
      <trkpt lat="52.25021" lon="-0.423439">
        <ele>65.741538</ele>
        <time>2024-07-06T08:15:37.000Z</time>
      </trkpt>
      <trkpt lat="52.250088" lon="-0.423314">
        <ele>65.451263</ele>
        <time>2024-07-06T08:15:39.000Z</time>
      </trkpt>
      <trkpt lat="52.249495" lon="-0.422734">
        <ele>64.211514</ele>
        <time>2024-07-06T08:15:47.000Z</time>
      </trkpt>
      <trkpt lat="52.248395" lon="-0.421906">
        <ele>62.092585</ele>
        <time>2024-07-06T08:16:00.000Z</time>
      </trkpt>
      <trkpt lat="52.248229" lon="-0.421782">
        <ele>61.783804</ele>
        <time>2024-07-06T08:16:02.000Z</time>
      </trkpt>
      <trkpt lat="52.247565" lon="-0.421251">
        <ele>60.838875</ele>
        <time>2024-07-06T08:16:10.000Z</time>
      </trkpt>
      <trkpt lat="52.245402" lon="-0.419517">
        <ele>62.441565</ele>
        <time>2024-07-06T08:16:37.000Z</time>
      </trkpt>
      <trkpt lat="52.24436" lon="-0.418552">
        <ele>64.460105</ele>
        <time>2024-07-06T08:16:50.000Z</time>
      </trkpt>
      <trkpt lat="52.244133" lon="-0.418339">
        <ele>65.090399</ele>
        <time>2024-07-06T08:16:53.000Z</time>
      </trkpt>
      <trkpt lat="52.243678" lon="-0.418197">
        <ele>66.234817</ele>
        <time>2024-07-06T08:16:58.000Z</time>
      </trkpt>
      <trkpt lat="52.242952" lon="-0.418084">
        <ele>68.027486</ele>
        <time>2024-07-06T08:17:06.000Z</time>
      </trkpt>
      <trkpt lat="52.242004" lon="-0.417601">
        <ele>70.33303</ele>
        <time>2024-07-06T08:17:17.000Z</time>
      </trkpt>
      <trkpt lat="52.241152" lon="-0.417231">
        <ele>72.368549</ele>
        <time>2024-07-06T08:17:27.000Z</time>
      </trkpt>
      <trkpt lat="52.240444" lon="-0.417132">
        <ele>73.918008</ele>
        <time>2024-07-06T08:17:35.000Z</time>
      </trkpt>
      <trkpt lat="52.238604" lon="-0.416454">
        <ele>77.408016</ele>
        <time>2024-07-06T08:17:56.000Z</time>
      </trkpt>
      <trkpt lat="52.238263" lon="-0.416254">
        <ele>77.84035</ele>
        <time>2024-07-06T08:18:00.000Z</time>
      </trkpt>
      <trkpt lat="52.237916" lon="-0.415854">
        <ele>78.367361</ele>
        <time>2024-07-06T08:18:05.000Z</time>
      </trkpt>
      <trkpt lat="52.237804" lon="-0.415561">
        <ele>78.627344</ele>
        <time>2024-07-06T08:18:07.000Z</time>
      </trkpt>
      <trkpt lat="52.237516" lon="-0.415145">
        <ele>78.680126</ele>
        <time>2024-07-06T08:18:11.000Z</time>
      </trkpt>
      <trkpt lat="52.237037" lon="-0.41474">
        <ele>78.544957</ele>
        <time>2024-07-06T08:18:17.000Z</time>
      </trkpt>
      <trkpt lat="52.236716" lon="-0.414517">
        <ele>78.459196</ele>
        <time>2024-07-06T08:18:21.000Z</time>
      </trkpt>
      <trkpt lat="52.23585" lon="-0.41422">
        <ele>78.190224</ele>
        <time>2024-07-06T08:18:31.000Z</time>
      </trkpt>
      <trkpt lat="52.235572" lon="-0.414041">
        <ele>78.060273</ele>
        <time>2024-07-06T08:18:34.000Z</time>
      </trkpt>
      <trkpt lat="52.235105" lon="-0.413408">
        <ele>77.805053</ele>
        <time>2024-07-06T08:18:41.000Z</time>
      </trkpt>
      <trkpt lat="52.234399" lon="-0.412084">
        <ele>77.405157</ele>
        <time>2024-07-06T08:18:53.000Z</time>
      </trkpt>
      <trkpt lat="52.233962" lon="-0.411699">
        <ele>77.259934</ele>
        <time>2024-07-06T08:18:59.000Z</time>
      </trkpt>
      <trkpt lat="52.23362" lon="-0.411563">
        <ele>77.158706</ele>
        <time>2024-07-06T08:19:03.000Z</time>
      </trkpt>
      <trkpt lat="52.232921" lon="-0.411478">
        <ele>76.902108</ele>
        <time>2024-07-06T08:19:11.000Z</time>
      </trkpt>
      <trkpt lat="52.231597" lon="-0.411836">
        <ele>76.160309</ele>
        <time>2024-07-06T08:19:26.000Z</time>
      </trkpt>
      <trkpt lat="52.231257" lon="-0.411873">
        <ele>75.972419</ele>
        <time>2024-07-06T08:19:30.000Z</time>
      </trkpt>
      <trkpt lat="52.231024" lon="-0.411807">
        <ele>75.839027</ele>
        <time>2024-07-06T08:19:33.000Z</time>
      </trkpt>
      <trkpt lat="52.230782" lon="-0.411624">
        <ele>75.693505</ele>
        <time>2024-07-06T08:19:36.000Z</time>
      </trkpt>
      <trkpt lat="52.230561" lon="-0.411184">
        <ele>75.509251</ele>
        <time>2024-07-06T08:19:40.000Z</time>
      </trkpt>
      <trkpt lat="52.230258" lon="-0.410214">
        <ele>75.142927</ele>
        <time>2024-07-06T08:19:47.000Z</time>
      </trkpt>
      <trkpt lat="52.229959" lon="-0.409534">
        <ele>75.036155</ele>
        <time>2024-07-06T08:19:53.000Z</time>
      </trkpt>
      <trkpt lat="52.229407" lon="-0.40794">
        <ele>75.040553</ele>
        <time>2024-07-06T08:20:05.000Z</time>
      </trkpt>
      <trkpt lat="52.229228" lon="-0.407774">
        <ele>75.041316</ele>
        <time>2024-07-06T08:20:07.000Z</time>
      </trkpt>
      <trkpt lat="52.22903" lon="-0.407883">
        <ele>75.071815</ele>
        <time>2024-07-06T08:20:09.000Z</time>
      </trkpt>
      <trkpt lat="52.22843" lon="-0.408638">
        <ele>75.470241</ele>
        <time>2024-07-06T08:20:17.000Z</time>
      </trkpt>
      <trkpt lat="52.22718" lon="-0.409862">
        <ele>76.259718</ele>
        <time>2024-07-06T08:20:33.000Z</time>
      </trkpt>
      <trkpt lat="52.226555" lon="-0.410213">
        <ele>76.659838</ele>
        <time>2024-07-06T08:20:40.000Z</time>
      </trkpt>
      <trkpt lat="52.226126" lon="-0.410325">
        <ele>76.918845</ele>
        <time>2024-07-06T08:20:45.000Z</time>
      </trkpt>
      <trkpt lat="52.225924" lon="-0.410299">
        <ele>77.042786</ele>
        <time>2024-07-06T08:20:47.000Z</time>
      </trkpt>
      <trkpt lat="52.225621" lon="-0.410202">
        <ele>77.09967</ele>
        <time>2024-07-06T08:20:50.000Z</time>
      </trkpt>
      <trkpt lat="52.224432" lon="-0.409949">
        <ele>77.2956</ele>
        <time>2024-07-06T08:21:03.000Z</time>
      </trkpt>
      <trkpt lat="52.223859" lon="-0.409771">
        <ele>77.372556</ele>
        <time>2024-07-06T08:21:09.000Z</time>
      </trkpt>
      <trkpt lat="52.222396" lon="-0.408967">
        <ele>77.523013</ele>
        <time>2024-07-06T08:21:26.000Z</time>
      </trkpt>
      <trkpt lat="52.221925" lon="-0.408837">
        <ele>77.632267</ele>
        <time>2024-07-06T08:21:31.000Z</time>
      </trkpt>
      <trkpt lat="52.221261" lon="-0.408732">
        <ele>77.789363</ele>
        <time>2024-07-06T08:21:38.000Z</time>
      </trkpt>
      <trkpt lat="52.220779" lon="-0.408642">
        <ele>77.900224</ele>
        <time>2024-07-06T08:21:43.000Z</time>
      </trkpt>
      <trkpt lat="52.219866" lon="-0.408481">
        <ele>77.865381</ele>
        <time>2024-07-06T08:21:53.000Z</time>
      </trkpt>
      <trkpt lat="52.219575" lon="-0.408505">
        <ele>77.838095</ele>
        <time>2024-07-06T08:21:56.000Z</time>
      </trkpt>
      <trkpt lat="52.217905" lon="-0.408958">
        <ele>77.566697</ele>
        <time>2024-07-06T08:22:15.000Z</time>
      </trkpt>
      <trkpt lat="52.217263" lon="-0.409116">
        <ele>77.424906</ele>
        <time>2024-07-06T08:22:22.000Z</time>
      </trkpt>
      <trkpt lat="52.21711" lon="-0.409132">
        <ele>77.391696</ele>
        <time>2024-07-06T08:22:24.000Z</time>
      </trkpt>
      <trkpt lat="52.216265" lon="-0.409221">
        <ele>77.187316</ele>
        <time>2024-07-06T08:22:33.000Z</time>
      </trkpt>
      <trkpt lat="52.215501" lon="-0.409065">
        <ele>76.997241</ele>
        <time>2024-07-06T08:22:42.000Z</time>
      </trkpt>
      <trkpt lat="52.214865" lon="-0.408992">
        <ele>76.911505</ele>
        <time>2024-07-06T08:22:49.000Z</time>
      </trkpt>
      <trkpt lat="52.214485" lon="-0.409022">
        <ele>76.882261</ele>
        <time>2024-07-06T08:22:53.000Z</time>
      </trkpt>
      <trkpt lat="52.213388" lon="-0.409369">
        <ele>76.812921</ele>
        <time>2024-07-06T08:23:05.000Z</time>
      </trkpt>
      <trkpt lat="52.21295" lon="-0.409316">
        <ele>76.846172</ele>
        <time>2024-07-06T08:23:10.000Z</time>
      </trkpt>
      <trkpt lat="52.212778" lon="-0.409179">
        <ele>76.860056</ele>
        <time>2024-07-06T08:23:12.000Z</time>
      </trkpt>
      <trkpt lat="52.212668" lon="-0.408965">
        <ele>76.873746</ele>
        <time>2024-07-06T08:23:14.000Z</time>
      </trkpt>
      <trkpt lat="52.211811" lon="-0.40578">
        <ele>77.044499</ele>
        <time>2024-07-06T08:23:38.000Z</time>
      </trkpt>
      <trkpt lat="52.211713" lon="-0.405552">
        <ele>77.058848</ele>
        <time>2024-07-06T08:23:40.000Z</time>
      </trkpt>
      <trkpt lat="52.211568" lon="-0.405424">
        <ele>77.072478</ele>
        <time>2024-07-06T08:23:42.000Z</time>
      </trkpt>
      <trkpt lat="52.210204" lon="-0.405267">
        <ele>77.160516</ele>
        <time>2024-07-06T08:23:57.000Z</time>
      </trkpt>
      <trkpt lat="52.208944" lon="-0.405273">
        <ele>77.216836</ele>
        <time>2024-07-06T08:24:11.000Z</time>
      </trkpt>
      <trkpt lat="52.206571" lon="-0.405709">
        <ele>77.079867</ele>
        <time>2024-07-06T08:24:38.000Z</time>
      </trkpt>
      <trkpt lat="52.206509" lon="-0.405713">
        <ele>77.0696</ele>
        <time>2024-07-06T08:24:39.000Z</time>
      </trkpt>
      <trkpt lat="52.20559" lon="-0.40583">
        <ele>76.701281</ele>
        <time>2024-07-06T08:24:49.000Z</time>
      </trkpt>
      <trkpt lat="52.204308" lon="-0.405874">
        <ele>75.749868</ele>
        <time>2024-07-06T08:25:03.000Z</time>
      </trkpt>
      <trkpt lat="52.203975" lon="-0.405971">
        <ele>75.342519</ele>
        <time>2024-07-06T08:25:07.000Z</time>
      </trkpt>
      <trkpt lat="52.20322" lon="-0.40738">
        <ele>73.702438</ele>
        <time>2024-07-06T08:25:20.000Z</time>
      </trkpt>
      <trkpt lat="52.202548" lon="-0.408955">
        <ele>70.66895</ele>
        <time>2024-07-06T08:25:33.000Z</time>
      </trkpt>
      <trkpt lat="52.202341" lon="-0.409266">
        <ele>69.765779</ele>
        <time>2024-07-06T08:25:36.000Z</time>
      </trkpt>
      <trkpt lat="52.20093" lon="-0.410892">
        <ele>63.785737</ele>
        <time>2024-07-06T08:25:55.000Z</time>
      </trkpt>
      <trkpt lat="52.199977" lon="-0.412514">
        <ele>59.431691</ele>
        <time>2024-07-06T08:26:10.000Z</time>
      </trkpt>
      <trkpt lat="52.199099" lon="-0.413743">
        <ele>56.728788</ele>
        <time>2024-07-06T08:26:23.000Z</time>
      </trkpt>
      <trkpt lat="52.198927" lon="-0.413892">
        <ele>56.442638</ele>
        <time>2024-07-06T08:26:25.000Z</time>
      </trkpt>
      <trkpt lat="52.198658" lon="-0.413953">
        <ele>56.402321</ele>
        <time>2024-07-06T08:26:28.000Z</time>
      </trkpt>
      <trkpt lat="52.198255" lon="-0.413921">
        <ele>56.338785</ele>
        <time>2024-07-06T08:26:32.000Z</time>
      </trkpt>
      <trkpt lat="52.197767" lon="-0.4139">
        <ele>56.260174</ele>
        <time>2024-07-06T08:26:37.000Z</time>
      </trkpt>
      <trkpt lat="52.197411" lon="-0.414108">
        <ele>56.202675</ele>
        <time>2024-07-06T08:26:41.000Z</time>
      </trkpt>
      <trkpt lat="52.196977" lon="-0.414743">
        <ele>57.355426</ele>
        <time>2024-07-06T08:26:47.000Z</time>
      </trkpt>
      <trkpt lat="52.196078" lon="-0.415758">
        <ele>60.572072</ele>
        <time>2024-07-06T08:26:59.000Z</time>
      </trkpt>
      <trkpt lat="52.194681" lon="-0.417842">
        <ele>67.604711</ele>
        <time>2024-07-06T08:27:20.000Z</time>
      </trkpt>
      <trkpt lat="52.194097" lon="-0.418837">
        <ele>69.819472</ele>
        <time>2024-07-06T08:27:29.000Z</time>
      </trkpt>
      <trkpt lat="52.194015" lon="-0.419023">
        <ele>70.163646</ele>
        <time>2024-07-06T08:27:31.000Z</time>
      </trkpt>
      <trkpt lat="52.193413" lon="-0.419833">
        <ele>71.877323</ele>
        <time>2024-07-06T08:27:40.000Z</time>
      </trkpt>
      <trkpt lat="52.193117" lon="-0.420347">
        <ele>72.619085</ele>
        <time>2024-07-06T08:27:45.000Z</time>
      </trkpt>
      <trkpt lat="52.192807" lon="-0.420918">
        <ele>73.098043</ele>
        <time>2024-07-06T08:27:50.000Z</time>
      </trkpt>
      <trkpt lat="52.192702" lon="-0.421203">
        <ele>73.309051</ele>
        <time>2024-07-06T08:27:52.000Z</time>
      </trkpt>
      <trkpt lat="52.192622" lon="-0.421499">
        <ele>73.511988</ele>
        <time>2024-07-06T08:27:54.000Z</time>
      </trkpt>
      <trkpt lat="52.192571" lon="-0.422373">
        <ele>74.067933</ele>
        <time>2024-07-06T08:28:00.000Z</time>
      </trkpt>
      <trkpt lat="52.192333" lon="-0.423349">
        <ele>74.623946</ele>
        <time>2024-07-06T08:28:07.000Z</time>
      </trkpt>
      <trkpt lat="52.191991" lon="-0.423957">
        <ele>75.017167</ele>
        <time>2024-07-06T08:28:13.000Z</time>
      </trkpt>
      <trkpt lat="52.19121" lon="-0.425014">
        <ele>75.706771</ele>
        <time>2024-07-06T08:28:24.000Z</time>
      </trkpt>
      <trkpt lat="52.190819" lon="-0.426317">
        <ele>75.865844</ele>
        <time>2024-07-06T08:28:34.000Z</time>
      </trkpt>
      <trkpt lat="52.189769" lon="-0.429011">
        <ele>75.849591</ele>
        <time>2024-07-06T08:28:56.000Z</time>
      </trkpt>
      <trkpt lat="52.18937" lon="-0.430466">
        <ele>75.508726</ele>
        <time>2024-07-06T08:29:07.000Z</time>
      </trkpt>
      <trkpt lat="52.188996" lon="-0.430988">
        <ele>75.176892</ele>
        <time>2024-07-06T08:29:12.000Z</time>
      </trkpt>
      <trkpt lat="52.187876" lon="-0.431421">
        <ele>74.287301</ele>
        <time>2024-07-06T08:29:25.000Z</time>
      </trkpt>
      <trkpt lat="52.187477" lon="-0.431566">
        <ele>73.84805</ele>
        <time>2024-07-06T08:29:30.000Z</time>
      </trkpt>
      <trkpt lat="52.187188" lon="-0.431884">
        <ele>73.462431</ele>
        <time>2024-07-06T08:29:34.000Z</time>
      </trkpt>
      <trkpt lat="52.186145" lon="-0.433094">
        <ele>71.6806</ele>
        <time>2024-07-06T08:29:48.000Z</time>
      </trkpt>
      <trkpt lat="52.185415" lon="-0.433841">
        <ele>70.112032</ele>
        <time>2024-07-06T08:29:58.000Z</time>
      </trkpt>
      <trkpt lat="52.18425" lon="-0.435017">
        <ele>66.645902</ele>
        <time>2024-07-06T08:30:13.000Z</time>
      </trkpt>
      <trkpt lat="52.183211" lon="-0.436087">
        <ele>62.501999</ele>
        <time>2024-07-06T08:30:27.000Z</time>
      </trkpt>
      <trkpt lat="52.182676" lon="-0.436644">
        <ele>59.560288</ele>
        <time>2024-07-06T08:30:34.000Z</time>
      </trkpt>
      <trkpt lat="52.182266" lon="-0.437057">
        <ele>57.280777</ele>
        <time>2024-07-06T08:30:39.000Z</time>
      </trkpt>
      <trkpt lat="52.182028" lon="-0.437329">
        <ele>55.921951</ele>
        <time>2024-07-06T08:30:42.000Z</time>
      </trkpt>
      <trkpt lat="52.180262" lon="-0.439542">
        <ele>45.632881</ele>
        <time>2024-07-06T08:31:07.000Z</time>
      </trkpt>
      <trkpt lat="52.179864" lon="-0.440055">
        <ele>44.725871</ele>
        <time>2024-07-06T08:31:13.000Z</time>
      </trkpt>
      <trkpt lat="52.179081" lon="-0.441015">
        <ele>43.234625</ele>
        <time>2024-07-06T08:31:24.000Z</time>
      </trkpt>
      <trkpt lat="52.178158" lon="-0.442122">
        <ele>44.768807</ele>
        <time>2024-07-06T08:31:37.000Z</time>
      </trkpt>
      <trkpt lat="52.177713" lon="-0.442619">
        <ele>45.494218</ele>
        <time>2024-07-06T08:31:43.000Z</time>
      </trkpt>
      <trkpt lat="52.177626" lon="-0.44272">
        <ele>45.680197</ele>
        <time>2024-07-06T08:31:44.000Z</time>
      </trkpt>
      <trkpt lat="52.175515" lon="-0.444612">
        <ele>51.576956</ele>
        <time>2024-07-06T08:32:11.000Z</time>
      </trkpt>
      <trkpt lat="52.174889" lon="-0.445138">
        <ele>53.823673</ele>
        <time>2024-07-06T08:32:19.000Z</time>
      </trkpt>
      <trkpt lat="52.174128" lon="-0.445802">
        <ele>57.020363</ele>
        <time>2024-07-06T08:32:29.000Z</time>
      </trkpt>
      <trkpt lat="52.17347" lon="-0.446491">
        <ele>60.306184</ele>
        <time>2024-07-06T08:32:38.000Z</time>
      </trkpt>
      <trkpt lat="52.172638" lon="-0.447737">
        <ele>64.306352</ele>
        <time>2024-07-06T08:32:51.000Z</time>
      </trkpt>
      <trkpt lat="52.172204" lon="-0.448305">
        <ele>65.899485</ele>
        <time>2024-07-06T08:32:57.000Z</time>
      </trkpt>
      <trkpt lat="52.171913" lon="-0.448688">
        <ele>66.937173</ele>
        <time>2024-07-06T08:33:01.000Z</time>
      </trkpt>
      <trkpt lat="52.171471" lon="-0.449419">
        <ele>67.900742</ele>
        <time>2024-07-06T08:33:08.000Z</time>
      </trkpt>
      <trkpt lat="52.171308" lon="-0.449715">
        <ele>67.972499</ele>
        <time>2024-07-06T08:33:11.000Z</time>
      </trkpt>
      <trkpt lat="52.171222" lon="-0.449849">
        <ele>68.008969</ele>
        <time>2024-07-06T08:33:12.000Z</time>
      </trkpt>
      <trkpt lat="52.171092" lon="-0.449819">
        <ele>68.043904</ele>
        <time>2024-07-06T08:33:13.000Z</time>
      </trkpt>
      <trkpt lat="52.171009" lon="-0.449979">
        <ele>68.07906</ele>
        <time>2024-07-06T08:33:14.000Z</time>
      </trkpt>
      <trkpt lat="52.171008" lon="-0.449981">
        <ele>68.080842</ele>
        <time>2024-07-06T08:33:14.000Z</time>
      </trkpt>
      <trkpt lat="52.171018" lon="-0.450046">
        <ele>68.09118</ele>
        <time>2024-07-06T08:33:14.000Z</time>
      </trkpt>
      <trkpt lat="52.171029" lon="-0.450078">
        <ele>68.100883</ele>
        <time>2024-07-06T08:33:14.000Z</time>
      </trkpt>
      <trkpt lat="52.171081" lon="-0.450207">
        <ele>68.126317</ele>
        <time>2024-07-06T08:33:15.000Z</time>
      </trkpt>
      <trkpt lat="52.171179" lon="-0.450209">
        <ele>68.154129</ele>
        <time>2024-07-06T08:33:16.000Z</time>
      </trkpt>
      <trkpt lat="52.171208" lon="-0.450201">
        <ele>68.161357</ele>
        <time>2024-07-06T08:33:16.000Z</time>
      </trkpt>
      <trkpt lat="52.171207" lon="-0.450176">
        <ele>68.168184</ele>
        <time>2024-07-06T08:33:16.000Z</time>
      </trkpt>
      <trkpt lat="52.171271" lon="-0.450045">
        <ele>68.196949</ele>
        <time>2024-07-06T08:33:17.000Z</time>
      </trkpt>
      <trkpt lat="52.171252" lon="-0.4499">
        <ele>68.221277</ele>
        <time>2024-07-06T08:33:18.000Z</time>
      </trkpt>
      <trkpt lat="52.171305" lon="-0.449717">
        <ele>68.260077</ele>
        <time>2024-07-06T08:33:19.000Z</time>
      </trkpt>
      <trkpt lat="52.171471" lon="-0.449413">
        <ele>68.314771</ele>
        <time>2024-07-06T08:33:22.000Z</time>
      </trkpt>
      <trkpt lat="52.171912" lon="-0.448699">
        <ele>66.805247</ele>
        <time>2024-07-06T08:33:29.000Z</time>
      </trkpt>
      <trkpt lat="52.172632" lon="-0.447738">
        <ele>64.554062</ele>
        <time>2024-07-06T08:33:39.000Z</time>
      </trkpt>
      <trkpt lat="52.173471" lon="-0.446495">
        <ele>60.237037</ele>
        <time>2024-07-06T08:33:52.000Z</time>
      </trkpt>
      <trkpt lat="52.17413" lon="-0.445787">
        <ele>56.985122</ele>
        <time>2024-07-06T08:34:01.000Z</time>
      </trkpt>
      <trkpt lat="52.174885" lon="-0.445137">
        <ele>53.911112</ele>
        <time>2024-07-06T08:34:10.000Z</time>
      </trkpt>
      <trkpt lat="52.175504" lon="-0.444621">
        <ele>51.46025</ele>
        <time>2024-07-06T08:34:18.000Z</time>
      </trkpt>
      <trkpt lat="52.177628" lon="-0.442712">
        <ele>45.762687</ele>
        <time>2024-07-06T08:34:45.000Z</time>
      </trkpt>
      <trkpt lat="52.177719" lon="-0.442614">
        <ele>45.604569</ele>
        <time>2024-07-06T08:34:46.000Z</time>
      </trkpt>
      <trkpt lat="52.178157" lon="-0.442108">
        <ele>44.762498</ele>
        <time>2024-07-06T08:34:52.000Z</time>
      </trkpt>
      <trkpt lat="52.179085" lon="-0.44102">
        <ele>43.600576</ele>
        <time>2024-07-06T08:35:05.000Z</time>
      </trkpt>
      <trkpt lat="52.179866" lon="-0.440058">
        <ele>44.511664</ele>
        <time>2024-07-06T08:35:16.000Z</time>
      </trkpt>
      <trkpt lat="52.180266" lon="-0.439538">
        <ele>44.991698</ele>
        <time>2024-07-06T08:35:22.000Z</time>
      </trkpt>
      <trkpt lat="52.182031" lon="-0.437326">
        <ele>55.779434</ele>
        <time>2024-07-06T08:35:47.000Z</time>
      </trkpt>
      <trkpt lat="52.182259" lon="-0.437074">
        <ele>57.221809</ele>
        <time>2024-07-06T08:35:50.000Z</time>
      </trkpt>
      <trkpt lat="52.182673" lon="-0.436652">
        <ele>59.641447</ele>
        <time>2024-07-06T08:35:55.000Z</time>
      </trkpt>
      <trkpt lat="52.18321" lon="-0.436086">
        <ele>62.763988</ele>
        <time>2024-07-06T08:36:02.000Z</time>
      </trkpt>
      <trkpt lat="52.184251" lon="-0.435019">
        <ele>66.648196</ele>
        <time>2024-07-06T08:36:16.000Z</time>
      </trkpt>
      <trkpt lat="52.185423" lon="-0.433833">
        <ele>70.06635</ele>
        <time>2024-07-06T08:36:31.000Z</time>
      </trkpt>
      <trkpt lat="52.186153" lon="-0.433099">
        <ele>71.779832</ele>
        <time>2024-07-06T08:36:41.000Z</time>
      </trkpt>
      <trkpt lat="52.187205" lon="-0.431882">
        <ele>73.46031</ele>
        <time>2024-07-06T08:36:55.000Z</time>
      </trkpt>
      <trkpt lat="52.187489" lon="-0.431557">
        <ele>73.878672</ele>
        <time>2024-07-06T08:36:59.000Z</time>
      </trkpt>
      <trkpt lat="52.18786" lon="-0.431421">
        <ele>74.323936</ele>
        <time>2024-07-06T08:37:03.000Z</time>
      </trkpt>
      <trkpt lat="52.189002" lon="-0.430985">
        <ele>75.198768</ele>
        <time>2024-07-06T08:37:16.000Z</time>
      </trkpt>
      <trkpt lat="52.189377" lon="-0.430467">
        <ele>75.570921</ele>
        <time>2024-07-06T08:37:21.000Z</time>
      </trkpt>
      <trkpt lat="52.189754" lon="-0.429005">
        <ele>75.815089</ele>
        <time>2024-07-06T08:37:32.000Z</time>
      </trkpt>
      <trkpt lat="52.190824" lon="-0.426308">
        <ele>75.876883</ele>
        <time>2024-07-06T08:37:54.000Z</time>
      </trkpt>
      <trkpt lat="52.191207" lon="-0.425012">
        <ele>75.688761</ele>
        <time>2024-07-06T08:38:04.000Z</time>
      </trkpt>
      <trkpt lat="52.192004" lon="-0.423965">
        <ele>75.021425</ele>
        <time>2024-07-06T08:38:15.000Z</time>
      </trkpt>
      <trkpt lat="52.192337" lon="-0.423365">
        <ele>74.68911</ele>
        <time>2024-07-06T08:38:21.000Z</time>
      </trkpt>
      <trkpt lat="52.19257" lon="-0.422368">
        <ele>74.083835</ele>
        <time>2024-07-06T08:38:28.000Z</time>
      </trkpt>
      <trkpt lat="52.192623" lon="-0.421504">
        <ele>73.544274</ele>
        <time>2024-07-06T08:38:34.000Z</time>
      </trkpt>
      <trkpt lat="52.192702" lon="-0.421205">
        <ele>73.347316</ele>
        <time>2024-07-06T08:38:36.000Z</time>
      </trkpt>
      <trkpt lat="52.192798" lon="-0.420924">
        <ele>73.14252</ele>
        <time>2024-07-06T08:38:38.000Z</time>
      </trkpt>
      <trkpt lat="52.193125" lon="-0.420355">
        <ele>72.56495</ele>
        <time>2024-07-06T08:38:43.000Z</time>
      </trkpt>
      <trkpt lat="52.193417" lon="-0.419831">
        <ele>71.737943</ele>
        <time>2024-07-06T08:38:48.000Z</time>
      </trkpt>
      <trkpt lat="52.194004" lon="-0.41902">
        <ele>70.284069</ele>
        <time>2024-07-06T08:38:57.000Z</time>
      </trkpt>
      <trkpt lat="52.19411" lon="-0.418834">
        <ele>69.99209</ele>
        <time>2024-07-06T08:38:59.000Z</time>
      </trkpt>
      <trkpt lat="52.19468" lon="-0.417837">
        <ele>67.432944</ele>
        <time>2024-07-06T08:39:08.000Z</time>
      </trkpt>
      <trkpt lat="52.196085" lon="-0.41577">
        <ele>60.663895</ele>
        <time>2024-07-06T08:39:29.000Z</time>
      </trkpt>
      <trkpt lat="52.196984" lon="-0.414727">
        <ele>57.041198</ele>
        <time>2024-07-06T08:39:41.000Z</time>
      </trkpt>
      <trkpt lat="52.197412" lon="-0.414117">
        <ele>56.566828</ele>
        <time>2024-07-06T08:39:47.000Z</time>
      </trkpt>
      <trkpt lat="52.197752" lon="-0.413905">
        <ele>56.411406</ele>
        <time>2024-07-06T08:39:51.000Z</time>
      </trkpt>
      <trkpt lat="52.198254" lon="-0.413923">
        <ele>56.198928</ele>
        <time>2024-07-06T08:39:57.000Z</time>
      </trkpt>
      <trkpt lat="52.198658" lon="-0.413954">
        <ele>56.027216</ele>
        <time>2024-07-06T08:40:01.000Z</time>
      </trkpt>
      <trkpt lat="52.198925" lon="-0.413901">
        <ele>56.499247</ele>
        <time>2024-07-06T08:40:04.000Z</time>
      </trkpt>
      <trkpt lat="52.199105" lon="-0.413743">
        <ele>56.920486</ele>
        <time>2024-07-06T08:40:06.000Z</time>
      </trkpt>
      <trkpt lat="52.199971" lon="-0.412508">
        <ele>59.302646</ele>
        <time>2024-07-06T08:40:19.000Z</time>
      </trkpt>
      <trkpt lat="52.200943" lon="-0.410891">
        <ele>63.794421</ele>
        <time>2024-07-06T08:40:34.000Z</time>
      </trkpt>
      <trkpt lat="52.202347" lon="-0.409267">
        <ele>69.84045</ele>
        <time>2024-07-06T08:40:53.000Z</time>
      </trkpt>
      <trkpt lat="52.202548" lon="-0.408962">
        <ele>70.823217</ele>
        <time>2024-07-06T08:40:56.000Z</time>
      </trkpt>
      <trkpt lat="52.203215" lon="-0.407379">
        <ele>73.580106</ele>
        <time>2024-07-06T08:41:09.000Z</time>
      </trkpt>
      <trkpt lat="52.203961" lon="-0.405957">
        <ele>75.420106</ele>
        <time>2024-07-06T08:41:22.000Z</time>
      </trkpt>
      <trkpt lat="52.204317" lon="-0.405866">
        <ele>75.708288</ele>
        <time>2024-07-06T08:41:26.000Z</time>
      </trkpt>
      <trkpt lat="52.205582" lon="-0.405832">
        <ele>76.762555</ele>
        <time>2024-07-06T08:41:40.000Z</time>
      </trkpt>
      <trkpt lat="52.206497" lon="-0.405722">
        <ele>77.030481</ele>
        <time>2024-07-06T08:41:50.000Z</time>
      </trkpt>
      <trkpt lat="52.206576" lon="-0.405703">
        <ele>77.048273</ele>
        <time>2024-07-06T08:41:51.000Z</time>
      </trkpt>
      <trkpt lat="52.20894" lon="-0.405282">
        <ele>77.213896</ele>
        <time>2024-07-06T08:42:17.000Z</time>
      </trkpt>
      <trkpt lat="52.210209" lon="-0.405269">
        <ele>77.162618</ele>
        <time>2024-07-06T08:42:31.000Z</time>
      </trkpt>
      <trkpt lat="52.211582" lon="-0.405412">
        <ele>77.075479</ele>
        <time>2024-07-06T08:42:46.000Z</time>
      </trkpt>
      <trkpt lat="52.211717" lon="-0.405541">
        <ele>77.059921</ele>
        <time>2024-07-06T08:42:48.000Z</time>
      </trkpt>
      <trkpt lat="52.211806" lon="-0.405786">
        <ele>77.043575</ele>
        <time>2024-07-06T08:42:50.000Z</time>
      </trkpt>
      <trkpt lat="52.212665" lon="-0.408971">
        <ele>76.86704</ele>
        <time>2024-07-06T08:43:14.000Z</time>
      </trkpt>
      <trkpt lat="52.212789" lon="-0.409179">
        <ele>76.85375</ele>
        <time>2024-07-06T08:43:16.000Z</time>
      </trkpt>
      <trkpt lat="52.212941" lon="-0.409306">
        <ele>76.84029</ele>
        <time>2024-07-06T08:43:18.000Z</time>
      </trkpt>
      <trkpt lat="52.213379" lon="-0.409383">
        <ele>76.830816</ele>
        <time>2024-07-06T08:43:23.000Z</time>
      </trkpt>
      <trkpt lat="52.214485" lon="-0.409023">
        <ele>76.867334</ele>
        <time>2024-07-06T08:43:36.000Z</time>
      </trkpt>
      <trkpt lat="52.214864" lon="-0.408996">
        <ele>76.879794</ele>
        <time>2024-07-06T08:43:40.000Z</time>
      </trkpt>
      <trkpt lat="52.215486" lon="-0.409061">
        <ele>77.011281</ele>
        <time>2024-07-06T08:43:47.000Z</time>
      </trkpt>
      <trkpt lat="52.216268" lon="-0.40921">
        <ele>77.19368</ele>
        <time>2024-07-06T08:43:56.000Z</time>
      </trkpt>
      <trkpt lat="52.217109" lon="-0.409128">
        <ele>77.386971</ele>
        <time>2024-07-06T08:44:05.000Z</time>
      </trkpt>
      <trkpt lat="52.21726" lon="-0.409104">
        <ele>77.421572</ele>
        <time>2024-07-06T08:44:07.000Z</time>
      </trkpt>
      <trkpt lat="52.217906" lon="-0.408967">
        <ele>77.569229</ele>
        <time>2024-07-06T08:44:14.000Z</time>
      </trkpt>
      <trkpt lat="52.219586" lon="-0.408497">
        <ele>77.857997</ele>
        <time>2024-07-06T08:44:33.000Z</time>
      </trkpt>
      <trkpt lat="52.219869" lon="-0.40847">
        <ele>77.898918</ele>
        <time>2024-07-06T08:44:36.000Z</time>
      </trkpt>
      <trkpt lat="52.220782" lon="-0.408647">
        <ele>77.860655</ele>
        <time>2024-07-06T08:44:46.000Z</time>
      </trkpt>
      <trkpt lat="52.221256" lon="-0.408724">
        <ele>77.761056</ele>
        <time>2024-07-06T08:44:51.000Z</time>
      </trkpt>
      <trkpt lat="52.221932" lon="-0.408834">
        <ele>77.619933</ele>
        <time>2024-07-06T08:44:59.000Z</time>
      </trkpt>
      <trkpt lat="52.222386" lon="-0.408972">
        <ele>77.547461</ele>
        <time>2024-07-06T08:45:04.000Z</time>
      </trkpt>
      <trkpt lat="52.223869" lon="-0.409766">
        <ele>77.353627</ele>
        <time>2024-07-06T08:45:21.000Z</time>
      </trkpt>
      <trkpt lat="52.224429" lon="-0.409942">
        <ele>77.289533</ele>
        <time>2024-07-06T08:45:27.000Z</time>
      </trkpt>
      <trkpt lat="52.225621" lon="-0.4102">
        <ele>77.135498</ele>
        <time>2024-07-06T08:45:40.000Z</time>
      </trkpt>
      <trkpt lat="52.225918" lon="-0.410292">
        <ele>76.978979</ele>
        <time>2024-07-06T08:45:43.000Z</time>
      </trkpt>
      <trkpt lat="52.226128" lon="-0.410319">
        <ele>76.869083</ele>
        <time>2024-07-06T08:45:45.000Z</time>
      </trkpt>
      <trkpt lat="52.226555" lon="-0.4102">
        <ele>76.63943</ele>
        <time>2024-07-06T08:45:50.000Z</time>
      </trkpt>
      <trkpt lat="52.227184" lon="-0.409868">
        <ele>76.284657</ele>
        <time>2024-07-06T08:45:57.000Z</time>
      </trkpt>
      <trkpt lat="52.228412" lon="-0.40864">
        <ele>75.439268</ele>
        <time>2024-07-06T08:46:13.000Z</time>
      </trkpt>
      <trkpt lat="52.22903" lon="-0.407878">
        <ele>75.115878</ele>
        <time>2024-07-06T08:46:22.000Z</time>
      </trkpt>
      <trkpt lat="52.229234" lon="-0.407777">
        <ele>75.093635</ele>
        <time>2024-07-06T08:46:24.000Z</time>
      </trkpt>
      <trkpt lat="52.229412" lon="-0.407932">
        <ele>75.07344</ele>
        <time>2024-07-06T08:46:26.000Z</time>
      </trkpt>
      <trkpt lat="52.229957" lon="-0.409538">
        <ele>74.961536</ele>
        <time>2024-07-06T08:46:39.000Z</time>
      </trkpt>
      <trkpt lat="52.230252" lon="-0.410221">
        <ele>75.204773</ele>
        <time>2024-07-06T08:46:45.000Z</time>
      </trkpt>
      <trkpt lat="52.230569" lon="-0.411195">
        <ele>75.521379</ele>
        <time>2024-07-06T08:46:53.000Z</time>
      </trkpt>
      <trkpt lat="52.23078" lon="-0.411631">
        <ele>75.680621</ele>
        <time>2024-07-06T08:46:57.000Z</time>
      </trkpt>
      <trkpt lat="52.231016" lon="-0.411807">
        <ele>75.80639</ele>
        <time>2024-07-06T08:47:00.000Z</time>
      </trkpt>
      <trkpt lat="52.231259" lon="-0.411865">
        <ele>75.951061</ele>
        <time>2024-07-06T08:47:03.000Z</time>
      </trkpt>
      <trkpt lat="52.231593" lon="-0.411836">
        <ele>76.152769</ele>
        <time>2024-07-06T08:47:07.000Z</time>
      </trkpt>
      <trkpt lat="52.232906" lon="-0.411488">
        <ele>76.913646</ele>
        <time>2024-07-06T08:47:22.000Z</time>
      </trkpt>
      <trkpt lat="52.233616" lon="-0.411563">
        <ele>77.135278</ele>
        <time>2024-07-06T08:47:30.000Z</time>
      </trkpt>
      <trkpt lat="52.233953" lon="-0.411699">
        <ele>77.246889</ele>
        <time>2024-07-06T08:47:34.000Z</time>
      </trkpt>
      <trkpt lat="52.234402" lon="-0.412077">
        <ele>77.406994</ele>
        <time>2024-07-06T08:47:40.000Z</time>
      </trkpt>
      <trkpt lat="52.235113" lon="-0.413404">
        <ele>77.809732</ele>
        <time>2024-07-06T08:47:52.000Z</time>
      </trkpt>
      <trkpt lat="52.235555" lon="-0.414041">
        <ele>78.035776</ele>
        <time>2024-07-06T08:47:59.000Z</time>
      </trkpt>
      <trkpt lat="52.235845" lon="-0.414222">
        <ele>78.150765</ele>
        <time>2024-07-06T08:48:02.000Z</time>
      </trkpt>
      <trkpt lat="52.23671" lon="-0.414519">
        <ele>78.487317</ele>
        <time>2024-07-06T08:48:12.000Z</time>
      </trkpt>
      <trkpt lat="52.237034" lon="-0.41473">
        <ele>78.618902</ele>
        <time>2024-07-06T08:48:16.000Z</time>
      </trkpt>
      <trkpt lat="52.237524" lon="-0.415142">
        <ele>78.774364</ele>
        <time>2024-07-06T08:48:22.000Z</time>
      </trkpt>
      <trkpt lat="52.237804" lon="-0.415548">
        <ele>78.41774</ele>
        <time>2024-07-06T08:48:26.000Z</time>
      </trkpt>
      <trkpt lat="52.237928" lon="-0.415856">
        <ele>78.221243</ele>
        <time>2024-07-06T08:48:29.000Z</time>
      </trkpt>
      <trkpt lat="52.238269" lon="-0.416262">
        <ele>77.822919</ele>
        <time>2024-07-06T08:48:34.000Z</time>
      </trkpt>
      <trkpt lat="52.238587" lon="-0.416444">
        <ele>77.496136</ele>
        <time>2024-07-06T08:48:38.000Z</time>
      </trkpt>
      <trkpt lat="52.240449" lon="-0.41714">
        <ele>73.93617</ele>
        <time>2024-07-06T08:48:59.000Z</time>
      </trkpt>
      <trkpt lat="52.241147" lon="-0.417235">
        <ele>72.375551</ele>
        <time>2024-07-06T08:49:07.000Z</time>
      </trkpt>
      <trkpt lat="52.241992" lon="-0.417593">
        <ele>70.335128</ele>
        <time>2024-07-06T08:49:17.000Z</time>
      </trkpt>
      <trkpt lat="52.242944" lon="-0.418077">
        <ele>67.995514</ele>
        <time>2024-07-06T08:49:28.000Z</time>
      </trkpt>
      <trkpt lat="52.24368" lon="-0.418186">
        <ele>66.224984</ele>
        <time>2024-07-06T08:49:36.000Z</time>
      </trkpt>
      <trkpt lat="52.244129" lon="-0.418355">
        <ele>65.094708</ele>
        <time>2024-07-06T08:49:41.000Z</time>
      </trkpt>
      <trkpt lat="52.244365" lon="-0.418551">
        <ele>64.553811</ele>
        <time>2024-07-06T08:49:44.000Z</time>
      </trkpt>
      <trkpt lat="52.2454" lon="-0.419518">
        <ele>62.327675</ele>
        <time>2024-07-06T08:49:57.000Z</time>
      </trkpt>
      <trkpt lat="52.247558" lon="-0.421241">
        <ele>60.902685</ele>
        <time>2024-07-06T08:50:24.000Z</time>
      </trkpt>
      <trkpt lat="52.248219" lon="-0.421772">
        <ele>61.891752</ele>
        <time>2024-07-06T08:50:32.000Z</time>
      </trkpt>
      <trkpt lat="52.248389" lon="-0.421892">
        <ele>62.130801</ele>
        <time>2024-07-06T08:50:34.000Z</time>
      </trkpt>
      <trkpt lat="52.249491" lon="-0.422722">
        <ele>64.159043</ele>
        <time>2024-07-06T08:50:47.000Z</time>
      </trkpt>
      <trkpt lat="52.250089" lon="-0.423306">
        <ele>65.618937</ele>
        <time>2024-07-06T08:50:55.000Z</time>
      </trkpt>
      <trkpt lat="52.250225" lon="-0.423454">
        <ele>65.960753</ele>
        <time>2024-07-06T08:50:57.000Z</time>
      </trkpt>
      <trkpt lat="52.25064" lon="-0.423874">
        <ele>66.904518</ele>
        <time>2024-07-06T08:51:02.000Z</time>
      </trkpt>
      <trkpt lat="52.251513" lon="-0.424577">
        <ele>65.689019</ele>
        <time>2024-07-06T08:51:13.000Z</time>
      </trkpt>
      <trkpt lat="52.251748" lon="-0.424718">
        <ele>65.367121</ele>
        <time>2024-07-06T08:51:16.000Z</time>
      </trkpt>
      <trkpt lat="52.253019" lon="-0.425497">
        <ele>61.570547</ele>
        <time>2024-07-06T08:51:31.000Z</time>
      </trkpt>
      <trkpt lat="52.253475" lon="-0.42565">
        <ele>59.795898</ele>
        <time>2024-07-06T08:51:36.000Z</time>
      </trkpt>
      <trkpt lat="52.253556" lon="-0.425647">
        <ele>59.49735</ele>
        <time>2024-07-06T08:51:37.000Z</time>
      </trkpt>
      <trkpt lat="52.253855" lon="-0.425596">
        <ele>58.342654</ele>
        <time>2024-07-06T08:51:40.000Z</time>
      </trkpt>
      <trkpt lat="52.2549" lon="-0.425165">
        <ele>54.539156</ele>
        <time>2024-07-06T08:51:52.000Z</time>
      </trkpt>
      <trkpt lat="52.255641" lon="-0.425269">
        <ele>52.008642</ele>
        <time>2024-07-06T08:52:00.000Z</time>
      </trkpt>
      <trkpt lat="52.255938" lon="-0.425224">
        <ele>51.042382</ele>
        <time>2024-07-06T08:52:03.000Z</time>
      </trkpt>
      <trkpt lat="52.256195" lon="-0.425037">
        <ele>50.187991</ele>
        <time>2024-07-06T08:52:06.000Z</time>
      </trkpt>
      <trkpt lat="52.256359" lon="-0.42484">
        <ele>49.560235</ele>
        <time>2024-07-06T08:52:08.000Z</time>
      </trkpt>
      <trkpt lat="52.256851" lon="-0.424256">
        <ele>47.72121</ele>
        <time>2024-07-06T08:52:15.000Z</time>
      </trkpt>
      <trkpt lat="52.257154" lon="-0.423953">
        <ele>46.652131</ele>
        <time>2024-07-06T08:52:19.000Z</time>
      </trkpt>
      <trkpt lat="52.257561" lon="-0.423576">
        <ele>45.576931</ele>
        <time>2024-07-06T08:52:24.000Z</time>
      </trkpt>
      <trkpt lat="52.257891" lon="-0.423402">
        <ele>44.898624</ele>
        <time>2024-07-06T08:52:28.000Z</time>
      </trkpt>
      <trkpt lat="52.258777" lon="-0.423325">
        <ele>43.148233</ele>
        <time>2024-07-06T08:52:38.000Z</time>
      </trkpt>
      <trkpt lat="52.259332" lon="-0.422966">
        <ele>42.280117</ele>
        <time>2024-07-06T08:52:45.000Z</time>
      </trkpt>
      <trkpt lat="52.259762" lon="-0.422528">
        <ele>41.757671</ele>
        <time>2024-07-06T08:52:51.000Z</time>
      </trkpt>
      <trkpt lat="52.260223" lon="-0.421676">
        <ele>41.027823</ele>
        <time>2024-07-06T08:52:59.000Z</time>
      </trkpt>
      <trkpt lat="52.26073" lon="-0.420481">
        <ele>40.426393</ele>
        <time>2024-07-06T08:53:09.000Z</time>
      </trkpt>
      <trkpt lat="52.261211" lon="-0.42003">
        <ele>40.136387</ele>
        <time>2024-07-06T08:53:15.000Z</time>
      </trkpt>
      <trkpt lat="52.261467" lon="-0.419815">
        <ele>39.977282</ele>
        <time>2024-07-06T08:53:18.000Z</time>
      </trkpt>
      <trkpt lat="52.262043" lon="-0.419384">
        <ele>39.746681</ele>
        <time>2024-07-06T08:53:25.000Z</time>
      </trkpt>
      <trkpt lat="52.262359" lon="-0.419143">
        <ele>39.67491</ele>
        <time>2024-07-06T08:53:29.000Z</time>
      </trkpt>
      <trkpt lat="52.262991" lon="-0.41871">
        <ele>39.533539</ele>
        <time>2024-07-06T08:53:37.000Z</time>
      </trkpt>
      <trkpt lat="52.263198" lon="-0.418568">
        <ele>39.486048</ele>
        <time>2024-07-06T08:53:39.000Z</time>
      </trkpt>
      <trkpt lat="52.266425" lon="-0.416399">
        <ele>40.173114</ele>
        <time>2024-07-06T08:54:18.000Z</time>
      </trkpt>
      <trkpt lat="52.267572" lon="-0.415721">
        <ele>40.057761</ele>
        <time>2024-07-06T08:54:32.000Z</time>
      </trkpt>
      <trkpt lat="52.269975" lon="-0.414717">
        <ele>39.371235</ele>
        <time>2024-07-06T08:55:00.000Z</time>
      </trkpt>
      <trkpt lat="52.270383" lon="-0.414374">
        <ele>39.301177</ele>
        <time>2024-07-06T08:55:05.000Z</time>
      </trkpt>
      <trkpt lat="52.270647" lon="-0.414213">
        <ele>39.30368</ele>
        <time>2024-07-06T08:55:08.000Z</time>
      </trkpt>
      <trkpt lat="52.271706" lon="-0.413952">
        <ele>39.313163</ele>
        <time>2024-07-06T08:55:20.000Z</time>
      </trkpt>
      <trkpt lat="52.274261" lon="-0.413771">
        <ele>39.450702</ele>
        <time>2024-07-06T08:55:48.000Z</time>
      </trkpt>
      <trkpt lat="52.274453" lon="-0.413753">
        <ele>39.444312</ele>
        <time>2024-07-06T08:55:50.000Z</time>
      </trkpt>
      <trkpt lat="52.274649" lon="-0.413641">
        <ele>39.436813</ele>
        <time>2024-07-06T08:55:52.000Z</time>
      </trkpt>
      <trkpt lat="52.27473" lon="-0.413543">
        <ele>39.433659</ele>
        <time>2024-07-06T08:55:53.000Z</time>
      </trkpt>
      <trkpt lat="52.274908" lon="-0.41292">
        <ele>39.418791</ele>
        <time>2024-07-06T08:55:58.000Z</time>
      </trkpt>
      <trkpt lat="52.27498" lon="-0.412688">
        <ele>39.413398</ele>
        <time>2024-07-06T08:56:00.000Z</time>
      </trkpt>
      <trkpt lat="52.27501" lon="-0.412583">
        <ele>39.410817</ele>
        <time>2024-07-06T08:56:01.000Z</time>
      </trkpt>
      <trkpt lat="52.275084" lon="-0.411872">
        <ele>39.085695</ele>
        <time>2024-07-06T08:56:06.000Z</time>
      </trkpt>
      <trkpt lat="52.275171" lon="-0.410653">
        <ele>38.352158</ele>
        <time>2024-07-06T08:56:14.000Z</time>
      </trkpt>
      <trkpt lat="52.275285" lon="-0.409971">
        <ele>37.925432</ele>
        <time>2024-07-06T08:56:19.000Z</time>
      </trkpt>
      <trkpt lat="52.275395" lon="-0.409688">
        <ele>37.726476</ele>
        <time>2024-07-06T08:56:21.000Z</time>
      </trkpt>
      <trkpt lat="52.275762" lon="-0.409291">
        <ele>37.502432</ele>
        <time>2024-07-06T08:56:26.000Z</time>
      </trkpt>
      <trkpt lat="52.275937" lon="-0.409189">
        <ele>37.424945</ele>
        <time>2024-07-06T08:56:28.000Z</time>
      </trkpt>
      <trkpt lat="52.276961" lon="-0.408955">
        <ele>37.004883</ele>
        <time>2024-07-06T08:56:39.000Z</time>
      </trkpt>
      <trkpt lat="52.277065" lon="-0.408935">
        <ele>36.963175</ele>
        <time>2024-07-06T08:56:40.000Z</time>
      </trkpt>
      <trkpt lat="52.277113" lon="-0.408915">
        <ele>36.946295</ele>
        <time>2024-07-06T08:56:41.000Z</time>
      </trkpt>
      <trkpt lat="52.278535" lon="-0.408605">
        <ele>38.987053</ele>
        <time>2024-07-06T08:56:57.000Z</time>
      </trkpt>
      <trkpt lat="52.278772" lon="-0.408531">
        <ele>39.353199</ele>
        <time>2024-07-06T08:57:00.000Z</time>
      </trkpt>
      <trkpt lat="52.278881" lon="-0.408434">
        <ele>39.546844</ele>
        <time>2024-07-06T08:57:01.000Z</time>
      </trkpt>
      <trkpt lat="52.27914" lon="-0.407901">
        <ele>41.206802</ele>
        <time>2024-07-06T08:57:06.000Z</time>
      </trkpt>
      <trkpt lat="52.279199" lon="-0.407765">
        <ele>41.658686</ele>
        <time>2024-07-06T08:57:07.000Z</time>
      </trkpt>
      <trkpt lat="52.28016" lon="-0.405876">
        <ele>48.720786</ele>
        <time>2024-07-06T08:57:24.000Z</time>
      </trkpt>
      <trkpt lat="52.281367" lon="-0.403631">
        <ele>58.916174</ele>
        <time>2024-07-06T08:57:44.000Z</time>
      </trkpt>
      <trkpt lat="52.281659" lon="-0.40324">
        <ele>59.994553</ele>
        <time>2024-07-06T08:57:48.000Z</time>
      </trkpt>
      <trkpt lat="52.282103" lon="-0.402798">
        <ele>61.466108</ele>
        <time>2024-07-06T08:57:54.000Z</time>
      </trkpt>
      <trkpt lat="52.282211" lon="-0.402703">
        <ele>61.828975</ele>
        <time>2024-07-06T08:57:55.000Z</time>
      </trkpt>
      <trkpt lat="52.282814" lon="-0.402138">
        <ele>63.377699</ele>
        <time>2024-07-06T08:58:03.000Z</time>
      </trkpt>
      <trkpt lat="52.283175" lon="-0.40193">
        <ele>62.916983</ele>
        <time>2024-07-06T08:58:07.000Z</time>
      </trkpt>
      <trkpt lat="52.283229" lon="-0.401877">
        <ele>62.840424</ele>
        <time>2024-07-06T08:58:08.000Z</time>
      </trkpt>
      <trkpt lat="52.28331" lon="-0.401765">
        <ele>62.705841</ele>
        <time>2024-07-06T08:58:09.000Z</time>
      </trkpt>
      <trkpt lat="52.283803" lon="-0.400859">
        <ele>61.778566</ele>
        <time>2024-07-06T08:58:17.000Z</time>
      </trkpt>
      <trkpt lat="52.28466" lon="-0.398789">
        <ele>58.460361</ele>
        <time>2024-07-06T08:58:34.000Z</time>
      </trkpt>
      <trkpt lat="52.285322" lon="-0.397659">
        <ele>55.977557</ele>
        <time>2024-07-06T08:58:45.000Z</time>
      </trkpt>
      <trkpt lat="52.287425" lon="-0.394655">
        <ele>48.428244</ele>
        <time>2024-07-06T08:59:16.000Z</time>
      </trkpt>
      <trkpt lat="52.289813" lon="-0.390891">
        <ele>40.839836</ele>
        <time>2024-07-06T08:59:53.000Z</time>
      </trkpt>
      <trkpt lat="52.291369" lon="-0.387721">
        <ele>37.786807</ele>
        <time>2024-07-06T09:00:21.000Z</time>
      </trkpt>
      <trkpt lat="52.291383" lon="-0.387673">
        <ele>37.752652</ele>
        <time>2024-07-06T09:00:21.000Z</time>
      </trkpt>
      <trkpt lat="52.291572" lon="-0.387279">
        <ele>37.522636</ele>
        <time>2024-07-06T09:00:24.000Z</time>
      </trkpt>
      <trkpt lat="52.292154" lon="-0.385699">
        <ele>36.733098</ele>
        <time>2024-07-06T09:00:37.000Z</time>
      </trkpt>
      <trkpt lat="52.293188" lon="-0.383354">
        <ele>35.808328</ele>
        <time>2024-07-06T09:00:57.000Z</time>
      </trkpt>
      <trkpt lat="52.293857" lon="-0.381958">
        <ele>35.466957</ele>
        <time>2024-07-06T09:01:09.000Z</time>
      </trkpt>
      <trkpt lat="52.2939" lon="-0.381843">
        <ele>35.448068</ele>
        <time>2024-07-06T09:01:10.000Z</time>
      </trkpt>
      <trkpt lat="52.294212" lon="-0.381258">
        <ele>35.350951</ele>
        <time>2024-07-06T09:01:15.000Z</time>
      </trkpt>
      <trkpt lat="52.294308" lon="-0.381105">
        <ele>35.325498</ele>
        <time>2024-07-06T09:01:16.000Z</time>
      </trkpt>
      <trkpt lat="52.29486" lon="-0.382095">
        <ele>35.171467</ele>
        <time>2024-07-06T09:01:25.000Z</time>
      </trkpt>
      <trkpt lat="52.295369" lon="-0.38307">
        <ele>35.051176</ele>
        <time>2024-07-06T09:01:34.000Z</time>
      </trkpt>
      <trkpt lat="52.296112" lon="-0.384115">
        <ele>35.112801</ele>
        <time>2024-07-06T09:01:45.000Z</time>
      </trkpt>
      <trkpt lat="52.296436" lon="-0.384691">
        <ele>35.391461</ele>
        <time>2024-07-06T09:01:50.000Z</time>
      </trkpt>
      <trkpt lat="52.296795" lon="-0.385405">
        <ele>35.719165</ele>
        <time>2024-07-06T09:01:56.000Z</time>
      </trkpt>
      <trkpt lat="52.297049" lon="-0.386266">
        <ele>36.101746</ele>
        <time>2024-07-06T09:02:03.000Z</time>
      </trkpt>
      <trkpt lat="52.297066" lon="-0.386389">
        <ele>36.185717</ele>
        <time>2024-07-06T09:02:04.000Z</time>
      </trkpt>
      <trkpt lat="52.297148" lon="-0.386708">
        <ele>36.390394</ele>
        <time>2024-07-06T09:02:06.000Z</time>
      </trkpt>
      <trkpt lat="52.297109" lon="-0.386907">
        <ele>36.517722</ele>
        <time>2024-07-06T09:02:07.000Z</time>
      </trkpt>
      <trkpt lat="52.296826" lon="-0.387277">
        <ele>36.877883</ele>
        <time>2024-07-06T09:02:11.000Z</time>
      </trkpt>
      <trkpt lat="52.296353" lon="-0.387824">
        <ele>37.445101</ele>
        <time>2024-07-06T09:02:17.000Z</time>
      </trkpt>
      <trkpt lat="52.29633" lon="-0.387934">
        <ele>37.521125</ele>
        <time>2024-07-06T09:02:18.000Z</time>
      </trkpt>
      <trkpt lat="52.296371" lon="-0.388071">
        <ele>37.617071</ele>
        <time>2024-07-06T09:02:19.000Z</time>
      </trkpt>
      <trkpt lat="52.296573" lon="-0.388399">
        <ele>37.728517</ele>
        <time>2024-07-06T09:02:22.000Z</time>
      </trkpt>
      <trkpt lat="52.297397" lon="-0.389704">
        <ele>37.305853</ele>
        <time>2024-07-06T09:02:35.000Z</time>
      </trkpt>
      <trkpt lat="52.297486" lon="-0.389872">
        <ele>37.258428</ele>
        <time>2024-07-06T09:02:37.000Z</time>
      </trkpt>
      <trkpt lat="52.297613" lon="-0.390022">
        <ele>37.201283</ele>
        <time>2024-07-06T09:02:39.000Z</time>
      </trkpt>
      <trkpt lat="52.29781" lon="-0.390054">
        <ele>37.129225</ele>
        <time>2024-07-06T09:02:41.000Z</time>
      </trkpt>
      <trkpt lat="52.298182" lon="-0.38979">
        <ele>36.980203</ele>
        <time>2024-07-06T09:02:46.000Z</time>
      </trkpt>
      <trkpt lat="52.298224" lon="-0.389795">
        <ele>36.967108</ele>
        <time>2024-07-06T09:02:46.000Z</time>
      </trkpt>
      <trkpt lat="52.29874" lon="-0.390349">
        <ele>36.742073</ele>
        <time>2024-07-06T09:02:53.000Z</time>
      </trkpt>
      <trkpt lat="52.298983" lon="-0.390866">
        <ele>36.59401</ele>
        <time>2024-07-06T09:02:57.000Z</time>
      </trkpt>
      <trkpt lat="52.299183" lon="-0.391402">
        <ele>36.460315</ele>
        <time>2024-07-06T09:03:01.000Z</time>
      </trkpt>
      <trkpt lat="52.299409" lon="-0.391957">
        <ele>36.571688</ele>
        <time>2024-07-06T09:03:06.000Z</time>
      </trkpt>
      <trkpt lat="52.299469" lon="-0.392079">
        <ele>36.59887</ele>
        <time>2024-07-06T09:03:07.000Z</time>
      </trkpt>
      <trkpt lat="52.299569" lon="-0.392466">
        <ele>36.668397</ele>
        <time>2024-07-06T09:03:10.000Z</time>
      </trkpt>
      <trkpt lat="52.299579" lon="-0.392663">
        <ele>36.701213</ele>
        <time>2024-07-06T09:03:11.000Z</time>
      </trkpt>
      <trkpt lat="52.299603" lon="-0.392789">
        <ele>36.722261</ele>
        <time>2024-07-06T09:03:12.000Z</time>
      </trkpt>
      <trkpt lat="52.299651" lon="-0.392978">
        <ele>36.755476</ele>
        <time>2024-07-06T09:03:13.000Z</time>
      </trkpt>
      <trkpt lat="52.299679" lon="-0.393092">
        <ele>36.777223</ele>
        <time>2024-07-06T09:03:14.000Z</time>
      </trkpt>
      <trkpt lat="52.300004" lon="-0.394231">
        <ele>36.916138</ele>
        <time>2024-07-06T09:03:23.000Z</time>
      </trkpt>
      <trkpt lat="52.300532" lon="-0.395914">
        <ele>36.615454</ele>
        <time>2024-07-06T09:03:36.000Z</time>
      </trkpt>
      <trkpt lat="52.300805" lon="-0.396617">
        <ele>36.481822</ele>
        <time>2024-07-06T09:03:42.000Z</time>
      </trkpt>
      <trkpt lat="52.301414" lon="-0.397472">
        <ele>36.059503</ele>
        <time>2024-07-06T09:03:51.000Z</time>
      </trkpt>
      <trkpt lat="52.301511" lon="-0.397713">
        <ele>35.967817</ele>
        <time>2024-07-06T09:03:53.000Z</time>
      </trkpt>
      <trkpt lat="52.301803" lon="-0.398329">
        <ele>35.709773</ele>
        <time>2024-07-06T09:03:58.000Z</time>
      </trkpt>
      <trkpt lat="52.302048" lon="-0.398924">
        <ele>35.563061</ele>
        <time>2024-07-06T09:04:03.000Z</time>
      </trkpt>
      <trkpt lat="52.30246" lon="-0.399937">
        <ele>35.836402</ele>
        <time>2024-07-06T09:04:11.000Z</time>
      </trkpt>
      <trkpt lat="52.303029" lon="-0.401643">
        <ele>36.499305</ele>
        <time>2024-07-06T09:04:24.000Z</time>
      </trkpt>
      <trkpt lat="52.303481" lon="-0.402421">
        <ele>37.387097</ele>
        <time>2024-07-06T09:04:31.000Z</time>
      </trkpt>
      <trkpt lat="52.304388" lon="-0.40394">
        <ele>39.068309</ele>
        <time>2024-07-06T09:04:45.000Z</time>
      </trkpt>
      <trkpt lat="52.304911" lon="-0.404864">
        <ele>39.919797</ele>
        <time>2024-07-06T09:04:54.000Z</time>
      </trkpt>
      <trkpt lat="52.305375" lon="-0.405821">
        <ele>40.619114</ele>
        <time>2024-07-06T09:05:02.000Z</time>
      </trkpt>
      <trkpt lat="52.305678" lon="-0.40673">
        <ele>40.500213</ele>
        <time>2024-07-06T09:05:09.000Z</time>
      </trkpt>
      <trkpt lat="52.305778" lon="-0.407252">
        <ele>40.435955</ele>
        <time>2024-07-06T09:05:13.000Z</time>
      </trkpt>
      <trkpt lat="52.305818" lon="-0.407967">
        <ele>40.35026</ele>
        <time>2024-07-06T09:05:18.000Z</time>
      </trkpt>
      <trkpt lat="52.305798" lon="-0.408632">
        <ele>40.332893</ele>
        <time>2024-07-06T09:05:23.000Z</time>
      </trkpt>
      <trkpt lat="52.305609" lon="-0.410261">
        <ele>40.658734</ele>
        <time>2024-07-06T09:05:34.000Z</time>
      </trkpt>
      <trkpt lat="52.305557" lon="-0.410989">
        <ele>40.80385</ele>
        <time>2024-07-06T09:05:39.000Z</time>
      </trkpt>
      <trkpt lat="52.305677" lon="-0.411686">
        <ele>41.111714</ele>
        <time>2024-07-06T09:05:44.000Z</time>
      </trkpt>
      <trkpt lat="52.306453" lon="-0.413591">
        <ele>42.644976</ele>
        <time>2024-07-06T09:06:00.000Z</time>
      </trkpt>
      <trkpt lat="52.306741" lon="-0.414154">
        <ele>43.013587</ele>
        <time>2024-07-06T09:06:05.000Z</time>
      </trkpt>
      <trkpt lat="52.307039" lon="-0.414423">
        <ele>43.221524</ele>
        <time>2024-07-06T09:06:09.000Z</time>
      </trkpt>
      <trkpt lat="52.307387" lon="-0.414624">
        <ele>43.458924</ele>
        <time>2024-07-06T09:06:13.000Z</time>
      </trkpt>
      <trkpt lat="52.307697" lon="-0.414931">
        <ele>43.676741</ele>
        <time>2024-07-06T09:06:17.000Z</time>
      </trkpt>
      <trkpt lat="52.307784" lon="-0.415057">
        <ele>43.750196</ele>
        <time>2024-07-06T09:06:18.000Z</time>
      </trkpt>
      <trkpt lat="52.307845" lon="-0.415197">
        <ele>43.818874</ele>
        <time>2024-07-06T09:06:19.000Z</time>
      </trkpt>
      <trkpt lat="52.308119" lon="-0.416372">
        <ele>44.232484</ele>
        <time>2024-07-06T09:06:28.000Z</time>
      </trkpt>
      <trkpt lat="52.308362" lon="-0.417812">
        <ele>44.697233</ele>
        <time>2024-07-06T09:06:38.000Z</time>
      </trkpt>
      <trkpt lat="52.308483" lon="-0.419656">
        <ele>44.980438</ele>
        <time>2024-07-06T09:06:51.000Z</time>
      </trkpt>
      <trkpt lat="52.308575" lon="-0.420398">
        <ele>45.044414</ele>
        <time>2024-07-06T09:06:56.000Z</time>
      </trkpt>
      <trkpt lat="52.308909" lon="-0.421354">
        <ele>45.06856</ele>
        <time>2024-07-06T09:07:03.000Z</time>
      </trkpt>
      <trkpt lat="52.309063" lon="-0.421722">
        <ele>44.939999</ele>
        <time>2024-07-06T09:07:06.000Z</time>
      </trkpt>
      <trkpt lat="52.309131" lon="-0.42193">
        <ele>44.872858</ele>
        <time>2024-07-06T09:07:08.000Z</time>
      </trkpt>
      <trkpt lat="52.309237" lon="-0.42219">
        <ele>44.786142</ele>
        <time>2024-07-06T09:07:10.000Z</time>
      </trkpt>
      <trkpt lat="52.309584" lon="-0.423086">
        <ele>44.485436</ele>
        <time>2024-07-06T09:07:17.000Z</time>
      </trkpt>
      <trkpt lat="52.309783" lon="-0.423766">
        <ele>44.282614</ele>
        <time>2024-07-06T09:07:22.000Z</time>
      </trkpt>
      <trkpt lat="52.310286" lon="-0.426026">
        <ele>44.018993</ele>
        <time>2024-07-06T09:07:38.000Z</time>
      </trkpt>
      <trkpt lat="52.311009" lon="-0.428564">
        <ele>43.908467</ele>
        <time>2024-07-06T09:07:57.000Z</time>
      </trkpt>
      <trkpt lat="52.311329" lon="-0.430249">
        <ele>43.981408</ele>
        <time>2024-07-06T09:08:09.000Z</time>
      </trkpt>
      <trkpt lat="52.311563" lon="-0.431672">
        <ele>44.095389</ele>
        <time>2024-07-06T09:08:19.000Z</time>
      </trkpt>
      <trkpt lat="52.311603" lon="-0.431965">
        <ele>44.119791</ele>
        <time>2024-07-06T09:08:21.000Z</time>
      </trkpt>
      <trkpt lat="52.312454" lon="-0.437468">
        <ele>44.020523</ele>
        <time>2024-07-06T09:09:00.000Z</time>
      </trkpt>
      <trkpt lat="52.312445" lon="-0.437644">
        <ele>44.01903</ele>
        <time>2024-07-06T09:09:01.000Z</time>
      </trkpt>
      <trkpt lat="52.312418" lon="-0.438828">
        <ele>44.467642</ele>
        <time>2024-07-06T09:09:09.000Z</time>
      </trkpt>
      <trkpt lat="52.312366" lon="-0.439262">
        <ele>44.64249</ele>
        <time>2024-07-06T09:09:12.000Z</time>
      </trkpt>
      <trkpt lat="52.312117" lon="-0.441287">
        <ele>45.450424</ele>
        <time>2024-07-06T09:09:26.000Z</time>
      </trkpt>
      <trkpt lat="52.312175" lon="-0.441828">
        <ele>45.647431</ele>
        <time>2024-07-06T09:09:30.000Z</time>
      </trkpt>
      <trkpt lat="52.312041" lon="-0.441979">
        <ele>45.746228</ele>
        <time>2024-07-06T09:09:32.000Z</time>
      </trkpt>
      <trkpt lat="52.311947" lon="-0.442434">
        <ele>45.927116</ele>
        <time>2024-07-06T09:09:35.000Z</time>
      </trkpt>
      <trkpt lat="52.311389" lon="-0.446522">
        <ele>46.676853</ele>
        <time>2024-07-06T09:10:03.000Z</time>
      </trkpt>
      <trkpt lat="52.311203" lon="-0.448331">
        <ele>47.151126</ele>
        <time>2024-07-06T09:10:15.000Z</time>
      </trkpt>
      <trkpt lat="52.310693" lon="-0.449808">
        <ele>47.76701</ele>
        <time>2024-07-06T09:10:27.000Z</time>
      </trkpt>
      <trkpt lat="52.31037" lon="-0.450692">
        <ele>48.24874</ele>
        <time>2024-07-06T09:10:34.000Z</time>
      </trkpt>
      <trkpt lat="52.309287" lon="-0.452612">
        <ele>49.220584</ele>
        <time>2024-07-06T09:10:52.000Z</time>
      </trkpt>
      <trkpt lat="52.308569" lon="-0.454141">
        <ele>49.56711</ele>
        <time>2024-07-06T09:11:05.000Z</time>
      </trkpt>
      <trkpt lat="52.308533" lon="-0.454247">
        <ele>49.549033</ele>
        <time>2024-07-06T09:11:06.000Z</time>
      </trkpt>
      <trkpt lat="52.308577" lon="-0.454134">
        <ele>49.530936</ele>
        <time>2024-07-06T09:11:07.000Z</time>
      </trkpt>
      <trkpt lat="52.309274" lon="-0.452614">
        <ele>49.284796</ele>
        <time>2024-07-06T09:11:20.000Z</time>
      </trkpt>
      <trkpt lat="52.31038" lon="-0.450688">
        <ele>48.222893</ele>
        <time>2024-07-06T09:11:38.000Z</time>
      </trkpt>
      <trkpt lat="52.310693" lon="-0.449801">
        <ele>47.799574</ele>
        <time>2024-07-06T09:11:45.000Z</time>
      </trkpt>
      <trkpt lat="52.311194" lon="-0.44832">
        <ele>47.143373</ele>
        <time>2024-07-06T09:11:57.000Z</time>
      </trkpt>
      <trkpt lat="52.311382" lon="-0.44653">
        <ele>46.6814</ele>
        <time>2024-07-06T09:12:09.000Z</time>
      </trkpt>
      <trkpt lat="52.311941" lon="-0.44244">
        <ele>45.900744</ele>
        <time>2024-07-06T09:12:37.000Z</time>
      </trkpt>
      <trkpt lat="52.312043" lon="-0.441969">
        <ele>45.800186</ele>
        <time>2024-07-06T09:12:40.000Z</time>
      </trkpt>
      <trkpt lat="52.312168" lon="-0.44182">
        <ele>45.700319</ele>
        <time>2024-07-06T09:12:42.000Z</time>
      </trkpt>
      <trkpt lat="52.31211" lon="-0.441297">
        <ele>45.435912</ele>
        <time>2024-07-06T09:12:46.000Z</time>
      </trkpt>
      <trkpt lat="52.312415" lon="-0.438826">
        <ele>44.283619</ele>
        <time>2024-07-06T09:13:03.000Z</time>
      </trkpt>
      <trkpt lat="52.312446" lon="-0.437653">
        <ele>44.111022</ele>
        <time>2024-07-06T09:13:11.000Z</time>
      </trkpt>
      <trkpt lat="52.312438" lon="-0.437464">
        <ele>44.085171</ele>
        <time>2024-07-06T09:13:12.000Z</time>
      </trkpt>
      <trkpt lat="52.311617" lon="-0.43197">
        <ele>44.056263</ele>
        <time>2024-07-06T09:13:50.000Z</time>
      </trkpt>
      <trkpt lat="52.31155" lon="-0.431668">
        <ele>44.046352</ele>
        <time>2024-07-06T09:13:52.000Z</time>
      </trkpt>
      <trkpt lat="52.311323" lon="-0.430256">
        <ele>43.996874</ele>
        <time>2024-07-06T09:14:02.000Z</time>
      </trkpt>
      <trkpt lat="52.311" lon="-0.428553">
        <ele>43.917265</ele>
        <time>2024-07-06T09:14:14.000Z</time>
      </trkpt>
      <trkpt lat="52.310292" lon="-0.426023">
        <ele>44.011297</ele>
        <time>2024-07-06T09:14:33.000Z</time>
      </trkpt>
      <trkpt lat="52.309776" lon="-0.423752">
        <ele>44.3798</ele>
        <time>2024-07-06T09:14:49.000Z</time>
      </trkpt>
      <trkpt lat="52.309581" lon="-0.423086">
        <ele>44.542591</ele>
        <time>2024-07-06T09:14:54.000Z</time>
      </trkpt>
      <trkpt lat="52.309237" lon="-0.422198">
        <ele>44.76032</ele>
        <time>2024-07-06T09:15:01.000Z</time>
      </trkpt>
      <trkpt lat="52.309141" lon="-0.421932">
        <ele>44.808149</ele>
        <time>2024-07-06T09:15:03.000Z</time>
      </trkpt>
      <trkpt lat="52.309058" lon="-0.42172">
        <ele>44.845192</ele>
        <time>2024-07-06T09:15:05.000Z</time>
      </trkpt>
      <trkpt lat="52.308896" lon="-0.421344">
        <ele>44.916112</ele>
        <time>2024-07-06T09:15:08.000Z</time>
      </trkpt>
      <trkpt lat="52.308586" lon="-0.420386">
        <ele>45.08745</ele>
        <time>2024-07-06T09:15:15.000Z</time>
      </trkpt>
      <trkpt lat="52.308472" lon="-0.419654">
        <ele>45.154665</ele>
        <time>2024-07-06T09:15:20.000Z</time>
      </trkpt>
      <trkpt lat="52.308351" lon="-0.417819">
        <ele>44.624442</ele>
        <time>2024-07-06T09:15:33.000Z</time>
      </trkpt>
      <trkpt lat="52.308117" lon="-0.416357">
        <ele>44.197361</ele>
        <time>2024-07-06T09:15:43.000Z</time>
      </trkpt>
      <trkpt lat="52.307846" lon="-0.415185">
        <ele>43.851588</ele>
        <time>2024-07-06T09:15:52.000Z</time>
      </trkpt>
      <trkpt lat="52.307774" lon="-0.415067">
        <ele>43.801699</ele>
        <time>2024-07-06T09:15:53.000Z</time>
      </trkpt>
      <trkpt lat="52.307686" lon="-0.414941">
        <ele>43.748321</ele>
        <time>2024-07-06T09:15:54.000Z</time>
      </trkpt>
      <trkpt lat="52.307394" lon="-0.414632">
        <ele>43.590074</ele>
        <time>2024-07-06T09:15:58.000Z</time>
      </trkpt>
      <trkpt lat="52.30704" lon="-0.414421">
        <ele>43.296269</ele>
        <time>2024-07-06T09:16:02.000Z</time>
      </trkpt>
      <trkpt lat="52.306742" lon="-0.414153">
        <ele>42.979924</ele>
        <time>2024-07-06T09:16:06.000Z</time>
      </trkpt>
      <trkpt lat="52.306452" lon="-0.413579">
        <ele>42.550472</ele>
        <time>2024-07-06T09:16:11.000Z</time>
      </trkpt>
      <trkpt lat="52.305674" lon="-0.41168">
        <ele>41.27256</ele>
        <time>2024-07-06T09:16:27.000Z</time>
      </trkpt>
      <trkpt lat="52.305554" lon="-0.410992">
        <ele>40.889037</ele>
        <time>2024-07-06T09:16:32.000Z</time>
      </trkpt>
      <trkpt lat="52.305606" lon="-0.410252">
        <ele>40.498997</ele>
        <time>2024-07-06T09:16:37.000Z</time>
      </trkpt>
      <trkpt lat="52.305801" lon="-0.408647">
        <ele>40.396329</ele>
        <time>2024-07-06T09:16:48.000Z</time>
      </trkpt>
      <trkpt lat="52.305826" lon="-0.407981">
        <ele>40.472019</ele>
        <time>2024-07-06T09:16:53.000Z</time>
      </trkpt>
      <trkpt lat="52.305766" lon="-0.407243">
        <ele>40.554987</ele>
        <time>2024-07-06T09:16:58.000Z</time>
      </trkpt>
      <trkpt lat="52.305678" lon="-0.406719">
        <ele>40.545904</ele>
        <time>2024-07-06T09:17:02.000Z</time>
      </trkpt>
      <trkpt lat="52.305366" lon="-0.405827">
        <ele>40.309523</ele>
        <time>2024-07-06T09:17:09.000Z</time>
      </trkpt>
      <trkpt lat="52.304909" lon="-0.404864">
        <ele>40.023541</ele>
        <time>2024-07-06T09:17:17.000Z</time>
      </trkpt>
      <trkpt lat="52.304398" lon="-0.403927">
        <ele>39.195541</ele>
        <time>2024-07-06T09:17:26.000Z</time>
      </trkpt>
      <trkpt lat="52.303484" lon="-0.402412">
        <ele>37.21493</ele>
        <time>2024-07-06T09:17:40.000Z</time>
      </trkpt>
      <trkpt lat="52.303039" lon="-0.401636">
        <ele>36.630432</ele>
        <time>2024-07-06T09:17:47.000Z</time>
      </trkpt>
      <trkpt lat="52.302452" lon="-0.39995">
        <ele>35.604405</ele>
        <time>2024-07-06T09:18:00.000Z</time>
      </trkpt>
      <trkpt lat="52.302044" lon="-0.398932">
        <ele>35.733832</ele>
        <time>2024-07-06T09:18:08.000Z</time>
      </trkpt>
      <trkpt lat="52.301802" lon="-0.398332">
        <ele>35.807938</ele>
        <time>2024-07-06T09:18:13.000Z</time>
      </trkpt>
      <trkpt lat="52.301513" lon="-0.397711">
        <ele>35.892036</ele>
        <time>2024-07-06T09:18:18.000Z</time>
      </trkpt>
      <trkpt lat="52.301403" lon="-0.39747">
        <ele>35.942426</ele>
        <time>2024-07-06T09:18:20.000Z</time>
      </trkpt>
      <trkpt lat="52.300805" lon="-0.396607">
        <ele>36.395578</ele>
        <time>2024-07-06T09:18:29.000Z</time>
      </trkpt>
      <trkpt lat="52.300532" lon="-0.395901">
        <ele>36.686243</ele>
        <time>2024-07-06T09:18:35.000Z</time>
      </trkpt>
      <trkpt lat="52.29999" lon="-0.394239">
        <ele>36.82953</ele>
        <time>2024-07-06T09:18:48.000Z</time>
      </trkpt>
      <trkpt lat="52.299679" lon="-0.393081">
        <ele>36.716781</ele>
        <time>2024-07-06T09:18:57.000Z</time>
      </trkpt>
      <trkpt lat="52.299656" lon="-0.392973">
        <ele>36.705159</ele>
        <time>2024-07-06T09:18:58.000Z</time>
      </trkpt>
      <trkpt lat="52.299621" lon="-0.392778">
        <ele>36.687363</ele>
        <time>2024-07-06T09:18:59.000Z</time>
      </trkpt>
      <trkpt lat="52.299596" lon="-0.392667">
        <ele>36.676103</ele>
        <time>2024-07-06T09:19:00.000Z</time>
      </trkpt>
      <trkpt lat="52.299564" lon="-0.392472">
        <ele>36.666374</ele>
        <time>2024-07-06T09:19:01.000Z</time>
      </trkpt>
      <trkpt lat="52.299461" lon="-0.392084">
        <ele>36.652543</ele>
        <time>2024-07-06T09:19:04.000Z</time>
      </trkpt>
      <trkpt lat="52.299412" lon="-0.39196">
        <ele>36.647124</ele>
        <time>2024-07-06T09:19:05.000Z</time>
      </trkpt>
      <trkpt lat="52.299196" lon="-0.3914">
        <ele>36.624956</ele>
        <time>2024-07-06T09:19:10.000Z</time>
      </trkpt>
      <trkpt lat="52.298991" lon="-0.390881">
        <ele>36.604471</ele>
        <time>2024-07-06T09:19:14.000Z</time>
      </trkpt>
      <trkpt lat="52.298743" lon="-0.390348">
        <ele>36.582275</ele>
        <time>2024-07-06T09:19:19.000Z</time>
      </trkpt>
      <trkpt lat="52.298219" lon="-0.389789">
        <ele>36.873222</ele>
        <time>2024-07-06T09:19:26.000Z</time>
      </trkpt>
      <trkpt lat="52.298188" lon="-0.38979">
        <ele>36.897288</ele>
        <time>2024-07-06T09:19:26.000Z</time>
      </trkpt>
      <trkpt lat="52.297812" lon="-0.390049">
        <ele>37.170671</ele>
        <time>2024-07-06T09:19:31.000Z</time>
      </trkpt>
      <trkpt lat="52.297616" lon="-0.390034">
        <ele>37.301749</ele>
        <time>2024-07-06T09:19:33.000Z</time>
      </trkpt>
      <trkpt lat="52.297477" lon="-0.389867">
        <ele>37.405671</ele>
        <time>2024-07-06T09:19:35.000Z</time>
      </trkpt>
      <trkpt lat="52.297403" lon="-0.389696">
        <ele>37.491946</ele>
        <time>2024-07-06T09:19:36.000Z</time>
      </trkpt>
      <trkpt lat="52.296569" lon="-0.388403">
        <ele>37.468994</ele>
        <time>2024-07-06T09:19:49.000Z</time>
      </trkpt>
      <trkpt lat="52.296385" lon="-0.388067">
        <ele>37.353052</ele>
        <time>2024-07-06T09:19:52.000Z</time>
      </trkpt>
      <trkpt lat="52.296325" lon="-0.387932">
        <ele>37.312531</ele>
        <time>2024-07-06T09:19:53.000Z</time>
      </trkpt>
      <trkpt lat="52.296355" lon="-0.387824">
        <ele>37.280442</ele>
        <time>2024-07-06T09:19:54.000Z</time>
      </trkpt>
      <trkpt lat="52.296824" lon="-0.387284">
        <ele>37.040964</ele>
        <time>2024-07-06T09:20:00.000Z</time>
      </trkpt>
      <trkpt lat="52.297114" lon="-0.386918">
        <ele>36.684387</ele>
        <time>2024-07-06T09:20:04.000Z</time>
      </trkpt>
      <trkpt lat="52.297147" lon="-0.386708">
        <ele>36.548706</ele>
        <time>2024-07-06T09:20:05.000Z</time>
      </trkpt>
      <trkpt lat="52.297077" lon="-0.386378">
        <ele>36.330585</ele>
        <time>2024-07-06T09:20:07.000Z</time>
      </trkpt>
      <trkpt lat="52.297044" lon="-0.386265">
        <ele>36.24111</ele>
        <time>2024-07-06T09:20:08.000Z</time>
      </trkpt>
      <trkpt lat="52.296791" lon="-0.385396">
        <ele>35.62934</ele>
        <time>2024-07-06T09:20:15.000Z</time>
      </trkpt>
      <trkpt lat="52.296442" lon="-0.384683">
        <ele>35.114772</ele>
        <time>2024-07-06T09:20:21.000Z</time>
      </trkpt>
      <trkpt lat="52.296102" lon="-0.384125">
        <ele>35.03702</ele>
        <time>2024-07-06T09:20:26.000Z</time>
      </trkpt>
      <trkpt lat="52.295372" lon="-0.383076">
        <ele>34.878713</ele>
        <time>2024-07-06T09:20:37.000Z</time>
      </trkpt>
      <trkpt lat="52.29487" lon="-0.382099">
        <ele>34.594493</ele>
        <time>2024-07-06T09:20:46.000Z</time>
      </trkpt>
      <trkpt lat="52.294296" lon="-0.381109">
        <ele>34.208022</ele>
        <time>2024-07-06T09:20:55.000Z</time>
      </trkpt>
      <trkpt lat="52.293838" lon="-0.380243">
        <ele>34.077152</ele>
        <time>2024-07-06T09:21:03.000Z</time>
      </trkpt>
      <trkpt lat="52.293823" lon="-0.380219">
        <ele>34.083239</ele>
        <time>2024-07-06T09:21:03.000Z</time>
      </trkpt>
      <trkpt lat="52.293755" lon="-0.380104">
        <ele>34.110725</ele>
        <time>2024-07-06T09:21:04.000Z</time>
      </trkpt>
      <trkpt lat="52.293654" lon="-0.379967">
        <ele>34.145501</ele>
        <time>2024-07-06T09:21:05.000Z</time>
      </trkpt>
      <trkpt lat="52.293489" lon="-0.379869">
        <ele>34.20102</ele>
        <time>2024-07-06T09:21:07.000Z</time>
      </trkpt>
      <trkpt lat="52.292972" lon="-0.379819">
        <ele>34.350691</ele>
        <time>2024-07-06T09:21:13.000Z</time>
      </trkpt>
      <trkpt lat="52.292722" lon="-0.379712">
        <ele>34.424218</ele>
        <time>2024-07-06T09:21:16.000Z</time>
      </trkpt>
      <trkpt lat="52.292404" lon="-0.379362">
        <ele>34.573518</ele>
        <time>2024-07-06T09:21:20.000Z</time>
      </trkpt>
      <trkpt lat="52.291694" lon="-0.377279">
        <ele>36.163352</ele>
        <time>2024-07-06T09:21:36.000Z</time>
      </trkpt>
      <trkpt lat="52.29155" lon="-0.377031">
        <ele>36.38319</ele>
        <time>2024-07-06T09:21:38.000Z</time>
      </trkpt>
      <trkpt lat="52.290831" lon="-0.376204">
        <ele>36.894949</ele>
        <time>2024-07-06T09:21:48.000Z</time>
      </trkpt>
      <trkpt lat="52.290125" lon="-0.375179">
        <ele>37.392072</ele>
        <time>2024-07-06T09:21:58.000Z</time>
      </trkpt>
      <trkpt lat="52.289914" lon="-0.374898">
        <ele>37.638733</ele>
        <time>2024-07-06T09:22:01.000Z</time>
      </trkpt>
      <trkpt lat="52.289787" lon="-0.374613">
        <ele>37.850412</ele>
        <time>2024-07-06T09:22:03.000Z</time>
      </trkpt>
      <trkpt lat="52.289573" lon="-0.37373">
        <ele>38.449071</ele>
        <time>2024-07-06T09:22:09.000Z</time>
      </trkpt>
      <trkpt lat="52.288966" lon="-0.372028">
        <ele>39.419008</ele>
        <time>2024-07-06T09:22:22.000Z</time>
      </trkpt>
      <trkpt lat="52.288783" lon="-0.371683">
        <ele>39.525848</ele>
        <time>2024-07-06T09:22:25.000Z</time>
      </trkpt>
      <trkpt lat="52.287775" lon="-0.369806">
        <ele>39.626316</ele>
        <time>2024-07-06T09:22:42.000Z</time>
      </trkpt>
      <trkpt lat="52.287692" lon="-0.369684">
        <ele>39.549305</ele>
        <time>2024-07-06T09:22:43.000Z</time>
      </trkpt>
      <trkpt lat="52.287348" lon="-0.369059">
        <ele>39.155391</ele>
        <time>2024-07-06T09:22:49.000Z</time>
      </trkpt>
      <trkpt lat="52.28563" lon="-0.365898">
        <ele>37.599082</ele>
        <time>2024-07-06T09:23:18.000Z</time>
      </trkpt>
      <trkpt lat="52.285407" lon="-0.365491">
        <ele>37.848696</ele>
        <time>2024-07-06T09:23:22.000Z</time>
      </trkpt>
      <trkpt lat="52.284928" lon="-0.364848">
        <ele>38.313105</ele>
        <time>2024-07-06T09:23:29.000Z</time>
      </trkpt>
      <trkpt lat="52.284362" lon="-0.364458">
        <ele>38.782976</ele>
        <time>2024-07-06T09:23:36.000Z</time>
      </trkpt>
      <trkpt lat="52.283026" lon="-0.363579">
        <ele>40.494528</ele>
        <time>2024-07-06T09:23:52.000Z</time>
      </trkpt>
      <trkpt lat="52.282734" lon="-0.363345">
        <ele>40.904089</ele>
        <time>2024-07-06T09:23:56.000Z</time>
      </trkpt>
      <trkpt lat="52.281161" lon="-0.362322">
        <ele>41.70425</ele>
        <time>2024-07-06T09:24:15.000Z</time>
      </trkpt>
      <trkpt lat="52.280177" lon="-0.361645">
        <ele>40.436841</ele>
        <time>2024-07-06T09:24:27.000Z</time>
      </trkpt>
      <trkpt lat="52.277024" lon="-0.359799">
        <ele>32.738643</ele>
        <time>2024-07-06T09:25:04.000Z</time>
      </trkpt>
      <trkpt lat="52.276165" lon="-0.359151">
        <ele>31.137172</ele>
        <time>2024-07-06T09:25:15.000Z</time>
      </trkpt>
      <trkpt lat="52.275798" lon="-0.358509">
        <ele>30.423959</ele>
        <time>2024-07-06T09:25:21.000Z</time>
      </trkpt>
      <trkpt lat="52.275655" lon="-0.358179">
        <ele>30.326474</ele>
        <time>2024-07-06T09:25:24.000Z</time>
      </trkpt>
      <trkpt lat="52.275172" lon="-0.355792">
        <ele>29.740407</ele>
        <time>2024-07-06T09:25:41.000Z</time>
      </trkpt>
      <trkpt lat="52.273433" lon="-0.35097">
        <ele>29.225441</ele>
        <time>2024-07-06T09:26:19.000Z</time>
      </trkpt>
      <trkpt lat="52.272339" lon="-0.348149">
        <ele>28.595819</ele>
        <time>2024-07-06T09:26:42.000Z</time>
      </trkpt>
      <trkpt lat="52.271898" lon="-0.347006">
        <ele>28.681712</ele>
        <time>2024-07-06T09:26:51.000Z</time>
      </trkpt>
      <trkpt lat="52.271607" lon="-0.34662">
        <ele>28.720642</ele>
        <time>2024-07-06T09:26:55.000Z</time>
      </trkpt>
      <trkpt lat="52.272377" lon="-0.345695">
        <ele>28.850953</ele>
        <time>2024-07-06T09:27:06.000Z</time>
      </trkpt>
      <trkpt lat="52.272957" lon="-0.344983">
        <ele>28.963686</ele>
        <time>2024-07-06T09:27:14.000Z</time>
      </trkpt>
      <trkpt lat="52.27361" lon="-0.344229">
        <ele>29.072774</ele>
        <time>2024-07-06T09:27:23.000Z</time>
      </trkpt>
      <trkpt lat="52.274773" lon="-0.342843">
        <ele>29.230512</ele>
        <time>2024-07-06T09:27:39.000Z</time>
      </trkpt>
      <trkpt lat="52.276539" lon="-0.340763">
        <ele>31.360278</ele>
        <time>2024-07-06T09:28:03.000Z</time>
      </trkpt>
      <trkpt lat="52.278227" lon="-0.338769">
        <ele>34.300725</ele>
        <time>2024-07-06T09:28:26.000Z</time>
      </trkpt>
      <trkpt lat="52.278274" lon="-0.338707">
        <ele>34.369623</ele>
        <time>2024-07-06T09:28:27.000Z</time>
      </trkpt>
      <trkpt lat="52.27901" lon="-0.338113">
        <ele>35.308635</ele>
        <time>2024-07-06T09:28:36.000Z</time>
      </trkpt>
      <trkpt lat="52.281538" lon="-0.336337">
        <ele>40.364858</ele>
        <time>2024-07-06T09:29:07.000Z</time>
      </trkpt>
      <trkpt lat="52.282862" lon="-0.335346">
        <ele>46.177755</ele>
        <time>2024-07-06T09:29:23.000Z</time>
      </trkpt>
      <trkpt lat="52.283738" lon="-0.334514">
        <ele>51.341771</ele>
        <time>2024-07-06T09:29:34.000Z</time>
      </trkpt>
      <trkpt lat="52.284315" lon="-0.333738">
        <ele>54.743261</ele>
        <time>2024-07-06T09:29:42.000Z</time>
      </trkpt>
      <trkpt lat="52.284949" lon="-0.333121">
        <ele>57.257714</ele>
        <time>2024-07-06T09:29:50.000Z</time>
      </trkpt>
      <trkpt lat="52.285849" lon="-0.332233">
        <ele>60.409323</ele>
        <time>2024-07-06T09:30:02.000Z</time>
      </trkpt>
      <trkpt lat="52.286748" lon="-0.33023">
        <ele>63.102072</ele>
        <time>2024-07-06T09:30:19.000Z</time>
      </trkpt>
      <trkpt lat="52.288608" lon="-0.327212">
        <ele>61.13904</ele>
        <time>2024-07-06T09:30:48.000Z</time>
      </trkpt>
      <trkpt lat="52.288902" lon="-0.326508">
        <ele>60.432696</ele>
        <time>2024-07-06T09:30:54.000Z</time>
      </trkpt>
      <trkpt lat="52.289282" lon="-0.325079">
        <ele>59.272169</ele>
        <time>2024-07-06T09:31:05.000Z</time>
      </trkpt>
      <trkpt lat="52.289502" lon="-0.324256">
        <ele>58.676564</ele>
        <time>2024-07-06T09:31:11.000Z</time>
      </trkpt>
      <trkpt lat="52.289666" lon="-0.323692">
        <ele>58.267544</ele>
        <time>2024-07-06T09:31:15.000Z</time>
      </trkpt>
      <trkpt lat="52.289763" lon="-0.323041">
        <ele>57.8471</ele>
        <time>2024-07-06T09:31:20.000Z</time>
      </trkpt>
      <trkpt lat="52.289768" lon="-0.322547">
        <ele>57.89616</ele>
        <time>2024-07-06T09:31:23.000Z</time>
      </trkpt>
      <trkpt lat="52.289669" lon="-0.322047">
        <ele>57.949146</ele>
        <time>2024-07-06T09:31:27.000Z</time>
      </trkpt>
      <trkpt lat="52.289389" lon="-0.321459">
        <ele>58.024467</ele>
        <time>2024-07-06T09:31:32.000Z</time>
      </trkpt>
      <trkpt lat="52.289307" lon="-0.32128">
        <ele>58.044703</ele>
        <time>2024-07-06T09:31:34.000Z</time>
      </trkpt>
      <trkpt lat="52.288993" lon="-0.320834">
        <ele>58.11554</ele>
        <time>2024-07-06T09:31:39.000Z</time>
      </trkpt>
      <trkpt lat="52.288668" lon="-0.320627">
        <ele>58.126783</ele>
        <time>2024-07-06T09:31:43.000Z</time>
      </trkpt>
      <trkpt lat="52.288488" lon="-0.320405">
        <ele>58.11438</ele>
        <time>2024-07-06T09:31:46.000Z</time>
      </trkpt>
      <trkpt lat="52.288417" lon="-0.320142">
        <ele>58.104906</ele>
        <time>2024-07-06T09:31:48.000Z</time>
      </trkpt>
      <trkpt lat="52.288382" lon="-0.319802">
        <ele>58.093476</ele>
        <time>2024-07-06T09:31:50.000Z</time>
      </trkpt>
      <trkpt lat="52.288403" lon="-0.319462">
        <ele>58.081579</ele>
        <time>2024-07-06T09:31:52.000Z</time>
      </trkpt>
      <trkpt lat="52.288424" lon="-0.31905">
        <ele>58.068232</ele>
        <time>2024-07-06T09:31:55.000Z</time>
      </trkpt>
      <trkpt lat="52.288339" lon="-0.318732">
        <ele>58.057122</ele>
        <time>2024-07-06T09:31:57.000Z</time>
      </trkpt>
      <trkpt lat="52.288319" lon="-0.318695">
        <ele>58.0553</ele>
        <time>2024-07-06T09:31:57.000Z</time>
      </trkpt>
      <trkpt lat="52.288067" lon="-0.318003">
        <ele>57.877461</ele>
        <time>2024-07-06T09:32:02.000Z</time>
      </trkpt>
      <trkpt lat="52.288034" lon="-0.317881">
        <ele>57.804244</ele>
        <time>2024-07-06T09:32:03.000Z</time>
      </trkpt>
      <trkpt lat="52.287991" lon="-0.317702">
        <ele>57.710618</ele>
        <time>2024-07-06T09:32:04.000Z</time>
      </trkpt>
      <trkpt lat="52.28787" lon="-0.316925">
        <ele>57.323</ele>
        <time>2024-07-06T09:32:09.000Z</time>
      </trkpt>
      <trkpt lat="52.287875" lon="-0.315796">
        <ele>56.770392</ele>
        <time>2024-07-06T09:32:17.000Z</time>
      </trkpt>
      <trkpt lat="52.287771" lon="-0.31452">
        <ele>56.132664</ele>
        <time>2024-07-06T09:32:26.000Z</time>
      </trkpt>
      <trkpt lat="52.287758" lon="-0.314444">
        <ele>56.091501</ele>
        <time>2024-07-06T09:32:27.000Z</time>
      </trkpt>
      <trkpt lat="52.28773" lon="-0.314164">
        <ele>55.9483</ele>
        <time>2024-07-06T09:32:29.000Z</time>
      </trkpt>
      <trkpt lat="52.287389" lon="-0.312784">
        <ele>55.20808</ele>
        <time>2024-07-06T09:32:39.000Z</time>
      </trkpt>
      <trkpt lat="52.287364" lon="-0.312212">
        <ele>54.928779</ele>
        <time>2024-07-06T09:32:43.000Z</time>
      </trkpt>
      <trkpt lat="52.287398" lon="-0.311193">
        <ele>54.449552</ele>
        <time>2024-07-06T09:32:50.000Z</time>
      </trkpt>
      <trkpt lat="52.287317" lon="-0.310411">
        <ele>54.077333</ele>
        <time>2024-07-06T09:32:55.000Z</time>
      </trkpt>
      <trkpt lat="52.2871" lon="-0.309496">
        <ele>53.562716</ele>
        <time>2024-07-06T09:33:02.000Z</time>
      </trkpt>
      <trkpt lat="52.286909" lon="-0.308901">
        <ele>53.113521</ele>
        <time>2024-07-06T09:33:07.000Z</time>
      </trkpt>
      <trkpt lat="52.28674" lon="-0.308497">
        <ele>52.794162</ele>
        <time>2024-07-06T09:33:10.000Z</time>
      </trkpt>
      <trkpt lat="52.286368" lon="-0.307429">
        <ele>51.958019</ele>
        <time>2024-07-06T09:33:18.000Z</time>
      </trkpt>
      <trkpt lat="52.285611" lon="-0.305357">
        <ele>50.600263</ele>
        <time>2024-07-06T09:33:34.000Z</time>
      </trkpt>
      <trkpt lat="52.285105" lon="-0.303693">
        <ele>50.033117</ele>
        <time>2024-07-06T09:33:47.000Z</time>
      </trkpt>
      <trkpt lat="52.285005" lon="-0.303248">
        <ele>49.970354</ele>
        <time>2024-07-06T09:33:50.000Z</time>
      </trkpt>
      <trkpt lat="52.284917" lon="-0.302892">
        <ele>49.918206</ele>
        <time>2024-07-06T09:33:53.000Z</time>
      </trkpt>
      <trkpt lat="52.284826" lon="-0.302574">
        <ele>49.872739</ele>
        <time>2024-07-06T09:33:55.000Z</time>
      </trkpt>
      <trkpt lat="52.28409" lon="-0.299095">
        <ele>49.995216</ele>
        <time>2024-07-06T09:34:20.000Z</time>
      </trkpt>
      <trkpt lat="52.284027" lon="-0.298765">
        <ele>49.924262</ele>
        <time>2024-07-06T09:34:22.000Z</time>
      </trkpt>
      <trkpt lat="52.283709" lon="-0.296692">
        <ele>49.484552</ele>
        <time>2024-07-06T09:34:37.000Z</time>
      </trkpt>
      <trkpt lat="52.283467" lon="-0.294803">
        <ele>48.936504</ele>
        <time>2024-07-06T09:34:50.000Z</time>
      </trkpt>
      <trkpt lat="52.283191" lon="-0.291913">
        <ele>48.23612</ele>
        <time>2024-07-06T09:35:10.000Z</time>
      </trkpt>
      <trkpt lat="52.283192" lon="-0.290547">
        <ele>47.989786</ele>
        <time>2024-07-06T09:35:19.000Z</time>
      </trkpt>
      <trkpt lat="52.283242" lon="-0.289882">
        <ele>47.756463</ele>
        <time>2024-07-06T09:35:24.000Z</time>
      </trkpt>
      <trkpt lat="52.283387" lon="-0.289087">
        <ele>47.462566</ele>
        <time>2024-07-06T09:35:30.000Z</time>
      </trkpt>
      <trkpt lat="52.283517" lon="-0.288506">
        <ele>47.237755</ele>
        <time>2024-07-06T09:35:34.000Z</time>
      </trkpt>
      <trkpt lat="52.283921" lon="-0.287396">
        <ele>46.455439</ele>
        <time>2024-07-06T09:35:43.000Z</time>
      </trkpt>
      <trkpt lat="52.284365" lon="-0.28656">
        <ele>45.192442</ele>
        <time>2024-07-06T09:35:51.000Z</time>
      </trkpt>
      <trkpt lat="52.284905" lon="-0.285808">
        <ele>43.869793</ele>
        <time>2024-07-06T09:35:59.000Z</time>
      </trkpt>
      <trkpt lat="52.285786" lon="-0.285088">
        <ele>41.197448</ele>
        <time>2024-07-06T09:36:10.000Z</time>
      </trkpt>
      <trkpt lat="52.28868" lon="-0.282993">
        <ele>33.863235</ele>
        <time>2024-07-06T09:36:45.000Z</time>
      </trkpt>
      <trkpt lat="52.28924" lon="-0.282501">
        <ele>34.43263</ele>
        <time>2024-07-06T09:36:52.000Z</time>
      </trkpt>
      <trkpt lat="52.289523" lon="-0.282152">
        <ele>34.750182</ele>
        <time>2024-07-06T09:36:56.000Z</time>
      </trkpt>
      <trkpt lat="52.290192" lon="-0.281085">
        <ele>36.107575</ele>
        <time>2024-07-06T09:37:06.000Z</time>
      </trkpt>
      <trkpt lat="52.290397" lon="-0.280249">
        <ele>37.165336</ele>
        <time>2024-07-06T09:37:12.000Z</time>
      </trkpt>
      <trkpt lat="52.290626" lon="-0.278963">
        <ele>38.606476</ele>
        <time>2024-07-06T09:37:21.000Z</time>
      </trkpt>
      <trkpt lat="52.290917" lon="-0.279058">
        <ele>38.797559</ele>
        <time>2024-07-06T09:37:24.000Z</time>
      </trkpt>
      <trkpt lat="52.295887" lon="-0.286219">
        <ele>43.461613</ele>
        <time>2024-07-06T09:38:38.000Z</time>
      </trkpt>
      <trkpt lat="52.296363" lon="-0.286902">
        <ele>44.270895</ele>
        <time>2024-07-06T09:38:45.000Z</time>
      </trkpt>
      <trkpt lat="52.296416" lon="-0.286977">
        <ele>44.362456</ele>
        <time>2024-07-06T09:38:46.000Z</time>
      </trkpt>
      <trkpt lat="52.298095" lon="-0.289375">
        <ele>47.510918</ele>
        <time>2024-07-06T09:39:11.000Z</time>
      </trkpt>
      <trkpt lat="52.298349" lon="-0.289756">
        <ele>47.984118</ele>
        <time>2024-07-06T09:39:15.000Z</time>
      </trkpt>
      <trkpt lat="52.299853" lon="-0.29192">
        <ele>50.786408</ele>
        <time>2024-07-06T09:39:37.000Z</time>
      </trkpt>
      <trkpt lat="52.30021" lon="-0.29246">
        <ele>51.463877</ele>
        <time>2024-07-06T09:39:42.000Z</time>
      </trkpt>
      <trkpt lat="52.301508" lon="-0.293611">
        <ele>53.548541</ele>
        <time>2024-07-06T09:39:58.000Z</time>
      </trkpt>
      <trkpt lat="52.301663" lon="-0.29368">
        <ele>53.770579</ele>
        <time>2024-07-06T09:40:00.000Z</time>
      </trkpt>
      <trkpt lat="52.304769" lon="-0.294132">
        <ele>55.890059</ele>
        <time>2024-07-06T09:40:35.000Z</time>
      </trkpt>
      <trkpt lat="52.3051" lon="-0.294307">
        <ele>56.101511</ele>
        <time>2024-07-06T09:40:39.000Z</time>
      </trkpt>
      <trkpt lat="52.305851" lon="-0.295391">
        <ele>56.711207</ele>
        <time>2024-07-06T09:40:50.000Z</time>
      </trkpt>
      <trkpt lat="52.306639" lon="-0.29628">
        <ele>57.274816</ele>
        <time>2024-07-06T09:41:01.000Z</time>
      </trkpt>
      <trkpt lat="52.306765" lon="-0.296383">
        <ele>57.325305</ele>
        <time>2024-07-06T09:41:03.000Z</time>
      </trkpt>
      <trkpt lat="52.307265" lon="-0.296784">
        <ele>57.514327</ele>
        <time>2024-07-06T09:41:09.000Z</time>
      </trkpt>
      <trkpt lat="52.307631" lon="-0.297068">
        <ele>57.656666</ele>
        <time>2024-07-06T09:41:14.000Z</time>
      </trkpt>
      <trkpt lat="52.307743" lon="-0.297215">
        <ele>57.707821</ele>
        <time>2024-07-06T09:41:16.000Z</time>
      </trkpt>
      <trkpt lat="52.307861" lon="-0.297554">
        <ele>57.786315</ele>
        <time>2024-07-06T09:41:19.000Z</time>
      </trkpt>
      <trkpt lat="52.308028" lon="-0.297719">
        <ele>57.858617</ele>
        <time>2024-07-06T09:41:21.000Z</time>
      </trkpt>
      <trkpt lat="52.309426" lon="-0.297998">
        <ele>57.151303</ele>
        <time>2024-07-06T09:41:37.000Z</time>
      </trkpt>
      <trkpt lat="52.310346" lon="-0.2982">
        <ele>56.357767</ele>
        <time>2024-07-06T09:41:47.000Z</time>
      </trkpt>
      <trkpt lat="52.310997" lon="-0.298378">
        <ele>55.575262</ele>
        <time>2024-07-06T09:41:54.000Z</time>
      </trkpt>
      <trkpt lat="52.312877" lon="-0.298803">
        <ele>53.931682</ele>
        <time>2024-07-06T09:42:15.000Z</time>
      </trkpt>
      <trkpt lat="52.313256" lon="-0.29887">
        <ele>53.658277</ele>
        <time>2024-07-06T09:42:19.000Z</time>
      </trkpt>
      <trkpt lat="52.313315" lon="-0.298868">
        <ele>53.618954</ele>
        <time>2024-07-06T09:42:20.000Z</time>
      </trkpt>
      <trkpt lat="52.31438" lon="-0.298914">
        <ele>52.892207</ele>
        <time>2024-07-06T09:42:32.000Z</time>
      </trkpt>
      <trkpt lat="52.315473" lon="-0.29865">
        <ele>51.09137</ele>
        <time>2024-07-06T09:42:44.000Z</time>
      </trkpt>
      <trkpt lat="52.316091" lon="-0.298534">
        <ele>48.255389</ele>
        <time>2024-07-06T09:42:51.000Z</time>
      </trkpt>
      <trkpt lat="52.317042" lon="-0.298629">
        <ele>43.815477</ele>
        <time>2024-07-06T09:43:02.000Z</time>
      </trkpt>
      <trkpt lat="52.31767" lon="-0.298567">
        <ele>39.000785</ele>
        <time>2024-07-06T09:43:09.000Z</time>
      </trkpt>
      <trkpt lat="52.318401" lon="-0.298722">
        <ele>33.529459</ele>
        <time>2024-07-06T09:43:17.000Z</time>
      </trkpt>
      <trkpt lat="52.318955" lon="-0.298865">
        <ele>29.940999</ele>
        <time>2024-07-06T09:43:23.000Z</time>
      </trkpt>
      <trkpt lat="52.319197" lon="-0.299006">
        <ele>28.817052</ele>
        <time>2024-07-06T09:43:26.000Z</time>
      </trkpt>
      <trkpt lat="52.319659" lon="-0.299612">
        <ele>26.274575</ele>
        <time>2024-07-06T09:43:33.000Z</time>
      </trkpt>
      <trkpt lat="52.320151" lon="-0.300048">
        <ele>23.869514</ele>
        <time>2024-07-06T09:43:39.000Z</time>
      </trkpt>
      <trkpt lat="52.320531" lon="-0.30019">
        <ele>22.573158</ele>
        <time>2024-07-06T09:43:43.000Z</time>
      </trkpt>
      <trkpt lat="52.320864" lon="-0.300129">
        <ele>22.015499</ele>
        <time>2024-07-06T09:43:47.000Z</time>
      </trkpt>
      <trkpt lat="52.321458" lon="-0.299651">
        <ele>20.936037</ele>
        <time>2024-07-06T09:43:54.000Z</time>
      </trkpt>
      <trkpt lat="52.321864" lon="-0.299505">
        <ele>20.255617</ele>
        <time>2024-07-06T09:43:59.000Z</time>
      </trkpt>
      <trkpt lat="52.322447" lon="-0.299591">
        <ele>19.574846</ele>
        <time>2024-07-06T09:44:06.000Z</time>
      </trkpt>
      <trkpt lat="52.323416" lon="-0.299848">
        <ele>18.75854</ele>
        <time>2024-07-06T09:44:17.000Z</time>
      </trkpt>
      <trkpt lat="52.324468" lon="-0.300281">
        <ele>18.571621</ele>
        <time>2024-07-06T09:44:29.000Z</time>
      </trkpt>
      <trkpt lat="52.324859" lon="-0.300386">
        <ele>18.700761</ele>
        <time>2024-07-06T09:44:33.000Z</time>
      </trkpt>
      <trkpt lat="52.324954" lon="-0.300409">
        <ele>18.731101</ele>
        <time>2024-07-06T09:44:34.000Z</time>
      </trkpt>
      <trkpt lat="52.325226" lon="-0.300505">
        <ele>18.822587</ele>
        <time>2024-07-06T09:44:37.000Z</time>
      </trkpt>
      <trkpt lat="52.32607" lon="-0.300825">
        <ele>19.274457</ele>
        <time>2024-07-06T09:44:47.000Z</time>
      </trkpt>
      <trkpt lat="52.326691" lon="-0.300862">
        <ele>19.699355</ele>
        <time>2024-07-06T09:44:54.000Z</time>
      </trkpt>
      <trkpt lat="52.327357" lon="-0.300646">
        <ele>20.161007</ele>
        <time>2024-07-06T09:45:02.000Z</time>
      </trkpt>
      <trkpt lat="52.328223" lon="-0.300898">
        <ele>20.593505</ele>
        <time>2024-07-06T09:45:12.000Z</time>
      </trkpt>
      <trkpt lat="52.328655" lon="-0.30094">
        <ele>20.802303</ele>
        <time>2024-07-06T09:45:17.000Z</time>
      </trkpt>
      <trkpt lat="52.329381" lon="-0.300913">
        <ele>21.3505</ele>
        <time>2024-07-06T09:45:25.000Z</time>
      </trkpt>
      <trkpt lat="52.330214" lon="-0.300799">
        <ele>22.588941</ele>
        <time>2024-07-06T09:45:34.000Z</time>
      </trkpt>
      <trkpt lat="52.330729" lon="-0.300761">
        <ele>23.357881</ele>
        <time>2024-07-06T09:45:40.000Z</time>
      </trkpt>
      <trkpt lat="52.330781" lon="-0.300752">
        <ele>23.432923</ele>
        <time>2024-07-06T09:45:41.000Z</time>
      </trkpt>
      <trkpt lat="52.331077" lon="-0.300729">
        <ele>23.729103</ele>
        <time>2024-07-06T09:45:44.000Z</time>
      </trkpt>
      <trkpt lat="52.331065" lon="-0.300724">
        <ele>23.729089</ele>
        <time>2024-07-06T09:45:44.000Z</time>
      </trkpt>
      <trkpt lat="52.331073" lon="-0.300727">
        <ele>23.729104</ele>
        <time>2024-07-06T09:45:44.000Z</time>
      </trkpt>
      <trkpt lat="52.331628" lon="-0.300739">
        <ele>23.90386</ele>
        <time>2024-07-06T09:45:50.000Z</time>
      </trkpt>
      <trkpt lat="52.331895" lon="-0.300613">
        <ele>23.993234</ele>
        <time>2024-07-06T09:45:53.000Z</time>
      </trkpt>
      <trkpt lat="52.331985" lon="-0.300534">
        <ele>24.025941</ele>
        <time>2024-07-06T09:45:54.000Z</time>
      </trkpt>
      <trkpt lat="52.331837" lon="-0.300302">
        <ele>24.090378</ele>
        <time>2024-07-06T09:45:56.000Z</time>
      </trkpt>
      <trkpt lat="52.33153" lon="-0.300286">
        <ele>24.186349</ele>
        <time>2024-07-06T09:45:59.000Z</time>
      </trkpt>
      <trkpt lat="52.331202" lon="-0.300431">
        <ele>24.133107</ele>
        <time>2024-07-06T09:46:03.000Z</time>
      </trkpt>
      <trkpt lat="52.331047" lon="-0.300572">
        <ele>23.872317</ele>
        <time>2024-07-06T09:46:05.000Z</time>
      </trkpt>
      <trkpt lat="52.33108" lon="-0.300723">
        <ele>23.728107</ele>
        <time>2024-07-06T09:46:06.000Z</time>
      </trkpt>
      <trkpt lat="52.331066" lon="-0.300727">
        <ele>23.728101</ele>
        <time>2024-07-06T09:46:06.000Z</time>
      </trkpt>
      <trkpt lat="52.330788" lon="-0.300743">
        <ele>23.308795</ele>
        <time>2024-07-06T09:46:09.000Z</time>
      </trkpt>
      <trkpt lat="52.330743" lon="-0.300758">
        <ele>23.233025</ele>
        <time>2024-07-06T09:46:10.000Z</time>
      </trkpt>
      <trkpt lat="52.330211" lon="-0.300799">
        <ele>22.456725</ele>
        <time>2024-07-06T09:46:16.000Z</time>
      </trkpt>
      <trkpt lat="52.329384" lon="-0.300904">
        <ele>21.408284</ele>
        <time>2024-07-06T09:46:25.000Z</time>
      </trkpt>
      <trkpt lat="52.328658" lon="-0.300948">
        <ele>20.894031</ele>
        <time>2024-07-06T09:46:33.000Z</time>
      </trkpt>
      <trkpt lat="52.328228" lon="-0.30089">
        <ele>20.58376</ele>
        <time>2024-07-06T09:46:38.000Z</time>
      </trkpt>
      <trkpt lat="52.327358" lon="-0.300651">
        <ele>20.047902</ele>
        <time>2024-07-06T09:46:48.000Z</time>
      </trkpt>
      <trkpt lat="52.326683" lon="-0.300866">
        <ele>19.69487</ele>
        <time>2024-07-06T09:46:56.000Z</time>
      </trkpt>
      <trkpt lat="52.326069" lon="-0.300823">
        <ele>19.369965</ele>
        <time>2024-07-06T09:47:03.000Z</time>
      </trkpt>
      <trkpt lat="52.325226" lon="-0.300499">
        <ele>18.857819</ele>
        <time>2024-07-06T09:47:13.000Z</time>
      </trkpt>
      <trkpt lat="52.32494" lon="-0.300405">
        <ele>18.692373</ele>
        <time>2024-07-06T09:47:16.000Z</time>
      </trkpt>
      <trkpt lat="52.324847" lon="-0.300394">
        <ele>18.637535</ele>
        <time>2024-07-06T09:47:17.000Z</time>
      </trkpt>
      <trkpt lat="52.324458" lon="-0.300273">
        <ele>18.403984</ele>
        <time>2024-07-06T09:47:21.000Z</time>
      </trkpt>
      <trkpt lat="52.323399" lon="-0.299853">
        <ele>18.846058</ele>
        <time>2024-07-06T09:47:33.000Z</time>
      </trkpt>
      <trkpt lat="52.322456" lon="-0.299604">
        <ele>19.4894</ele>
        <time>2024-07-06T09:47:44.000Z</time>
      </trkpt>
      <trkpt lat="52.321865" lon="-0.299514">
        <ele>20.302673</ele>
        <time>2024-07-06T09:47:51.000Z</time>
      </trkpt>
      <trkpt lat="52.321456" lon="-0.299634">
        <ele>20.87104</ele>
        <time>2024-07-06T09:47:56.000Z</time>
      </trkpt>
      <trkpt lat="52.320868" lon="-0.300128">
        <ele>21.772713</ele>
        <time>2024-07-06T09:48:03.000Z</time>
      </trkpt>
      <trkpt lat="52.320533" lon="-0.300177">
        <ele>22.832895</ele>
        <time>2024-07-06T09:48:07.000Z</time>
      </trkpt>
      <trkpt lat="52.320147" lon="-0.300041">
        <ele>24.181</ele>
        <time>2024-07-06T09:48:11.000Z</time>
      </trkpt>
      <trkpt lat="52.319655" lon="-0.299601">
        <ele>26.045071</ele>
        <time>2024-07-06T09:48:17.000Z</time>
      </trkpt>
      <trkpt lat="52.319202" lon="-0.299019">
        <ele>28.183174</ele>
        <time>2024-07-06T09:48:23.000Z</time>
      </trkpt>
      <trkpt lat="52.318948" lon="-0.298864">
        <ele>30.01772</ele>
        <time>2024-07-06T09:48:26.000Z</time>
      </trkpt>
      <trkpt lat="52.318417" lon="-0.29872">
        <ele>33.903387</ele>
        <time>2024-07-06T09:48:32.000Z</time>
      </trkpt>
      <trkpt lat="52.317672" lon="-0.298565">
        <ele>39.103835</ele>
        <time>2024-07-06T09:48:40.000Z</time>
      </trkpt>
      <trkpt lat="52.317024" lon="-0.29862">
        <ele>43.147639</ele>
        <time>2024-07-06T09:48:47.000Z</time>
      </trkpt>
      <trkpt lat="52.316089" lon="-0.298521">
        <ele>48.67607</ele>
        <time>2024-07-06T09:48:57.000Z</time>
      </trkpt>
      <trkpt lat="52.315485" lon="-0.298657">
        <ele>51.370728</ele>
        <time>2024-07-06T09:49:04.000Z</time>
      </trkpt>
      <trkpt lat="52.314381" lon="-0.298902">
        <ele>52.808718</ele>
        <time>2024-07-06T09:49:16.000Z</time>
      </trkpt>
      <trkpt lat="52.313303" lon="-0.298864">
        <ele>53.734835</ele>
        <time>2024-07-06T09:49:28.000Z</time>
      </trkpt>
      <trkpt lat="52.313249" lon="-0.298869">
        <ele>53.761648</ele>
        <time>2024-07-06T09:49:29.000Z</time>
      </trkpt>
      <trkpt lat="52.312876" lon="-0.298795">
        <ele>53.948143</ele>
        <time>2024-07-06T09:49:33.000Z</time>
      </trkpt>
      <trkpt lat="52.310995" lon="-0.298377">
        <ele>55.603406</ele>
        <time>2024-07-06T09:49:54.000Z</time>
      </trkpt>
      <trkpt lat="52.310338" lon="-0.298198">
        <ele>56.372826</ele>
        <time>2024-07-06T09:50:01.000Z</time>
      </trkpt>
      <trkpt lat="52.309423" lon="-0.298">
        <ele>57.09878</ele>
        <time>2024-07-06T09:50:11.000Z</time>
      </trkpt>
      <trkpt lat="52.308031" lon="-0.297717">
        <ele>57.720501</ele>
        <time>2024-07-06T09:50:27.000Z</time>
      </trkpt>
      <trkpt lat="52.307845" lon="-0.297565">
        <ele>57.687516</ele>
        <time>2024-07-06T09:50:29.000Z</time>
      </trkpt>
      <trkpt lat="52.307749" lon="-0.297229">
        <ele>57.651728</ele>
        <time>2024-07-06T09:50:32.000Z</time>
      </trkpt>
      <trkpt lat="52.307632" lon="-0.297067">
        <ele>57.628393</ele>
        <time>2024-07-06T09:50:34.000Z</time>
      </trkpt>
      <trkpt lat="52.307268" lon="-0.296777">
        <ele>57.563466</ele>
        <time>2024-07-06T09:50:39.000Z</time>
      </trkpt>
      <trkpt lat="52.306778" lon="-0.296394">
        <ele>57.363296</ele>
        <time>2024-07-06T09:50:45.000Z</time>
      </trkpt>
      <trkpt lat="52.306643" lon="-0.296271">
        <ele>57.275408</ele>
        <time>2024-07-06T09:50:47.000Z</time>
      </trkpt>
      <trkpt lat="52.305845" lon="-0.2954">
        <ele>56.703482</ele>
        <time>2024-07-06T09:50:58.000Z</time>
      </trkpt>
      <trkpt lat="52.305094" lon="-0.294303">
        <ele>56.100518</ele>
        <time>2024-07-06T09:51:09.000Z</time>
      </trkpt>
      <trkpt lat="52.30477" lon="-0.294142">
        <ele>55.890317</ele>
        <time>2024-07-06T09:51:13.000Z</time>
      </trkpt>
      <trkpt lat="52.301665" lon="-0.293696">
        <ele>53.651119</ele>
        <time>2024-07-06T09:51:48.000Z</time>
      </trkpt>
      <trkpt lat="52.301509" lon="-0.293598">
        <ele>53.426761</ele>
        <time>2024-07-06T09:51:50.000Z</time>
      </trkpt>
      <trkpt lat="52.300218" lon="-0.29245">
        <ele>51.499093</ele>
        <time>2024-07-06T09:52:06.000Z</time>
      </trkpt>
      <trkpt lat="52.299851" lon="-0.291924">
        <ele>50.803488</ele>
        <time>2024-07-06T09:52:11.000Z</time>
      </trkpt>
      <trkpt lat="52.298344" lon="-0.289745">
        <ele>47.986723</ele>
        <time>2024-07-06T09:52:33.000Z</time>
      </trkpt>
      <trkpt lat="52.298084" lon="-0.289377">
        <ele>47.524469</ele>
        <time>2024-07-06T09:52:37.000Z</time>
      </trkpt>
      <trkpt lat="52.29641" lon="-0.28697">
        <ele>44.296716</ele>
        <time>2024-07-06T09:53:02.000Z</time>
      </trkpt>
      <trkpt lat="52.296368" lon="-0.286907">
        <ele>44.204199</ele>
        <time>2024-07-06T09:53:03.000Z</time>
      </trkpt>
      <trkpt lat="52.295888" lon="-0.286232">
        <ele>43.716709</ele>
        <time>2024-07-06T09:53:10.000Z</time>
      </trkpt>
      <trkpt lat="52.290917" lon="-0.279069">
        <ele>38.825826</ele>
        <time>2024-07-06T09:54:24.000Z</time>
      </trkpt>
      <trkpt lat="52.290638" lon="-0.278958">
        <ele>38.407749</ele>
        <time>2024-07-06T09:54:27.000Z</time>
      </trkpt>
      <trkpt lat="52.290404" lon="-0.280256">
        <ele>37.198819</ele>
        <time>2024-07-06T09:54:36.000Z</time>
      </trkpt>
      <trkpt lat="52.290184" lon="-0.281087">
        <ele>36.38493</ele>
        <time>2024-07-06T09:54:42.000Z</time>
      </trkpt>
      <trkpt lat="52.289522" lon="-0.282146">
        <ele>34.713326</ele>
        <time>2024-07-06T09:54:52.000Z</time>
      </trkpt>
      <trkpt lat="52.289238" lon="-0.282499">
        <ele>34.067375</ele>
        <time>2024-07-06T09:54:56.000Z</time>
      </trkpt>
      <trkpt lat="52.28869" lon="-0.282995">
        <ele>33.118294</ele>
        <time>2024-07-06T09:55:03.000Z</time>
      </trkpt>
      <trkpt lat="52.285771" lon="-0.285086">
        <ele>41.244787</ele>
        <time>2024-07-06T09:55:38.000Z</time>
      </trkpt>
      <trkpt lat="52.284901" lon="-0.285813">
        <ele>43.686712</ele>
        <time>2024-07-06T09:55:49.000Z</time>
      </trkpt>
      <trkpt lat="52.284352" lon="-0.286561">
        <ele>45.284047</ele>
        <time>2024-07-06T09:55:57.000Z</time>
      </trkpt>
      <trkpt lat="52.283917" lon="-0.287397">
        <ele>46.51565</ele>
        <time>2024-07-06T09:56:04.000Z</time>
      </trkpt>
      <trkpt lat="52.283512" lon="-0.288492">
        <ele>47.159383</ele>
        <time>2024-07-06T09:56:13.000Z</time>
      </trkpt>
      <trkpt lat="52.283372" lon="-0.289084">
        <ele>47.478583</ele>
        <time>2024-07-06T09:56:17.000Z</time>
      </trkpt>
      <trkpt lat="52.283239" lon="-0.289872">
        <ele>47.854912</ele>
        <time>2024-07-06T09:56:23.000Z</time>
      </trkpt>
      <trkpt lat="52.283183" lon="-0.290547">
        <ele>47.976984</ele>
        <time>2024-07-06T09:56:28.000Z</time>
      </trkpt>
      <trkpt lat="52.28319" lon="-0.291897">
        <ele>48.223003</ele>
        <time>2024-07-06T09:56:37.000Z</time>
      </trkpt>
      <trkpt lat="52.283472" lon="-0.294802">
        <ele>48.931937</ele>
        <time>2024-07-06T09:56:57.000Z</time>
      </trkpt>
      <trkpt lat="52.283706" lon="-0.296703">
        <ele>49.458063</ele>
        <time>2024-07-06T09:57:10.000Z</time>
      </trkpt>
      <trkpt lat="52.284034" lon="-0.298766">
        <ele>49.946873</ele>
        <time>2024-07-06T09:57:24.000Z</time>
      </trkpt>
      <trkpt lat="52.284096" lon="-0.299097">
        <ele>49.934695</ele>
        <time>2024-07-06T09:57:26.000Z</time>
      </trkpt>
      <trkpt lat="52.284827" lon="-0.302579">
        <ele>49.897664</ele>
        <time>2024-07-06T09:57:51.000Z</time>
      </trkpt>
      <trkpt lat="52.284907" lon="-0.302889">
        <ele>49.907981</ele>
        <time>2024-07-06T09:57:53.000Z</time>
      </trkpt>
      <trkpt lat="52.284999" lon="-0.303261">
        <ele>49.919788</ele>
        <time>2024-07-06T09:57:56.000Z</time>
      </trkpt>
      <trkpt lat="52.285106" lon="-0.303681">
        <ele>49.934017</ele>
        <time>2024-07-06T09:57:59.000Z</time>
      </trkpt>
      <trkpt lat="52.285603" lon="-0.305345">
        <ele>50.640285</ele>
        <time>2024-07-06T09:58:12.000Z</time>
      </trkpt>
      <trkpt lat="52.286366" lon="-0.307415">
        <ele>51.97369</ele>
        <time>2024-07-06T09:58:28.000Z</time>
      </trkpt>
      <trkpt lat="52.286745" lon="-0.308505">
        <ele>52.830707</ele>
        <time>2024-07-06T09:58:37.000Z</time>
      </trkpt>
      <trkpt lat="52.286903" lon="-0.308909">
        <ele>53.158013</ele>
        <time>2024-07-06T09:58:40.000Z</time>
      </trkpt>
      <trkpt lat="52.287112" lon="-0.30949">
        <ele>53.536503</ele>
        <time>2024-07-06T09:58:45.000Z</time>
      </trkpt>
      <trkpt lat="52.287306" lon="-0.310398">
        <ele>54.03485</ele>
        <time>2024-07-06T09:58:52.000Z</time>
      </trkpt>
      <trkpt lat="52.287393" lon="-0.311177">
        <ele>54.441401</ele>
        <time>2024-07-06T09:58:57.000Z</time>
      </trkpt>
      <trkpt lat="52.287365" lon="-0.312206">
        <ele>54.951659</ele>
        <time>2024-07-06T09:59:04.000Z</time>
      </trkpt>
      <trkpt lat="52.287378" lon="-0.3128">
        <ele>55.227725</ele>
        <time>2024-07-06T09:59:08.000Z</time>
      </trkpt>
      <trkpt lat="52.287732" lon="-0.314161">
        <ele>55.925607</ele>
        <time>2024-07-06T09:59:18.000Z</time>
      </trkpt>
      <trkpt lat="52.287767" lon="-0.314441">
        <ele>56.060635</ele>
        <time>2024-07-06T09:59:20.000Z</time>
      </trkpt>
      <trkpt lat="52.287769" lon="-0.314522">
        <ele>56.099437</ele>
        <time>2024-07-06T09:59:21.000Z</time>
      </trkpt>
      <trkpt lat="52.28787" lon="-0.315787">
        <ele>56.779179</ele>
        <time>2024-07-06T09:59:30.000Z</time>
      </trkpt>
      <trkpt lat="52.287882" lon="-0.316926">
        <ele>57.389207</ele>
        <time>2024-07-06T09:59:38.000Z</time>
      </trkpt>
      <trkpt lat="52.287985" lon="-0.317707">
        <ele>57.784414</ele>
        <time>2024-07-06T09:59:43.000Z</time>
      </trkpt>
      <trkpt lat="52.288028" lon="-0.317874">
        <ele>57.815204</ele>
        <time>2024-07-06T09:59:44.000Z</time>
      </trkpt>
      <trkpt lat="52.288076" lon="-0.318015">
        <ele>57.839279</ele>
        <time>2024-07-06T09:59:45.000Z</time>
      </trkpt>
      <trkpt lat="52.288327" lon="-0.318686">
        <ele>57.967179</ele>
        <time>2024-07-06T09:59:50.000Z</time>
      </trkpt>
      <trkpt lat="52.288349" lon="-0.318744">
        <ele>57.975982</ele>
        <time>2024-07-06T09:59:50.000Z</time>
      </trkpt>
      <trkpt lat="52.288425" lon="-0.319044">
        <ele>58.029616</ele>
        <time>2024-07-06T09:59:52.000Z</time>
      </trkpt>
      <trkpt lat="52.288409" lon="-0.319453">
        <ele>58.094001</ele>
        <time>2024-07-06T09:59:55.000Z</time>
      </trkpt>
      <trkpt lat="52.288388" lon="-0.319806">
        <ele>58.151379</ele>
        <time>2024-07-06T09:59:57.000Z</time>
      </trkpt>
      <trkpt lat="52.288409" lon="-0.320154">
        <ele>58.206494</ele>
        <time>2024-07-06T09:59:59.000Z</time>
      </trkpt>
      <trkpt lat="52.288489" lon="-0.320403">
        <ele>58.233425</ele>
        <time>2024-07-06T10:00:01.000Z</time>
      </trkpt>
      <trkpt lat="52.288673" lon="-0.320618">
        <ele>58.17645</ele>
        <time>2024-07-06T10:00:04.000Z</time>
      </trkpt>
      <trkpt lat="52.288983" lon="-0.320835">
        <ele>58.092333</ele>
        <time>2024-07-06T10:00:08.000Z</time>
      </trkpt>
      <trkpt lat="52.289309" lon="-0.321293">
        <ele>57.983947</ele>
        <time>2024-07-06T10:00:13.000Z</time>
      </trkpt>
      <trkpt lat="52.289389" lon="-0.321464">
        <ele>57.952996</ele>
        <time>2024-07-06T10:00:14.000Z</time>
      </trkpt>
      <trkpt lat="52.289679" lon="-0.322041">
        <ele>57.837738</ele>
        <time>2024-07-06T10:00:19.000Z</time>
      </trkpt>
      <trkpt lat="52.289755" lon="-0.322563">
        <ele>57.894207</ele>
        <time>2024-07-06T10:00:23.000Z</time>
      </trkpt>
      <trkpt lat="52.289768" lon="-0.323044">
        <ele>58.103414</ele>
        <time>2024-07-06T10:00:26.000Z</time>
      </trkpt>
      <trkpt lat="52.289658" lon="-0.32369">
        <ele>58.389514</ele>
        <time>2024-07-06T10:00:31.000Z</time>
      </trkpt>
      <trkpt lat="52.289506" lon="-0.324263">
        <ele>58.652492</ele>
        <time>2024-07-06T10:00:35.000Z</time>
      </trkpt>
      <trkpt lat="52.289276" lon="-0.325078">
        <ele>59.035443</ele>
        <time>2024-07-06T10:00:41.000Z</time>
      </trkpt>
      <trkpt lat="52.288909" lon="-0.326494">
        <ele>60.466956</ele>
        <time>2024-07-06T10:00:51.000Z</time>
      </trkpt>
      <trkpt lat="52.288606" lon="-0.3272">
        <ele>61.254062</ele>
        <time>2024-07-06T10:00:57.000Z</time>
      </trkpt>
      <trkpt lat="52.286758" lon="-0.330223">
        <ele>62.645774</ele>
        <time>2024-07-06T10:01:26.000Z</time>
      </trkpt>
      <trkpt lat="52.285845" lon="-0.332229">
        <ele>60.516067</ele>
        <time>2024-07-06T10:01:43.000Z</time>
      </trkpt>
      <trkpt lat="52.28495" lon="-0.333122">
        <ele>57.271961</ele>
        <time>2024-07-06T10:01:55.000Z</time>
      </trkpt>
      <trkpt lat="52.284322" lon="-0.333729">
        <ele>54.706019</ele>
        <time>2024-07-06T10:02:03.000Z</time>
      </trkpt>
      <trkpt lat="52.28374" lon="-0.334507">
        <ele>51.157334</ele>
        <time>2024-07-06T10:02:11.000Z</time>
      </trkpt>
      <trkpt lat="52.282854" lon="-0.33535">
        <ele>46.442397</ele>
        <time>2024-07-06T10:02:22.000Z</time>
      </trkpt>
      <trkpt lat="52.281537" lon="-0.336341">
        <ele>39.856935</ele>
        <time>2024-07-06T10:02:38.000Z</time>
      </trkpt>
      <trkpt lat="52.279019" lon="-0.338097">
        <ele>35.358296</ele>
        <time>2024-07-06T10:03:08.000Z</time>
      </trkpt>
      <trkpt lat="52.278268" lon="-0.338714">
        <ele>34.474006</ele>
        <time>2024-07-06T10:03:17.000Z</time>
      </trkpt>
      <trkpt lat="52.278219" lon="-0.33876">
        <ele>34.409109</ele>
        <time>2024-07-06T10:03:18.000Z</time>
      </trkpt>
      <trkpt lat="52.27655" lon="-0.340756">
        <ele>31.311289</ele>
        <time>2024-07-06T10:03:41.000Z</time>
      </trkpt>
      <trkpt lat="52.274788" lon="-0.342846">
        <ele>29.385106</ele>
        <time>2024-07-06T10:04:05.000Z</time>
      </trkpt>
      <trkpt lat="52.273614" lon="-0.344229">
        <ele>29.026362</ele>
        <time>2024-07-06T10:04:21.000Z</time>
      </trkpt>
      <trkpt lat="52.272955" lon="-0.344997">
        <ele>29.062342</ele>
        <time>2024-07-06T10:04:30.000Z</time>
      </trkpt>
      <trkpt lat="52.272382" lon="-0.345691">
        <ele>29.095115</ele>
        <time>2024-07-06T10:04:38.000Z</time>
      </trkpt>
      <trkpt lat="52.271593" lon="-0.346611">
        <ele>29.443681</ele>
        <time>2024-07-06T10:04:49.000Z</time>
      </trkpt>
      <trkpt lat="52.271477" lon="-0.346523">
        <ele>29.498916</ele>
        <time>2024-07-06T10:04:50.000Z</time>
      </trkpt>
      <trkpt lat="52.270857" lon="-0.346335">
        <ele>29.761784</ele>
        <time>2024-07-06T10:04:57.000Z</time>
      </trkpt>
      <trkpt lat="52.270825" lon="-0.346337">
        <ele>29.775429</ele>
        <time>2024-07-06T10:04:57.000Z</time>
      </trkpt>
      <trkpt lat="52.270596" lon="-0.346283">
        <ele>29.885121</ele>
        <time>2024-07-06T10:05:00.000Z</time>
      </trkpt>
      <trkpt lat="52.270314" lon="-0.34619">
        <ele>30.09762</ele>
        <time>2024-07-06T10:05:03.000Z</time>
      </trkpt>
      <trkpt lat="52.269859" lon="-0.346015">
        <ele>30.428206</ele>
        <time>2024-07-06T10:05:08.000Z</time>
      </trkpt>
      <trkpt lat="52.269166" lon="-0.345671">
        <ele>30.945432</ele>
        <time>2024-07-06T10:05:16.000Z</time>
      </trkpt>
      <trkpt lat="52.268908" lon="-0.345551">
        <ele>31.116795</ele>
        <time>2024-07-06T10:05:19.000Z</time>
      </trkpt>
      <trkpt lat="52.268552" lon="-0.345479">
        <ele>30.919252</ele>
        <time>2024-07-06T10:05:23.000Z</time>
      </trkpt>
      <trkpt lat="52.268286" lon="-0.345283">
        <ele>30.759714</ele>
        <time>2024-07-06T10:05:26.000Z</time>
      </trkpt>
      <trkpt lat="52.268156" lon="-0.344478">
        <ele>30.475149</ele>
        <time>2024-07-06T10:05:32.000Z</time>
      </trkpt>
      <trkpt lat="52.268111" lon="-0.344043">
        <ele>30.32635</ele>
        <time>2024-07-06T10:05:35.000Z</time>
      </trkpt>
      <trkpt lat="52.268098" lon="-0.343954">
        <ele>30.292425</ele>
        <time>2024-07-06T10:05:36.000Z</time>
      </trkpt>
      <trkpt lat="52.26796" lon="-0.342873">
        <ele>29.507159</ele>
        <time>2024-07-06T10:05:44.000Z</time>
      </trkpt>
      <trkpt lat="52.267893" lon="-0.342339">
        <ele>28.946468</ele>
        <time>2024-07-06T10:05:48.000Z</time>
      </trkpt>
      <trkpt lat="52.267763" lon="-0.34156">
        <ele>28.124249</ele>
        <time>2024-07-06T10:05:53.000Z</time>
      </trkpt>
      <trkpt lat="52.267574" lon="-0.340583">
        <ele>27.115773</ele>
        <time>2024-07-06T10:06:00.000Z</time>
      </trkpt>
      <trkpt lat="52.267522" lon="-0.34022">
        <ele>26.836722</ele>
        <time>2024-07-06T10:06:03.000Z</time>
      </trkpt>
      <trkpt lat="52.267116" lon="-0.338113">
        <ele>25.260548</ele>
        <time>2024-07-06T10:06:18.000Z</time>
      </trkpt>
      <trkpt lat="52.267101" lon="-0.337991">
        <ele>25.163837</ele>
        <time>2024-07-06T10:06:19.000Z</time>
      </trkpt>
      <trkpt lat="52.267023" lon="-0.337576">
        <ele>25.050408</ele>
        <time>2024-07-06T10:06:22.000Z</time>
      </trkpt>
      <trkpt lat="52.266649" lon="-0.335711">
        <ele>25.104981</ele>
        <time>2024-07-06T10:06:35.000Z</time>
      </trkpt>
      <trkpt lat="52.266313" lon="-0.33401">
        <ele>25.446652</ele>
        <time>2024-07-06T10:06:47.000Z</time>
      </trkpt>
      <trkpt lat="52.265894" lon="-0.333008">
        <ele>25.813453</ele>
        <time>2024-07-06T10:06:55.000Z</time>
      </trkpt>
      <trkpt lat="52.264356" lon="-0.331206">
        <ele>26.68196</ele>
        <time>2024-07-06T10:07:16.000Z</time>
      </trkpt>
      <trkpt lat="52.26416" lon="-0.330901">
        <ele>26.811023</ele>
        <time>2024-07-06T10:07:19.000Z</time>
      </trkpt>
      <trkpt lat="52.263945" lon="-0.330463">
        <ele>26.758757</ele>
        <time>2024-07-06T10:07:23.000Z</time>
      </trkpt>
      <trkpt lat="52.261163" lon="-0.321865">
        <ele>25.169644</ele>
        <time>2024-07-06T10:08:29.000Z</time>
      </trkpt>
      <trkpt lat="52.26079" lon="-0.320941">
        <ele>24.87518</ele>
        <time>2024-07-06T10:08:37.000Z</time>
      </trkpt>
      <trkpt lat="52.260476" lon="-0.319897">
        <ele>24.555861</ele>
        <time>2024-07-06T10:08:45.000Z</time>
      </trkpt>
      <trkpt lat="52.260111" lon="-0.31909">
        <ele>24.280397</ele>
        <time>2024-07-06T10:08:52.000Z</time>
      </trkpt>
      <trkpt lat="52.259784" lon="-0.318503">
        <ele>24.057697</ele>
        <time>2024-07-06T10:08:57.000Z</time>
      </trkpt>
      <trkpt lat="52.258187" lon="-0.314663">
        <ele>22.992221</ele>
        <time>2024-07-06T10:09:29.000Z</time>
      </trkpt>
      <trkpt lat="52.25768" lon="-0.31342">
        <ele>22.498873</ele>
        <time>2024-07-06T10:09:39.000Z</time>
      </trkpt>
      <trkpt lat="52.257222" lon="-0.312256">
        <ele>22.113591</ele>
        <time>2024-07-06T10:09:48.000Z</time>
      </trkpt>
      <trkpt lat="52.256631" lon="-0.311261">
        <ele>21.740296</ele>
        <time>2024-07-06T10:09:57.000Z</time>
      </trkpt>
      <trkpt lat="52.256365" lon="-0.311112">
        <ele>21.743666</ele>
        <time>2024-07-06T10:10:00.000Z</time>
      </trkpt>
      <trkpt lat="52.255588" lon="-0.310954">
        <ele>22.436057</ele>
        <time>2024-07-06T10:10:09.000Z</time>
      </trkpt>
      <trkpt lat="52.255376" lon="-0.310752">
        <ele>22.65628</ele>
        <time>2024-07-06T10:10:12.000Z</time>
      </trkpt>
      <trkpt lat="52.254413" lon="-0.309354">
        <ele>24.42844</ele>
        <time>2024-07-06T10:10:26.000Z</time>
      </trkpt>
      <trkpt lat="52.254205" lon="-0.308911">
        <ele>25.072296</ele>
        <time>2024-07-06T10:10:30.000Z</time>
      </trkpt>
      <trkpt lat="52.253808" lon="-0.3081">
        <ele>26.290501</ele>
        <time>2024-07-06T10:10:37.000Z</time>
      </trkpt>
      <trkpt lat="52.253301" lon="-0.307116">
        <ele>27.966064</ele>
        <time>2024-07-06T10:10:46.000Z</time>
      </trkpt>
      <trkpt lat="52.253115" lon="-0.306879">
        <ele>28.46132</ele>
        <time>2024-07-06T10:10:49.000Z</time>
      </trkpt>
      <trkpt lat="52.252907" lon="-0.306826">
        <ele>28.943738</ele>
        <time>2024-07-06T10:10:51.000Z</time>
      </trkpt>
      <trkpt lat="52.252092" lon="-0.307016">
        <ele>30.721977</ele>
        <time>2024-07-06T10:11:00.000Z</time>
      </trkpt>
      <trkpt lat="52.251394" lon="-0.307119">
        <ele>31.54387</ele>
        <time>2024-07-06T10:11:08.000Z</time>
      </trkpt>
      <trkpt lat="52.250442" lon="-0.30679">
        <ele>32.674225</ele>
        <time>2024-07-06T10:11:19.000Z</time>
      </trkpt>
      <trkpt lat="52.249813" lon="-0.306727">
        <ele>32.92863</ele>
        <time>2024-07-06T10:11:26.000Z</time>
      </trkpt>
      <trkpt lat="52.249226" lon="-0.30666">
        <ele>33.10575</ele>
        <time>2024-07-06T10:11:33.000Z</time>
      </trkpt>
      <trkpt lat="52.248992" lon="-0.306567">
        <ele>33.172486</ele>
        <time>2024-07-06T10:11:36.000Z</time>
      </trkpt>
      <trkpt lat="52.248588" lon="-0.306254">
        <ele>33.301489</ele>
        <time>2024-07-06T10:11:41.000Z</time>
      </trkpt>
      <trkpt lat="52.248092" lon="-0.305467">
        <ele>33.421187</ele>
        <time>2024-07-06T10:11:49.000Z</time>
      </trkpt>
      <trkpt lat="52.247492" lon="-0.303654">
        <ele>33.616194</ele>
        <time>2024-07-06T10:12:03.000Z</time>
      </trkpt>
      <trkpt lat="52.247338" lon="-0.303284">
        <ele>33.63247</ele>
        <time>2024-07-06T10:12:06.000Z</time>
      </trkpt>
      <trkpt lat="52.247089" lon="-0.30263">
        <ele>33.659473</ele>
        <time>2024-07-06T10:12:11.000Z</time>
      </trkpt>
      <trkpt lat="52.24679" lon="-0.3021">
        <ele>33.685048</ele>
        <time>2024-07-06T10:12:16.000Z</time>
      </trkpt>
      <trkpt lat="52.246344" lon="-0.301425">
        <ele>33.583694</ele>
        <time>2024-07-06T10:12:23.000Z</time>
      </trkpt>
      <trkpt lat="52.245471" lon="-0.300351">
        <ele>32.892512</ele>
        <time>2024-07-06T10:12:35.000Z</time>
      </trkpt>
      <trkpt lat="52.245177" lon="-0.299986">
        <ele>32.64893</ele>
        <time>2024-07-06T10:12:39.000Z</time>
      </trkpt>
      <trkpt lat="52.244962" lon="-0.299616">
        <ele>32.391488</ele>
        <time>2024-07-06T10:12:42.000Z</time>
      </trkpt>
      <trkpt lat="52.244279" lon="-0.298785">
        <ele>31.527482</ele>
        <time>2024-07-06T10:12:51.000Z</time>
      </trkpt>
      <trkpt lat="52.243993" lon="-0.298408">
        <ele>31.154117</ele>
        <time>2024-07-06T10:12:55.000Z</time>
      </trkpt>
      <trkpt lat="52.243615" lon="-0.297732">
        <ele>30.780033</ele>
        <time>2024-07-06T10:13:01.000Z</time>
      </trkpt>
      <trkpt lat="52.24278" lon="-0.295865">
        <ele>31.138205</ele>
        <time>2024-07-06T10:13:17.000Z</time>
      </trkpt>
      <trkpt lat="52.242647" lon="-0.295459">
        <ele>31.238316</ele>
        <time>2024-07-06T10:13:20.000Z</time>
      </trkpt>
      <trkpt lat="52.242412" lon="-0.294394">
        <ele>31.755795</ele>
        <time>2024-07-06T10:13:28.000Z</time>
      </trkpt>
      <trkpt lat="52.242267" lon="-0.29395">
        <ele>31.992865</ele>
        <time>2024-07-06T10:13:31.000Z</time>
      </trkpt>
      <trkpt lat="52.242053" lon="-0.293625">
        <ele>32.213647</ele>
        <time>2024-07-06T10:13:34.000Z</time>
      </trkpt>
      <trkpt lat="52.241865" lon="-0.293457">
        <ele>32.381502</ele>
        <time>2024-07-06T10:13:36.000Z</time>
      </trkpt>
      <trkpt lat="52.241386" lon="-0.293257">
        <ele>32.570286</ele>
        <time>2024-07-06T10:13:41.000Z</time>
      </trkpt>
      <trkpt lat="52.241183" lon="-0.293229">
        <ele>32.574905</ele>
        <time>2024-07-06T10:13:43.000Z</time>
      </trkpt>
      <trkpt lat="52.240552" lon="-0.293155">
        <ele>32.590095</ele>
        <time>2024-07-06T10:13:50.000Z</time>
      </trkpt>
      <trkpt lat="52.240207" lon="-0.292962">
        <ele>32.59878</ele>
        <time>2024-07-06T10:13:54.000Z</time>
      </trkpt>
      <trkpt lat="52.239586" lon="-0.292162">
        <ele>32.529146</ele>
        <time>2024-07-06T10:14:03.000Z</time>
      </trkpt>
      <trkpt lat="52.239435" lon="-0.291866">
        <ele>32.485775</ele>
        <time>2024-07-06T10:14:06.000Z</time>
      </trkpt>
      <trkpt lat="52.239247" lon="-0.291525">
        <ele>32.436411</ele>
        <time>2024-07-06T10:14:09.000Z</time>
      </trkpt>
      <trkpt lat="52.239101" lon="-0.291046">
        <ele>32.377186</ele>
        <time>2024-07-06T10:14:13.000Z</time>
      </trkpt>
      <trkpt lat="52.238327" lon="-0.287886">
        <ele>32.215903</ele>
        <time>2024-07-06T10:14:36.000Z</time>
      </trkpt>
      <trkpt lat="52.237801" lon="-0.286312">
        <ele>32.346322</ele>
        <time>2024-07-06T10:14:48.000Z</time>
      </trkpt>
      <trkpt lat="52.237741" lon="-0.286164">
        <ele>32.362259</ele>
        <time>2024-07-06T10:14:49.000Z</time>
      </trkpt>
      <trkpt lat="52.237435" lon="-0.285248">
        <ele>32.464654</ele>
        <time>2024-07-06T10:14:56.000Z</time>
      </trkpt>
      <trkpt lat="52.237062" lon="-0.284207">
        <ele>32.582062</ele>
        <time>2024-07-06T10:15:04.000Z</time>
      </trkpt>
      <trkpt lat="52.236683" lon="-0.283363">
        <ele>32.682812</ele>
        <time>2024-07-06T10:15:11.000Z</time>
      </trkpt>
      <trkpt lat="52.236466" lon="-0.282901">
        <ele>32.739438</ele>
        <time>2024-07-06T10:15:15.000Z</time>
      </trkpt>
      <trkpt lat="52.236372" lon="-0.282764">
        <ele>32.758213</ele>
        <time>2024-07-06T10:15:16.000Z</time>
      </trkpt>
      <trkpt lat="52.236298" lon="-0.282638">
        <ele>32.775904</ele>
        <time>2024-07-06T10:15:17.000Z</time>
      </trkpt>
      <trkpt lat="52.23629" lon="-0.282623">
        <ele>32.777059</ele>
        <time>2024-07-06T10:15:17.000Z</time>
      </trkpt>
      <trkpt lat="52.236119" lon="-0.282291">
        <ele>32.753518</ele>
        <time>2024-07-06T10:15:20.000Z</time>
      </trkpt>
      <trkpt lat="52.236083" lon="-0.282231">
        <ele>32.749925</ele>
        <time>2024-07-06T10:15:21.000Z</time>
      </trkpt>
      <trkpt lat="52.235976" lon="-0.282288">
        <ele>32.740491</ele>
        <time>2024-07-06T10:15:22.000Z</time>
      </trkpt>
      <trkpt lat="52.235984" lon="-0.282305">
        <ele>32.739505</ele>
        <time>2024-07-06T10:15:22.000Z</time>
      </trkpt>
      <trkpt lat="52.236037" lon="-0.282444">
        <ele>32.730778</ele>
        <time>2024-07-06T10:15:23.000Z</time>
      </trkpt>
      <trkpt lat="52.236037" lon="-0.282436">
        <ele>32.730091</ele>
        <time>2024-07-06T10:15:23.000Z</time>
      </trkpt>
      <trkpt lat="52.236292" lon="-0.282627">
        <ele>32.70646</ele>
        <time>2024-07-06T10:15:26.000Z</time>
      </trkpt>
      <trkpt lat="52.236295" lon="-0.28264">
        <ele>32.705817</ele>
        <time>2024-07-06T10:15:26.000Z</time>
      </trkpt>
      <trkpt lat="52.236384" lon="-0.282768">
        <ele>32.696234</ele>
        <time>2024-07-06T10:15:27.000Z</time>
      </trkpt>
      <trkpt lat="52.236457" lon="-0.282898">
        <ele>32.686053</ele>
        <time>2024-07-06T10:15:28.000Z</time>
      </trkpt>
      <trkpt lat="52.236698" lon="-0.283364">
        <ele>32.655338</ele>
        <time>2024-07-06T10:15:32.000Z</time>
      </trkpt>
      <trkpt lat="52.237056" lon="-0.28421">
        <ele>32.574672</ele>
        <time>2024-07-06T10:15:39.000Z</time>
      </trkpt>
      <trkpt lat="52.237444" lon="-0.285251">
        <ele>32.438128</ele>
        <time>2024-07-06T10:15:47.000Z</time>
      </trkpt>
      <trkpt lat="52.237747" lon="-0.286164">
        <ele>32.320136</ele>
        <time>2024-07-06T10:15:54.000Z</time>
      </trkpt>
      <trkpt lat="52.237803" lon="-0.28631">
        <ele>32.301784</ele>
        <time>2024-07-06T10:15:55.000Z</time>
      </trkpt>
      <trkpt lat="52.238316" lon="-0.287886">
        <ele>32.259941</ele>
        <time>2024-07-06T10:16:07.000Z</time>
      </trkpt>
      <trkpt lat="52.239093" lon="-0.291052">
        <ele>32.376728</ele>
        <time>2024-07-06T10:16:30.000Z</time>
      </trkpt>
      <trkpt lat="52.239258" lon="-0.291526">
        <ele>32.411557</ele>
        <time>2024-07-06T10:16:34.000Z</time>
      </trkpt>
      <trkpt lat="52.239601" lon="-0.292171">
        <ele>32.493373</ele>
        <time>2024-07-06T10:16:40.000Z</time>
      </trkpt>
      <trkpt lat="52.240217" lon="-0.292959">
        <ele>32.62963</ele>
        <time>2024-07-06T10:16:49.000Z</time>
      </trkpt>
      <trkpt lat="52.240557" lon="-0.293145">
        <ele>32.693416</ele>
        <time>2024-07-06T10:16:53.000Z</time>
      </trkpt>
      <trkpt lat="52.241189" lon="-0.293222">
        <ele>32.565196</ele>
        <time>2024-07-06T10:17:00.000Z</time>
      </trkpt>
      <trkpt lat="52.241379" lon="-0.293257">
        <ele>32.474367</ele>
        <time>2024-07-06T10:17:02.000Z</time>
      </trkpt>
      <trkpt lat="52.241861" lon="-0.293468">
        <ele>32.241822</ele>
        <time>2024-07-06T10:17:08.000Z</time>
      </trkpt>
      <trkpt lat="52.242058" lon="-0.293632">
        <ele>32.138672</ele>
        <time>2024-07-06T10:17:10.000Z</time>
      </trkpt>
      <trkpt lat="52.242271" lon="-0.293962">
        <ele>32.003</ele>
        <time>2024-07-06T10:17:13.000Z</time>
      </trkpt>
      <trkpt lat="52.242425" lon="-0.294401">
        <ele>31.83709</ele>
        <time>2024-07-06T10:17:16.000Z</time>
      </trkpt>
      <trkpt lat="52.24265" lon="-0.295462">
        <ele>31.368203</ele>
        <time>2024-07-06T10:17:24.000Z</time>
      </trkpt>
      <trkpt lat="52.242796" lon="-0.295868">
        <ele>31.169684</ele>
        <time>2024-07-06T10:17:27.000Z</time>
      </trkpt>
      <trkpt lat="52.243613" lon="-0.297733">
        <ele>31.010605</ele>
        <time>2024-07-06T10:17:43.000Z</time>
      </trkpt>
      <trkpt lat="52.243993" lon="-0.298425">
        <ele>31.294972</ele>
        <time>2024-07-06T10:17:49.000Z</time>
      </trkpt>
      <trkpt lat="52.244271" lon="-0.298784">
        <ele>31.484909</ele>
        <time>2024-07-06T10:17:53.000Z</time>
      </trkpt>
      <trkpt lat="52.244962" lon="-0.299602">
        <ele>32.255443</ele>
        <time>2024-07-06T10:18:02.000Z</time>
      </trkpt>
      <trkpt lat="52.245164" lon="-0.299977">
        <ele>32.566548</ele>
        <time>2024-07-06T10:18:05.000Z</time>
      </trkpt>
      <trkpt lat="52.245473" lon="-0.300363">
        <ele>32.953271</ele>
        <time>2024-07-06T10:18:09.000Z</time>
      </trkpt>
      <trkpt lat="52.246336" lon="-0.30141">
        <ele>33.510334</ele>
        <time>2024-07-06T10:18:21.000Z</time>
      </trkpt>
      <trkpt lat="52.246781" lon="-0.302096">
        <ele>33.606622</ele>
        <time>2024-07-06T10:18:28.000Z</time>
      </trkpt>
      <trkpt lat="52.24709" lon="-0.302629">
        <ele>33.676152</ele>
        <time>2024-07-06T10:18:33.000Z</time>
      </trkpt>
      <trkpt lat="52.247494" lon="-0.303666">
        <ele>33.615056</ele>
        <time>2024-07-06T10:18:41.000Z</time>
      </trkpt>
      <trkpt lat="52.24809" lon="-0.305468">
        <ele>33.449021</ele>
        <time>2024-07-06T10:18:55.000Z</time>
      </trkpt>
      <trkpt lat="52.248577" lon="-0.306254">
        <ele>33.29296</ele>
        <time>2024-07-06T10:19:03.000Z</time>
      </trkpt>
      <trkpt lat="52.248995" lon="-0.306576">
        <ele>33.189504</ele>
        <time>2024-07-06T10:19:08.000Z</time>
      </trkpt>
      <trkpt lat="52.249223" lon="-0.306672">
        <ele>33.138092</ele>
        <time>2024-07-06T10:19:11.000Z</time>
      </trkpt>
      <trkpt lat="52.249814" lon="-0.306726">
        <ele>32.891633</ele>
        <time>2024-07-06T10:19:18.000Z</time>
      </trkpt>
      <trkpt lat="52.250443" lon="-0.306784">
        <ele>32.496662</ele>
        <time>2024-07-06T10:19:25.000Z</time>
      </trkpt>
      <trkpt lat="52.251394" lon="-0.30713">
        <ele>31.812754</ele>
        <time>2024-07-06T10:19:36.000Z</time>
      </trkpt>
      <trkpt lat="52.252079" lon="-0.30701">
        <ele>30.517178</ele>
        <time>2024-07-06T10:19:44.000Z</time>
      </trkpt>
      <trkpt lat="52.252916" lon="-0.306825">
        <ele>28.971038</ele>
        <time>2024-07-06T10:19:53.000Z</time>
      </trkpt>
      <trkpt lat="52.253122" lon="-0.306874">
        <ele>28.559454</ele>
        <time>2024-07-06T10:19:55.000Z</time>
      </trkpt>
      <trkpt lat="52.253294" lon="-0.307125">
        <ele>28.066494</ele>
        <time>2024-07-06T10:19:58.000Z</time>
      </trkpt>
      <trkpt lat="52.253808" lon="-0.308105">
        <ele>26.336667</ele>
        <time>2024-07-06T10:20:07.000Z</time>
      </trkpt>
      <trkpt lat="52.254208" lon="-0.308921">
        <ele>24.929426</ele>
        <time>2024-07-06T10:20:14.000Z</time>
      </trkpt>
      <trkpt lat="52.254413" lon="-0.309356">
        <ele>24.344128</ele>
        <time>2024-07-06T10:20:18.000Z</time>
      </trkpt>
      <trkpt lat="52.255371" lon="-0.31075">
        <ele>22.481877</ele>
        <time>2024-07-06T10:20:32.000Z</time>
      </trkpt>
      <trkpt lat="52.255586" lon="-0.31095">
        <ele>22.123879</ele>
        <time>2024-07-06T10:20:35.000Z</time>
      </trkpt>
      <trkpt lat="52.256366" lon="-0.311107">
        <ele>21.998532</ele>
        <time>2024-07-06T10:20:44.000Z</time>
      </trkpt>
      <trkpt lat="52.256621" lon="-0.311248">
        <ele>21.977931</ele>
        <time>2024-07-06T10:20:47.000Z</time>
      </trkpt>
      <trkpt lat="52.257224" lon="-0.312244">
        <ele>21.95671</ele>
        <time>2024-07-06T10:20:57.000Z</time>
      </trkpt>
      <trkpt lat="52.257693" lon="-0.313428">
        <ele>22.506656</ele>
        <time>2024-07-06T10:21:07.000Z</time>
      </trkpt>
      <trkpt lat="52.258175" lon="-0.314674">
        <ele>23.085935</ele>
        <time>2024-07-06T10:21:17.000Z</time>
      </trkpt>
      <trkpt lat="52.259787" lon="-0.318501">
        <ele>24.076508</ele>
        <time>2024-07-06T10:21:49.000Z</time>
      </trkpt>
      <trkpt lat="52.260113" lon="-0.319102">
        <ele>24.249929</ele>
        <time>2024-07-06T10:21:54.000Z</time>
      </trkpt>
      <trkpt lat="52.260479" lon="-0.319902">
        <ele>24.522292</ele>
        <time>2024-07-06T10:22:01.000Z</time>
      </trkpt>
      <trkpt lat="52.260803" lon="-0.320947">
        <ele>24.88544</ele>
        <time>2024-07-06T10:22:09.000Z</time>
      </trkpt>
      <trkpt lat="52.261168" lon="-0.321872">
        <ele>25.228526</ele>
        <time>2024-07-06T10:22:16.000Z</time>
      </trkpt>
      <trkpt lat="52.263942" lon="-0.330467">
        <ele>26.717911</ele>
        <time>2024-07-06T10:23:22.000Z</time>
      </trkpt>
      <trkpt lat="52.264142" lon="-0.330889">
        <ele>26.647942</ele>
        <time>2024-07-06T10:23:26.000Z</time>
      </trkpt>
      <trkpt lat="52.264356" lon="-0.331214">
        <ele>26.587508</ele>
        <time>2024-07-06T10:23:29.000Z</time>
      </trkpt>
      <trkpt lat="52.265898" lon="-0.332997">
        <ele>25.803048</ele>
        <time>2024-07-06T10:23:50.000Z</time>
      </trkpt>
      <trkpt lat="52.266305" lon="-0.334017">
        <ele>25.444552</ele>
        <time>2024-07-06T10:23:58.000Z</time>
      </trkpt>
      <trkpt lat="52.266647" lon="-0.335709">
        <ele>25.063126</ele>
        <time>2024-07-06T10:24:10.000Z</time>
      </trkpt>
      <trkpt lat="52.267005" lon="-0.337577">
        <ele>25.261627</ele>
        <time>2024-07-06T10:24:23.000Z</time>
      </trkpt>
      <trkpt lat="52.2671" lon="-0.337977">
        <ele>25.411938</ele>
        <time>2024-07-06T10:24:26.000Z</time>
      </trkpt>
      <trkpt lat="52.267118" lon="-0.338104">
        <ele>25.459501</ele>
        <time>2024-07-06T10:24:27.000Z</time>
      </trkpt>
      <trkpt lat="52.267522" lon="-0.340216">
        <ele>26.819981</ele>
        <time>2024-07-06T10:24:42.000Z</time>
      </trkpt>
      <trkpt lat="52.267589" lon="-0.340581">
        <ele>27.206871</ele>
        <time>2024-07-06T10:24:45.000Z</time>
      </trkpt>
      <trkpt lat="52.267759" lon="-0.341563">
        <ele>28.209314</ele>
        <time>2024-07-06T10:24:52.000Z</time>
      </trkpt>
      <trkpt lat="52.267897" lon="-0.342333">
        <ele>28.972574</ele>
        <time>2024-07-06T10:24:57.000Z</time>
      </trkpt>
      <trkpt lat="52.267969" lon="-0.342875">
        <ele>29.392383</ele>
        <time>2024-07-06T10:25:01.000Z</time>
      </trkpt>
      <trkpt lat="52.268109" lon="-0.343942">
        <ele>30.221608</ele>
        <time>2024-07-06T10:25:08.000Z</time>
      </trkpt>
      <trkpt lat="52.268115" lon="-0.344036">
        <ele>30.297921</ele>
        <time>2024-07-06T10:25:09.000Z</time>
      </trkpt>
      <trkpt lat="52.268145" lon="-0.34448">
        <ele>30.632789</ele>
        <time>2024-07-06T10:25:12.000Z</time>
      </trkpt>
      <trkpt lat="52.268296" lon="-0.345286">
        <ele>31.016112</ele>
        <time>2024-07-06T10:25:18.000Z</time>
      </trkpt>
      <trkpt lat="52.268561" lon="-0.345468">
        <ele>30.92735</ele>
        <time>2024-07-06T10:25:21.000Z</time>
      </trkpt>
      <trkpt lat="52.268903" lon="-0.345551">
        <ele>30.81747</ele>
        <time>2024-07-06T10:25:25.000Z</time>
      </trkpt>
      <trkpt lat="52.269157" lon="-0.345674">
        <ele>30.737057</ele>
        <time>2024-07-06T10:25:28.000Z</time>
      </trkpt>
      <trkpt lat="52.269862" lon="-0.346017">
        <ele>30.513924</ele>
        <time>2024-07-06T10:25:36.000Z</time>
      </trkpt>
      <trkpt lat="52.270298" lon="-0.346191">
        <ele>30.08082</ele>
        <time>2024-07-06T10:25:41.000Z</time>
      </trkpt>
      <trkpt lat="52.270594" lon="-0.346284">
        <ele>29.802404</ele>
        <time>2024-07-06T10:25:44.000Z</time>
      </trkpt>
      <trkpt lat="52.270817" lon="-0.346339">
        <ele>29.596787</ele>
        <time>2024-07-06T10:25:47.000Z</time>
      </trkpt>
      <trkpt lat="52.270855" lon="-0.346346">
        <ele>29.565719</ele>
        <time>2024-07-06T10:25:47.000Z</time>
      </trkpt>
      <trkpt lat="52.271482" lon="-0.346528">
        <ele>28.966915</ele>
        <time>2024-07-06T10:25:54.000Z</time>
      </trkpt>
      <trkpt lat="52.271609" lon="-0.346629">
        <ele>28.84108</ele>
        <time>2024-07-06T10:25:56.000Z</time>
      </trkpt>
      <trkpt lat="52.27189" lon="-0.347017">
        <ele>28.802107</ele>
        <time>2024-07-06T10:26:00.000Z</time>
      </trkpt>
      <trkpt lat="52.272333" lon="-0.348148">
        <ele>28.732965</ele>
        <time>2024-07-06T10:26:09.000Z</time>
      </trkpt>
      <trkpt lat="52.273427" lon="-0.350979">
        <ele>29.188352</ele>
        <time>2024-07-06T10:26:32.000Z</time>
      </trkpt>
      <trkpt lat="52.275189" lon="-0.355797">
        <ele>29.757619</ele>
        <time>2024-07-06T10:27:10.000Z</time>
      </trkpt>
      <trkpt lat="52.275658" lon="-0.358163">
        <ele>30.423318</ele>
        <time>2024-07-06T10:27:27.000Z</time>
      </trkpt>
      <trkpt lat="52.275788" lon="-0.358507">
        <ele>30.561098</ele>
        <time>2024-07-06T10:27:30.000Z</time>
      </trkpt>
      <trkpt lat="52.27617" lon="-0.359138">
        <ele>30.877006</ele>
        <time>2024-07-06T10:27:36.000Z</time>
      </trkpt>
      <trkpt lat="52.277011" lon="-0.359791">
        <ele>32.777392</ele>
        <time>2024-07-06T10:27:46.000Z</time>
      </trkpt>
      <trkpt lat="52.280178" lon="-0.361649">
        <ele>40.377746</ele>
        <time>2024-07-06T10:28:23.000Z</time>
      </trkpt>
      <trkpt lat="52.281174" lon="-0.362326">
        <ele>41.880975</ele>
        <time>2024-07-06T10:28:35.000Z</time>
      </trkpt>
      <trkpt lat="52.282731" lon="-0.363348">
        <ele>40.895177</ele>
        <time>2024-07-06T10:28:54.000Z</time>
      </trkpt>
      <trkpt lat="52.283021" lon="-0.36358">
        <ele>40.573058</ele>
        <time>2024-07-06T10:28:58.000Z</time>
      </trkpt>
      <trkpt lat="52.284355" lon="-0.364465">
        <ele>38.699597</ele>
        <time>2024-07-06T10:29:14.000Z</time>
      </trkpt>
      <trkpt lat="52.284933" lon="-0.364849">
        <ele>38.26223</ele>
        <time>2024-07-06T10:29:21.000Z</time>
      </trkpt>
      <trkpt lat="52.285405" lon="-0.365489">
        <ele>37.988287</ele>
        <time>2024-07-06T10:29:28.000Z</time>
      </trkpt>
      <trkpt lat="52.285631" lon="-0.365899">
        <ele>37.841043</ele>
        <time>2024-07-06T10:29:32.000Z</time>
      </trkpt>
      <trkpt lat="52.287342" lon="-0.369059">
        <ele>39.140983</ele>
        <time>2024-07-06T10:30:01.000Z</time>
      </trkpt>
      <trkpt lat="52.287708" lon="-0.36969">
        <ele>39.468956</ele>
        <time>2024-07-06T10:30:07.000Z</time>
      </trkpt>
      <trkpt lat="52.28776" lon="-0.369814">
        <ele>39.533073</ele>
        <time>2024-07-06T10:30:08.000Z</time>
      </trkpt>
      <trkpt lat="52.288786" lon="-0.371679">
        <ele>39.544131</ele>
        <time>2024-07-06T10:30:25.000Z</time>
      </trkpt>
      <trkpt lat="52.288959" lon="-0.37201">
        <ele>39.352488</ele>
        <time>2024-07-06T10:30:28.000Z</time>
      </trkpt>
      <trkpt lat="52.28958" lon="-0.373734">
        <ele>38.444602</ele>
        <time>2024-07-06T10:30:42.000Z</time>
      </trkpt>
      <trkpt lat="52.289788" lon="-0.374614">
        <ele>37.934518</ele>
        <time>2024-07-06T10:30:48.000Z</time>
      </trkpt>
      <trkpt lat="52.289925" lon="-0.374899">
        <ele>37.754149</ele>
        <time>2024-07-06T10:30:50.000Z</time>
      </trkpt>
      <trkpt lat="52.290122" lon="-0.375169">
        <ele>37.517735</ele>
        <time>2024-07-06T10:30:53.000Z</time>
      </trkpt>
      <trkpt lat="52.290831" lon="-0.376206">
        <ele>36.850612</ele>
        <time>2024-07-06T10:31:04.000Z</time>
      </trkpt>
      <trkpt lat="52.291555" lon="-0.377032">
        <ele>36.297528</ele>
        <time>2024-07-06T10:31:14.000Z</time>
      </trkpt>
      <trkpt lat="52.291689" lon="-0.377272">
        <ele>36.170113</ele>
        <time>2024-07-06T10:31:16.000Z</time>
      </trkpt>
      <trkpt lat="52.292409" lon="-0.379368">
        <ele>34.682075</ele>
        <time>2024-07-06T10:31:32.000Z</time>
      </trkpt>
      <trkpt lat="52.292725" lon="-0.379727">
        <ele>34.278952</ele>
        <time>2024-07-06T10:31:36.000Z</time>
      </trkpt>
      <trkpt lat="52.292972" lon="-0.379811">
        <ele>34.287053</ele>
        <time>2024-07-06T10:31:39.000Z</time>
      </trkpt>
      <trkpt lat="52.293489" lon="-0.379853">
        <ele>34.40212</ele>
        <time>2024-07-06T10:31:45.000Z</time>
      </trkpt>
      <trkpt lat="52.293659" lon="-0.379974">
        <ele>34.444804</ele>
        <time>2024-07-06T10:31:47.000Z</time>
      </trkpt>
      <trkpt lat="52.29376" lon="-0.380098">
        <ele>34.471547</ele>
        <time>2024-07-06T10:31:48.000Z</time>
      </trkpt>
      <trkpt lat="52.29382" lon="-0.380218">
        <ele>34.492661</ele>
        <time>2024-07-06T10:31:49.000Z</time>
      </trkpt>
      <trkpt lat="52.293835" lon="-0.38025">
        <ele>34.497336</ele>
        <time>2024-07-06T10:31:49.000Z</time>
      </trkpt>
      <trkpt lat="52.294306" lon="-0.381105">
        <ele>34.679985</ele>
        <time>2024-07-06T10:31:57.000Z</time>
      </trkpt>
      <trkpt lat="52.29421" lon="-0.38126">
        <ele>34.755548</ele>
        <time>2024-07-06T10:31:59.000Z</time>
      </trkpt>
      <trkpt lat="52.293911" lon="-0.381835">
        <ele>35.043842</ele>
        <time>2024-07-06T10:32:04.000Z</time>
      </trkpt>
      <trkpt lat="52.293845" lon="-0.381961">
        <ele>35.09991</ele>
        <time>2024-07-06T10:32:05.000Z</time>
      </trkpt>
      <trkpt lat="52.293186" lon="-0.383343">
        <ele>35.754275</ele>
        <time>2024-07-06T10:32:17.000Z</time>
      </trkpt>
      <trkpt lat="52.292161" lon="-0.385711">
        <ele>36.680623</ele>
        <time>2024-07-06T10:32:37.000Z</time>
      </trkpt>
      <trkpt lat="52.291577" lon="-0.387276">
        <ele>37.551037</ele>
        <time>2024-07-06T10:32:49.000Z</time>
      </trkpt>
      <trkpt lat="52.291391" lon="-0.387674">
        <ele>37.783802</ele>
        <time>2024-07-06T10:32:52.000Z</time>
      </trkpt>
      <trkpt lat="52.291358" lon="-0.387717">
        <ele>37.811474</ele>
        <time>2024-07-06T10:32:52.000Z</time>
      </trkpt>
      <trkpt lat="52.289812" lon="-0.39089">
        <ele>40.706963</ele>
        <time>2024-07-06T10:33:20.000Z</time>
      </trkpt>
      <trkpt lat="52.287426" lon="-0.394658">
        <ele>48.382367</ele>
        <time>2024-07-06T10:33:57.000Z</time>
      </trkpt>
      <trkpt lat="52.28533" lon="-0.397662">
        <ele>55.954604</ele>
        <time>2024-07-06T10:34:28.000Z</time>
      </trkpt>
      <trkpt lat="52.28467" lon="-0.398787">
        <ele>58.491482</ele>
        <time>2024-07-06T10:34:39.000Z</time>
      </trkpt>
      <trkpt lat="52.283817" lon="-0.400849">
        <ele>62.120246</ele>
        <time>2024-07-06T10:34:56.000Z</time>
      </trkpt>
      <trkpt lat="52.283306" lon="-0.401764">
        <ele>62.569112</ele>
        <time>2024-07-06T10:35:04.000Z</time>
      </trkpt>
      <trkpt lat="52.283216" lon="-0.401885">
        <ele>62.621851</ele>
        <time>2024-07-06T10:35:05.000Z</time>
      </trkpt>
      <trkpt lat="52.283171" lon="-0.40193">
        <ele>62.65187</ele>
        <time>2024-07-06T10:35:06.000Z</time>
      </trkpt>
      <trkpt lat="52.282823" lon="-0.402143">
        <ele>62.83242</ele>
        <time>2024-07-06T10:35:10.000Z</time>
      </trkpt>
      <trkpt lat="52.282202" lon="-0.402702">
        <ele>62.487967</ele>
        <time>2024-07-06T10:35:18.000Z</time>
      </trkpt>
      <trkpt lat="52.282094" lon="-0.402816">
        <ele>61.979815</ele>
        <time>2024-07-06T10:35:19.000Z</time>
      </trkpt>
      <trkpt lat="52.281659" lon="-0.403246">
        <ele>59.919099</ele>
        <time>2024-07-06T10:35:25.000Z</time>
      </trkpt>
      <trkpt lat="52.281368" lon="-0.403635">
        <ele>58.408933</ele>
        <time>2024-07-06T10:35:29.000Z</time>
      </trkpt>
      <trkpt lat="52.280167" lon="-0.40588">
        <ele>48.897692</ele>
        <time>2024-07-06T10:35:49.000Z</time>
      </trkpt>
      <trkpt lat="52.279203" lon="-0.40777">
        <ele>41.911678</ele>
        <time>2024-07-06T10:36:06.000Z</time>
      </trkpt>
      <trkpt lat="52.279138" lon="-0.407903">
        <ele>41.531988</ele>
        <time>2024-07-06T10:36:07.000Z</time>
      </trkpt>
      <trkpt lat="52.278887" lon="-0.408433">
        <ele>39.984291</ele>
        <time>2024-07-06T10:36:12.000Z</time>
      </trkpt>
      <trkpt lat="52.278781" lon="-0.408547">
        <ele>39.499649</ele>
        <time>2024-07-06T10:36:13.000Z</time>
      </trkpt>
      <trkpt lat="52.278541" lon="-0.408611">
        <ele>38.583234</ele>
        <time>2024-07-06T10:36:16.000Z</time>
      </trkpt>
      <trkpt lat="52.277107" lon="-0.408915">
        <ele>37.123461</ele>
        <time>2024-07-06T10:36:32.000Z</time>
      </trkpt>
      <trkpt lat="52.277063" lon="-0.408926">
        <ele>37.081891</ele>
        <time>2024-07-06T10:36:32.000Z</time>
      </trkpt>
      <trkpt lat="52.276967" lon="-0.408947">
        <ele>36.97926</ele>
        <time>2024-07-06T10:36:33.000Z</time>
      </trkpt>
      <trkpt lat="52.275948" lon="-0.409188">
        <ele>37.411495</ele>
        <time>2024-07-06T10:36:44.000Z</time>
      </trkpt>
      <trkpt lat="52.27576" lon="-0.409301">
        <ele>37.564614</ele>
        <time>2024-07-06T10:36:46.000Z</time>
      </trkpt>
      <trkpt lat="52.275395" lon="-0.409702">
        <ele>37.916739</ele>
        <time>2024-07-06T10:36:51.000Z</time>
      </trkpt>
      <trkpt lat="52.275275" lon="-0.409961">
        <ele>38.080183</ele>
        <time>2024-07-06T10:36:53.000Z</time>
      </trkpt>
      <trkpt lat="52.275169" lon="-0.410649">
        <ele>38.411432</ele>
        <time>2024-07-06T10:36:58.000Z</time>
      </trkpt>
      <trkpt lat="52.275076" lon="-0.411866">
        <ele>38.962813</ele>
        <time>2024-07-06T10:37:06.000Z</time>
      </trkpt>
      <trkpt lat="52.275003" lon="-0.412571">
        <ele>39.285313</ele>
        <time>2024-07-06T10:37:11.000Z</time>
      </trkpt>
      <trkpt lat="52.274969" lon="-0.41268">
        <ele>39.340147</ele>
        <time>2024-07-06T10:37:12.000Z</time>
      </trkpt>
      <trkpt lat="52.274914" lon="-0.412923">
        <ele>39.453699</ele>
        <time>2024-07-06T10:37:14.000Z</time>
      </trkpt>
      <trkpt lat="52.274721" lon="-0.413549">
        <ele>39.507066</ele>
        <time>2024-07-06T10:37:19.000Z</time>
      </trkpt>
      <trkpt lat="52.274651" lon="-0.413648">
        <ele>39.501896</ele>
        <time>2024-07-06T10:37:20.000Z</time>
      </trkpt>
      <trkpt lat="52.274449" lon="-0.413755">
        <ele>39.489632</ele>
        <time>2024-07-06T10:37:22.000Z</time>
      </trkpt>
      <trkpt lat="52.274271" lon="-0.413761">
        <ele>39.479196</ele>
        <time>2024-07-06T10:37:24.000Z</time>
      </trkpt>
      <trkpt lat="52.271711" lon="-0.413954">
        <ele>39.295431</ele>
        <time>2024-07-06T10:37:52.000Z</time>
      </trkpt>
      <trkpt lat="52.270656" lon="-0.414211">
        <ele>39.33465</ele>
        <time>2024-07-06T10:38:04.000Z</time>
      </trkpt>
      <trkpt lat="52.27038" lon="-0.414369">
        <ele>39.353564</ele>
        <time>2024-07-06T10:38:07.000Z</time>
      </trkpt>
      <trkpt lat="52.269988" lon="-0.414714">
        <ele>39.383788</ele>
        <time>2024-07-06T10:38:12.000Z</time>
      </trkpt>
      <trkpt lat="52.267567" lon="-0.415708">
        <ele>40.064009</ele>
        <time>2024-07-06T10:38:40.000Z</time>
      </trkpt>
      <trkpt lat="52.266427" lon="-0.416396">
        <ele>40.193986</ele>
        <time>2024-07-06T10:38:54.000Z</time>
      </trkpt>
      <trkpt lat="52.263206" lon="-0.418568">
        <ele>39.464249</ele>
        <time>2024-07-06T10:39:33.000Z</time>
      </trkpt>
      <trkpt lat="52.262982" lon="-0.418721">
        <ele>39.43227</ele>
        <time>2024-07-06T10:39:36.000Z</time>
      </trkpt>
      <trkpt lat="52.262354" lon="-0.419143">
        <ele>39.660219</ele>
        <time>2024-07-06T10:39:44.000Z</time>
      </trkpt>
      <trkpt lat="52.26203" lon="-0.419391">
        <ele>39.775947</ele>
        <time>2024-07-06T10:39:48.000Z</time>
      </trkpt>
      <trkpt lat="52.261478" lon="-0.419823">
        <ele>39.980583</ele>
        <time>2024-07-06T10:39:55.000Z</time>
      </trkpt>
      <trkpt lat="52.261203" lon="-0.420029">
        <ele>40.128161</ele>
        <time>2024-07-06T10:39:58.000Z</time>
      </trkpt>
      <trkpt lat="52.260746" lon="-0.420495">
        <ele>40.456559</ele>
        <time>2024-07-06T10:40:04.000Z</time>
      </trkpt>
      <trkpt lat="52.260233" lon="-0.421669">
        <ele>40.99192</ele>
        <time>2024-07-06T10:40:14.000Z</time>
      </trkpt>
      <trkpt lat="52.259751" lon="-0.42253">
        <ele>41.731996</ele>
        <time>2024-07-06T10:40:22.000Z</time>
      </trkpt>
      <trkpt lat="52.259337" lon="-0.422962">
        <ele>42.343353</ele>
        <time>2024-07-06T10:40:27.000Z</time>
      </trkpt>
      <trkpt lat="52.258778" lon="-0.423321">
        <ele>43.078016</ele>
        <time>2024-07-06T10:40:34.000Z</time>
      </trkpt>
      <trkpt lat="52.257893" lon="-0.423413">
        <ele>44.908688</ele>
        <time>2024-07-06T10:40:44.000Z</time>
      </trkpt>
      <trkpt lat="52.257544" lon="-0.423571">
        <ele>45.690569</ele>
        <time>2024-07-06T10:40:48.000Z</time>
      </trkpt>
      <trkpt lat="52.257147" lon="-0.423955">
        <ele>46.738408</ele>
        <time>2024-07-06T10:40:53.000Z</time>
      </trkpt>
      <trkpt lat="52.256849" lon="-0.424261">
        <ele>47.604368</ele>
        <time>2024-07-06T10:40:57.000Z</time>
      </trkpt>
      <trkpt lat="52.256368" lon="-0.424844">
        <ele>49.528758</ele>
        <time>2024-07-06T10:41:04.000Z</time>
      </trkpt>
      <trkpt lat="52.256206" lon="-0.425044">
        <ele>50.185688</ele>
        <time>2024-07-06T10:41:06.000Z</time>
      </trkpt>
      <trkpt lat="52.255944" lon="-0.425229">
        <ele>51.079731</ele>
        <time>2024-07-06T10:41:09.000Z</time>
      </trkpt>
      <trkpt lat="52.25563" lon="-0.425264">
        <ele>52.041662</ele>
        <time>2024-07-06T10:41:13.000Z</time>
      </trkpt>
      <trkpt lat="52.254916" lon="-0.425155">
        <ele>54.534386</ele>
        <time>2024-07-06T10:41:21.000Z</time>
      </trkpt>
      <trkpt lat="52.253856" lon="-0.425595">
        <ele>58.432501</ele>
        <time>2024-07-06T10:41:33.000Z</time>
      </trkpt>
      <trkpt lat="52.253543" lon="-0.425639">
        <ele>59.514806</ele>
        <time>2024-07-06T10:41:36.000Z</time>
      </trkpt>
      <trkpt lat="52.253471" lon="-0.42566">
        <ele>59.792834</ele>
        <time>2024-07-06T10:41:37.000Z</time>
      </trkpt>
      <trkpt lat="52.253015" lon="-0.42551">
        <ele>61.445317</ele>
        <time>2024-07-06T10:41:42.000Z</time>
      </trkpt>
      <trkpt lat="52.25176" lon="-0.424727">
        <ele>65.944268</ele>
        <time>2024-07-06T10:41:57.000Z</time>
      </trkpt>
      <trkpt lat="52.251514" lon="-0.424574">
        <ele>66.002336</ele>
        <time>2024-07-06T10:42:00.000Z</time>
      </trkpt>
      <trkpt lat="52.250632" lon="-0.423883">
        <ele>66.221632</ele>
        <time>2024-07-06T10:42:11.000Z</time>
      </trkpt>
      <trkpt lat="52.250219" lon="-0.423444">
        <ele>66.271336</ele>
        <time>2024-07-06T10:42:16.000Z</time>
      </trkpt>
      <trkpt lat="52.250075" lon="-0.423306">
        <ele>65.901734</ele>
        <time>2024-07-06T10:42:18.000Z</time>
      </trkpt>
      <trkpt lat="52.249503" lon="-0.422721">
        <ele>64.323202</ele>
        <time>2024-07-06T10:42:26.000Z</time>
      </trkpt>
      <trkpt lat="52.248383" lon="-0.421906">
        <ele>61.933672</ele>
        <time>2024-07-06T10:42:40.000Z</time>
      </trkpt>
      <trkpt lat="52.248231" lon="-0.421771">
        <ele>61.791094</ele>
        <time>2024-07-06T10:42:42.000Z</time>
      </trkpt>
      <trkpt lat="52.247551" lon="-0.421254">
        <ele>61.201185</ele>
        <time>2024-07-06T10:42:50.000Z</time>
      </trkpt>
      <trkpt lat="52.245394" lon="-0.419509">
        <ele>62.032127</ele>
        <time>2024-07-06T10:43:17.000Z</time>
      </trkpt>
      <trkpt lat="52.24437" lon="-0.418551">
        <ele>64.637796</ele>
        <time>2024-07-06T10:43:30.000Z</time>
      </trkpt>
      <trkpt lat="52.244143" lon="-0.418341">
        <ele>65.202033</ele>
        <time>2024-07-06T10:43:33.000Z</time>
      </trkpt>
      <trkpt lat="52.243679" lon="-0.418187">
        <ele>66.25014</ele>
        <time>2024-07-06T10:43:38.000Z</time>
      </trkpt>
      <trkpt lat="52.242944" lon="-0.418074">
        <ele>67.979498</ele>
        <time>2024-07-06T10:43:46.000Z</time>
      </trkpt>
      <trkpt lat="52.242007" lon="-0.417587">
        <ele>70.314421</ele>
        <time>2024-07-06T10:43:57.000Z</time>
      </trkpt>
      <trkpt lat="52.241138" lon="-0.417231">
        <ele>72.360865</ele>
        <time>2024-07-06T10:44:07.000Z</time>
      </trkpt>
      <trkpt lat="52.240447" lon="-0.417144">
        <ele>73.98081</ele>
        <time>2024-07-06T10:44:15.000Z</time>
      </trkpt>
      <trkpt lat="52.238586" lon="-0.416445">
        <ele>77.753344</ele>
        <time>2024-07-06T10:44:36.000Z</time>
      </trkpt>
      <trkpt lat="52.238263" lon="-0.416251">
        <ele>78.000042</ele>
        <time>2024-07-06T10:44:40.000Z</time>
      </trkpt>
      <trkpt lat="52.237927" lon="-0.415846">
        <ele>78.216476</ele>
        <time>2024-07-06T10:44:45.000Z</time>
      </trkpt>
      <trkpt lat="52.237817" lon="-0.415558">
        <ele>78.323237</ele>
        <time>2024-07-06T10:44:47.000Z</time>
      </trkpt>
      <trkpt lat="52.237521" lon="-0.41515">
        <ele>78.517024</ele>
        <time>2024-07-06T10:44:51.000Z</time>
      </trkpt>
      <trkpt lat="52.237035" lon="-0.414733">
        <ele>78.725346</ele>
        <time>2024-07-06T10:44:57.000Z</time>
      </trkpt>
      <trkpt lat="52.236721" lon="-0.414505">
        <ele>78.561546</ele>
        <time>2024-07-06T10:45:01.000Z</time>
      </trkpt>
      <trkpt lat="52.235851" lon="-0.414221">
        <ele>78.142602</ele>
        <time>2024-07-06T10:45:11.000Z</time>
      </trkpt>
      <trkpt lat="52.235564" lon="-0.414029">
        <ele>78.000285</ele>
        <time>2024-07-06T10:45:14.000Z</time>
      </trkpt>
      <trkpt lat="52.235112" lon="-0.413408">
        <ele>77.781457</ele>
        <time>2024-07-06T10:45:21.000Z</time>
      </trkpt>
      <trkpt lat="52.234411" lon="-0.41208">
        <ele>77.434562</ele>
        <time>2024-07-06T10:45:33.000Z</time>
      </trkpt>
      <trkpt lat="52.233956" lon="-0.411695">
        <ele>77.261427</ele>
        <time>2024-07-06T10:45:39.000Z</time>
      </trkpt>
      <trkpt lat="52.233623" lon="-0.411554">
        <ele>77.128929</ele>
        <time>2024-07-06T10:45:43.000Z</time>
      </trkpt>
      <trkpt lat="52.23291" lon="-0.411484">
        <ele>76.865803</ele>
        <time>2024-07-06T10:45:51.000Z</time>
      </trkpt>
      <trkpt lat="52.231592" lon="-0.411834">
        <ele>76.165911</ele>
        <time>2024-07-06T10:46:06.000Z</time>
      </trkpt>
      <trkpt lat="52.231254" lon="-0.411861">
        <ele>75.952156</ele>
        <time>2024-07-06T10:46:10.000Z</time>
      </trkpt>
      <trkpt lat="52.231008" lon="-0.411809">
        <ele>75.798331</ele>
        <time>2024-07-06T10:46:13.000Z</time>
      </trkpt>
      <trkpt lat="52.230773" lon="-0.41163">
        <ele>75.630532</ele>
        <time>2024-07-06T10:46:16.000Z</time>
      </trkpt>
      <trkpt lat="52.230577" lon="-0.411195">
        <ele>75.467794</ele>
        <time>2024-07-06T10:46:20.000Z</time>
      </trkpt>
      <trkpt lat="52.23026" lon="-0.410217">
        <ele>75.241294</ele>
        <time>2024-07-06T10:46:28.000Z</time>
      </trkpt>
      <trkpt lat="52.229956" lon="-0.409535">
        <ele>75.067281</ele>
        <time>2024-07-06T10:46:34.000Z</time>
      </trkpt>
      <trkpt lat="52.22941" lon="-0.407931">
        <ele>75.076598</ele>
        <time>2024-07-06T10:46:46.000Z</time>
      </trkpt>
      <trkpt lat="52.229227" lon="-0.407777">
        <ele>75.122694</ele>
        <time>2024-07-06T10:46:48.000Z</time>
      </trkpt>
      <trkpt lat="52.229019" lon="-0.407879">
        <ele>75.17344</ele>
        <time>2024-07-06T10:46:50.000Z</time>
      </trkpt>
      <trkpt lat="52.228416" lon="-0.40864">
        <ele>75.378822</ele>
        <time>2024-07-06T10:46:58.000Z</time>
      </trkpt>
      <trkpt lat="52.227184" lon="-0.409863">
        <ele>76.314165</ele>
        <time>2024-07-06T10:47:14.000Z</time>
      </trkpt>
      <trkpt lat="52.226558" lon="-0.410195">
        <ele>76.662332</ele>
        <time>2024-07-06T10:47:21.000Z</time>
      </trkpt>
      <trkpt lat="52.226129" lon="-0.410323">
        <ele>76.846902</ele>
        <time>2024-07-06T10:47:26.000Z</time>
      </trkpt>
      <trkpt lat="52.225921" lon="-0.4103">
        <ele>76.935222</ele>
        <time>2024-07-06T10:47:28.000Z</time>
      </trkpt>
      <trkpt lat="52.225619" lon="-0.410207">
        <ele>77.061005</ele>
        <time>2024-07-06T10:47:31.000Z</time>
      </trkpt>
      <trkpt lat="52.224435" lon="-0.409941">
        <ele>77.312471</ele>
        <time>2024-07-06T10:47:44.000Z</time>
      </trkpt>
      <trkpt lat="52.223871" lon="-0.409768">
        <ele>77.347631</ele>
        <time>2024-07-06T10:47:50.000Z</time>
      </trkpt>
      <trkpt lat="52.22239" lon="-0.408981">
        <ele>77.565327</ele>
        <time>2024-07-06T10:48:07.000Z</time>
      </trkpt>
      <trkpt lat="52.22193" lon="-0.408847">
        <ele>77.649895</ele>
        <time>2024-07-06T10:48:12.000Z</time>
      </trkpt>
      <trkpt lat="52.221255" lon="-0.40872">
        <ele>77.753174</ele>
        <time>2024-07-06T10:48:20.000Z</time>
      </trkpt>
      <trkpt lat="52.220776" lon="-0.408648">
        <ele>77.8171</ele>
        <time>2024-07-06T10:48:25.000Z</time>
      </trkpt>
      <trkpt lat="52.21986" lon="-0.40847">
        <ele>77.938884</ele>
        <time>2024-07-06T10:48:35.000Z</time>
      </trkpt>
      <trkpt lat="52.219575" lon="-0.408504">
        <ele>77.887391</ele>
        <time>2024-07-06T10:48:38.000Z</time>
      </trkpt>
      <trkpt lat="52.217915" lon="-0.408966">
        <ele>77.573365</ele>
        <time>2024-07-06T10:48:57.000Z</time>
      </trkpt>
      <trkpt lat="52.217263" lon="-0.409116">
        <ele>77.422668</ele>
        <time>2024-07-06T10:49:04.000Z</time>
      </trkpt>
      <trkpt lat="52.217112" lon="-0.409143">
        <ele>77.387344</ele>
        <time>2024-07-06T10:49:06.000Z</time>
      </trkpt>
      <trkpt lat="52.216264" lon="-0.409211">
        <ele>77.196146</ele>
        <time>2024-07-06T10:49:15.000Z</time>
      </trkpt>
      <trkpt lat="52.2155" lon="-0.409051">
        <ele>77.032918</ele>
        <time>2024-07-06T10:49:24.000Z</time>
      </trkpt>
      <trkpt lat="52.214878" lon="-0.40899">
        <ele>76.902233</ele>
        <time>2024-07-06T10:49:31.000Z</time>
      </trkpt>
      <trkpt lat="52.214496" lon="-0.409027">
        <ele>76.825775</ele>
        <time>2024-07-06T10:49:35.000Z</time>
      </trkpt>
      <trkpt lat="52.213372" lon="-0.409378">
        <ele>76.843862</ele>
        <time>2024-07-06T10:49:48.000Z</time>
      </trkpt>
      <trkpt lat="52.212956" lon="-0.409308">
        <ele>76.850847</ele>
        <time>2024-07-06T10:49:53.000Z</time>
      </trkpt>
      <trkpt lat="52.212773" lon="-0.409179">
        <ele>76.853771</ele>
        <time>2024-07-06T10:49:55.000Z</time>
      </trkpt>
      <trkpt lat="52.212664" lon="-0.408969">
        <ele>76.86485</ele>
        <time>2024-07-06T10:49:57.000Z</time>
      </trkpt>
      <trkpt lat="52.211823" lon="-0.40577">
        <ele>77.03292</ele>
        <time>2024-07-06T10:50:21.000Z</time>
      </trkpt>
      <trkpt lat="52.211713" lon="-0.405551">
        <ele>77.050401</ele>
        <time>2024-07-06T10:50:23.000Z</time>
      </trkpt>
      <trkpt lat="52.21158" lon="-0.405422">
        <ele>77.067026</ele>
        <time>2024-07-06T10:50:25.000Z</time>
      </trkpt>
      <trkpt lat="52.210199" lon="-0.405275">
        <ele>77.176405</ele>
        <time>2024-07-06T10:50:40.000Z</time>
      </trkpt>
      <trkpt lat="52.208939" lon="-0.40527">
        <ele>77.209028</ele>
        <time>2024-07-06T10:50:54.000Z</time>
      </trkpt>
      <trkpt lat="52.206579" lon="-0.405714">
        <ele>77.072001</ele>
        <time>2024-07-06T10:51:20.000Z</time>
      </trkpt>
      <trkpt lat="52.206511" lon="-0.405719">
        <ele>77.04384</ele>
        <time>2024-07-06T10:51:21.000Z</time>
      </trkpt>
      <trkpt lat="52.205579" lon="-0.405842">
        <ele>76.68355</ele>
        <time>2024-07-06T10:51:31.000Z</time>
      </trkpt>
      <trkpt lat="52.204305" lon="-0.405877">
        <ele>75.68537</ele>
        <time>2024-07-06T10:51:45.000Z</time>
      </trkpt>
      <trkpt lat="52.20397" lon="-0.405961">
        <ele>75.356876</ele>
        <time>2024-07-06T10:51:49.000Z</time>
      </trkpt>
      <trkpt lat="52.20322" lon="-0.407387">
        <ele>73.559057</ele>
        <time>2024-07-06T10:52:02.000Z</time>
      </trkpt>
      <trkpt lat="52.202546" lon="-0.408958">
        <ele>71.055523</ele>
        <time>2024-07-06T10:52:15.000Z</time>
      </trkpt>
      <trkpt lat="52.202341" lon="-0.409258">
        <ele>70.043792</ele>
        <time>2024-07-06T10:52:18.000Z</time>
      </trkpt>
      <trkpt lat="52.200931" lon="-0.41089">
        <ele>63.678438</ele>
        <time>2024-07-06T10:52:37.000Z</time>
      </trkpt>
      <trkpt lat="52.199977" lon="-0.412501">
        <ele>59.304337</ele>
        <time>2024-07-06T10:52:52.000Z</time>
      </trkpt>
      <trkpt lat="52.199103" lon="-0.413749">
        <ele>57.061598</ele>
        <time>2024-07-06T10:53:05.000Z</time>
      </trkpt>
      <trkpt lat="52.198915" lon="-0.413889">
        <ele>56.729773</ele>
        <time>2024-07-06T10:53:07.000Z</time>
      </trkpt>
      <trkpt lat="52.198657" lon="-0.413967">
        <ele>56.312707</ele>
        <time>2024-07-06T10:53:10.000Z</time>
      </trkpt>
      <trkpt lat="52.198269" lon="-0.413926">
        <ele>55.655463</ele>
        <time>2024-07-06T10:53:14.000Z</time>
      </trkpt>
      <trkpt lat="52.19776" lon="-0.413901">
        <ele>56.253815</ele>
        <time>2024-07-06T10:53:20.000Z</time>
      </trkpt>
      <trkpt lat="52.197418" lon="-0.414103">
        <ele>56.709102</ele>
        <time>2024-07-06T10:53:24.000Z</time>
      </trkpt>
      <trkpt lat="52.196971" lon="-0.414734">
        <ele>57.427639</ele>
        <time>2024-07-06T10:53:31.000Z</time>
      </trkpt>
      <trkpt lat="52.196087" lon="-0.415762">
        <ele>60.601506</ele>
        <time>2024-07-06T10:53:43.000Z</time>
      </trkpt>
      <trkpt lat="52.194675" lon="-0.417841">
        <ele>67.307444</ele>
        <time>2024-07-06T10:54:04.000Z</time>
      </trkpt>
      <trkpt lat="52.194106" lon="-0.418823">
        <ele>70.119205</ele>
        <time>2024-07-06T10:54:13.000Z</time>
      </trkpt>
      <trkpt lat="52.194012" lon="-0.419022">
        <ele>70.589856</ele>
        <time>2024-07-06T10:54:15.000Z</time>
      </trkpt>
      <trkpt lat="52.193419" lon="-0.419847">
        <ele>71.74104</ele>
        <time>2024-07-06T10:54:24.000Z</time>
      </trkpt>
      <trkpt lat="52.19312" lon="-0.42036">
        <ele>72.395894</ele>
        <time>2024-07-06T10:54:29.000Z</time>
      </trkpt>
      <trkpt lat="52.192797" lon="-0.420924">
        <ele>73.090064</ele>
        <time>2024-07-06T10:54:34.000Z</time>
      </trkpt>
      <trkpt lat="52.192715" lon="-0.421205">
        <ele>73.342784</ele>
        <time>2024-07-06T10:54:36.000Z</time>
      </trkpt>
      <trkpt lat="52.192619" lon="-0.421499">
        <ele>73.537104</ele>
        <time>2024-07-06T10:54:38.000Z</time>
      </trkpt>
      <trkpt lat="52.192572" lon="-0.422379">
        <ele>74.069464</ele>
        <time>2024-07-06T10:54:44.000Z</time>
      </trkpt>
      <trkpt lat="52.192338" lon="-0.423357">
        <ele>74.709646</ele>
        <time>2024-07-06T10:54:51.000Z</time>
      </trkpt>
      <trkpt lat="52.192002" lon="-0.423959">
        <ele>75.110931</ele>
        <time>2024-07-06T10:54:57.000Z</time>
      </trkpt>
      <trkpt lat="52.191207" lon="-0.425008">
        <ele>75.610338</ele>
        <time>2024-07-06T10:55:08.000Z</time>
      </trkpt>
      <trkpt lat="52.190836" lon="-0.426314">
        <ele>75.916898</ele>
        <time>2024-07-06T10:55:18.000Z</time>
      </trkpt>
      <trkpt lat="52.189757" lon="-0.429001">
        <ele>75.826455</ele>
        <time>2024-07-06T10:55:40.000Z</time>
      </trkpt>
      <trkpt lat="52.189361" lon="-0.430463">
        <ele>75.494968</ele>
        <time>2024-07-06T10:55:51.000Z</time>
      </trkpt>
      <trkpt lat="52.188994" lon="-0.430985">
        <ele>75.258168</ele>
        <time>2024-07-06T10:55:56.000Z</time>
      </trkpt>
      <trkpt lat="52.187872" lon="-0.431407">
        <ele>74.26327</ele>
        <time>2024-07-06T10:56:09.000Z</time>
      </trkpt>
      <trkpt lat="52.18748" lon="-0.431561">
        <ele>73.922414</ele>
        <time>2024-07-06T10:56:13.000Z</time>
      </trkpt>
      <trkpt lat="52.187195" lon="-0.431882">
        <ele>73.507781</ele>
        <time>2024-07-06T10:56:17.000Z</time>
      </trkpt>
      <trkpt lat="52.186142" lon="-0.433107">
        <ele>71.772255</ele>
        <time>2024-07-06T10:56:31.000Z</time>
      </trkpt>
      <trkpt lat="52.185419" lon="-0.433836">
        <ele>70.093134</ele>
        <time>2024-07-06T10:56:40.000Z</time>
      </trkpt>
      <trkpt lat="52.184262" lon="-0.435015">
        <ele>66.79618</ele>
        <time>2024-07-06T10:56:55.000Z</time>
      </trkpt>
      <trkpt lat="52.183217" lon="-0.436088">
        <ele>62.471718</ele>
        <time>2024-07-06T10:57:09.000Z</time>
      </trkpt>
      <trkpt lat="52.182681" lon="-0.436636">
        <ele>59.876335</ele>
        <time>2024-07-06T10:57:16.000Z</time>
      </trkpt>
      <trkpt lat="52.182265" lon="-0.437057">
        <ele>57.319093</ele>
        <time>2024-07-06T10:57:21.000Z</time>
      </trkpt>
      <trkpt lat="52.182017" lon="-0.437329">
        <ele>55.794692</ele>
        <time>2024-07-06T10:57:24.000Z</time>
      </trkpt>
      <trkpt lat="52.180258" lon="-0.43955">
        <ele>45.437645</ele>
        <time>2024-07-06T10:57:49.000Z</time>
      </trkpt>
      <trkpt lat="52.179868" lon="-0.44007">
        <ele>43.815136</ele>
        <time>2024-07-06T10:57:55.000Z</time>
      </trkpt>
      <trkpt lat="52.179071" lon="-0.441014">
        <ele>43.835481</ele>
        <time>2024-07-06T10:58:06.000Z</time>
      </trkpt>
      <trkpt lat="52.178158" lon="-0.442115">
        <ele>44.670402</ele>
        <time>2024-07-06T10:58:19.000Z</time>
      </trkpt>
      <trkpt lat="52.177711" lon="-0.44262">
        <ele>45.63868</ele>
        <time>2024-07-06T10:58:25.000Z</time>
      </trkpt>
      <trkpt lat="52.177627" lon="-0.442714">
        <ele>45.820469</ele>
        <time>2024-07-06T10:58:26.000Z</time>
      </trkpt>
      <trkpt lat="52.175504" lon="-0.444619">
        <ele>51.246606</ele>
        <time>2024-07-06T10:58:53.000Z</time>
      </trkpt>
      <trkpt lat="52.174873" lon="-0.445135">
        <ele>53.837361</ele>
        <time>2024-07-06T10:59:01.000Z</time>
      </trkpt>
      <trkpt lat="52.174119" lon="-0.445789">
        <ele>57.128186</ele>
        <time>2024-07-06T10:59:11.000Z</time>
      </trkpt>
      <trkpt lat="52.173468" lon="-0.446484">
        <ele>60.162004</ele>
        <time>2024-07-06T10:59:20.000Z</time>
      </trkpt>
      <trkpt lat="52.172632" lon="-0.447728">
        <ele>64.621325</ele>
        <time>2024-07-06T10:59:33.000Z</time>
      </trkpt>
      <trkpt lat="52.172193" lon="-0.448321">
        <ele>66.070194</ele>
        <time>2024-07-06T10:59:39.000Z</time>
      </trkpt>
      <trkpt lat="52.171916" lon="-0.448691">
        <ele>66.731352</ele>
        <time>2024-07-06T10:59:43.000Z</time>
      </trkpt>
      <trkpt lat="52.171465" lon="-0.449405">
        <ele>67.855328</ele>
        <time>2024-07-06T10:59:50.000Z</time>
      </trkpt>
      <trkpt lat="52.171312" lon="-0.449716">
        <ele>68.300813</ele>
        <time>2024-07-06T10:59:53.000Z</time>
      </trkpt>
      <trkpt lat="52.171219" lon="-0.44986">
        <ele>68.527305</ele>
        <time>2024-07-06T10:59:54.000Z</time>
      </trkpt>
      <trkpt lat="52.171099" lon="-0.44983">
        <ele>68.60733</ele>
        <time>2024-07-06T10:59:55.000Z</time>
      </trkpt>
      <trkpt lat="52.171019" lon="-0.449977">
        <ele>68.497998</ele>
        <time>2024-07-06T10:59:56.000Z</time>
      </trkpt>
      <trkpt lat="52.171018" lon="-0.450035">
        <ele>68.460279</ele>
        <time>2024-07-06T10:59:56.000Z</time>
      </trkpt>
      <trkpt lat="52.171036" lon="-0.450084">
        <ele>68.430143</ele>
        <time>2024-07-06T10:59:56.000Z</time>
      </trkpt>
      <trkpt lat="52.171072" lon="-0.450201">
        <ele>68.351013</ele>
        <time>2024-07-06T10:59:57.000Z</time>
      </trkpt>
      <trkpt lat="52.171168" lon="-0.450215">
        <ele>68.264568</ele>
        <time>2024-07-06T10:59:58.000Z</time>
      </trkpt>
      <trkpt lat="52.171194" lon="-0.450199">
        <ele>68.242041</ele>
        <time>2024-07-06T10:59:58.000Z</time>
      </trkpt>
      <trkpt lat="52.171217" lon="-0.450182">
        <ele>68.22085</ele>
        <time>2024-07-06T10:59:58.000Z</time>
      </trkpt>
      <trkpt lat="52.171269" lon="-0.450034">
        <ele>68.131339</ele>
        <time>2024-07-06T10:59:59.000Z</time>
      </trkpt>
      <trkpt lat="52.171244" lon="-0.449909">
        <ele>68.055707</ele>
        <time>2024-07-06T11:00:00.000Z</time>
      </trkpt>
      <trkpt lat="52.171301" lon="-0.449705">
        <ele>67.935033</ele>
        <time>2024-07-06T11:00:02.000Z</time>
      </trkpt>
      <trkpt lat="52.171477" lon="-0.449405">
        <ele>67.711894</ele>
        <time>2024-07-06T11:00:05.000Z</time>
      </trkpt>
      <trkpt lat="52.171916" lon="-0.448684">
        <ele>67.148899</ele>
        <time>2024-07-06T11:00:12.000Z</time>
      </trkpt>
      <trkpt lat="52.172643" lon="-0.447732">
        <ele>64.310377</ele>
        <time>2024-07-06T11:00:22.000Z</time>
      </trkpt>
      <trkpt lat="52.173476" lon="-0.446493">
        <ele>60.367771</ele>
        <time>2024-07-06T11:00:35.000Z</time>
      </trkpt>
      <trkpt lat="52.174124" lon="-0.445786">
        <ele>57.121287</ele>
        <time>2024-07-06T11:00:44.000Z</time>
      </trkpt>
      <trkpt lat="52.174881" lon="-0.445133">
        <ele>53.545465</ele>
        <time>2024-07-06T11:00:54.000Z</time>
      </trkpt>
      <trkpt lat="52.175509" lon="-0.444611">
        <ele>51.540629</ele>
        <time>2024-07-06T11:01:02.000Z</time>
      </trkpt>
      <trkpt lat="52.17763" lon="-0.442722">
        <ele>45.781029</ele>
        <time>2024-07-06T11:01:29.000Z</time>
      </trkpt>
      <trkpt lat="52.177702" lon="-0.442624">
        <ele>45.576321</ele>
        <time>2024-07-06T11:01:30.000Z</time>
      </trkpt>
      <trkpt lat="52.178159" lon="-0.442119">
        <ele>44.63835</ele>
        <time>2024-07-06T11:01:36.000Z</time>
      </trkpt>
      <trkpt lat="52.179075" lon="-0.441012">
        <ele>43.553261</ele>
        <time>2024-07-06T11:01:49.000Z</time>
      </trkpt>
      <trkpt lat="52.179868" lon="-0.440059">
        <ele>44.442052</ele>
        <time>2024-07-06T11:02:00.000Z</time>
      </trkpt>
      <trkpt lat="52.180265" lon="-0.439545">
        <ele>45.966554</ele>
        <time>2024-07-06T11:02:06.000Z</time>
      </trkpt>
      <trkpt lat="52.182033" lon="-0.437333">
        <ele>55.917638</ele>
        <time>2024-07-06T11:02:31.000Z</time>
      </trkpt>
      <trkpt lat="52.18227" lon="-0.437067">
        <ele>57.483586</ele>
        <time>2024-07-06T11:02:34.000Z</time>
      </trkpt>
      <trkpt lat="52.18269" lon="-0.436651">
        <ele>59.661981</ele>
        <time>2024-07-06T11:02:39.000Z</time>
      </trkpt>
      <trkpt lat="52.183221" lon="-0.436091">
        <ele>62.31162</ele>
        <time>2024-07-06T11:02:46.000Z</time>
      </trkpt>
      <trkpt lat="52.184264" lon="-0.435019">
        <ele>66.746272</ele>
        <time>2024-07-06T11:03:00.000Z</time>
      </trkpt>
      <trkpt lat="52.185415" lon="-0.433843">
        <ele>70.269842</ele>
        <time>2024-07-06T11:03:15.000Z</time>
      </trkpt>
      <trkpt lat="52.186155" lon="-0.433109">
        <ele>71.647935</ele>
        <time>2024-07-06T11:03:25.000Z</time>
      </trkpt>
      <trkpt lat="52.187206" lon="-0.431883">
        <ele>73.502718</ele>
        <time>2024-07-06T11:03:39.000Z</time>
      </trkpt>
      <trkpt lat="52.187483" lon="-0.431563">
        <ele>73.850383</ele>
        <time>2024-07-06T11:03:43.000Z</time>
      </trkpt>
      <trkpt lat="52.187868" lon="-0.431408">
        <ele>74.246408</ele>
        <time>2024-07-06T11:03:47.000Z</time>
      </trkpt>
      <trkpt lat="52.188999" lon="-0.430993">
        <ele>75.188064</ele>
        <time>2024-07-06T11:04:00.000Z</time>
      </trkpt>
      <trkpt lat="52.189374" lon="-0.430466">
        <ele>75.454093</ele>
        <time>2024-07-06T11:04:06.000Z</time>
      </trkpt>
      <trkpt lat="52.189756" lon="-0.429001">
        <ele>75.913052</ele>
        <time>2024-07-06T11:04:17.000Z</time>
      </trkpt>
      <trkpt lat="52.190832" lon="-0.426307">
        <ele>75.890391</ele>
        <time>2024-07-06T11:04:39.000Z</time>
      </trkpt>
      <trkpt lat="52.191217" lon="-0.425001">
        <ele>75.634709</ele>
        <time>2024-07-06T11:04:49.000Z</time>
      </trkpt>
      <trkpt lat="52.192" lon="-0.423957">
        <ele>75.087707</ele>
        <time>2024-07-06T11:05:00.000Z</time>
      </trkpt>
      <trkpt lat="52.192327" lon="-0.423353">
        <ele>74.62599</ele>
        <time>2024-07-06T11:05:05.000Z</time>
      </trkpt>
      <trkpt lat="52.192565" lon="-0.422364">
        <ele>74.031187</ele>
        <time>2024-07-06T11:05:12.000Z</time>
      </trkpt>
      <trkpt lat="52.192624" lon="-0.421503">
        <ele>73.47287</ele>
        <time>2024-07-06T11:05:18.000Z</time>
      </trkpt>
      <trkpt lat="52.192709" lon="-0.421206">
        <ele>73.250492</ele>
        <time>2024-07-06T11:05:20.000Z</time>
      </trkpt>
      <trkpt lat="52.192815" lon="-0.420918">
        <ele>73.019278</ele>
        <time>2024-07-06T11:05:22.000Z</time>
      </trkpt>
      <trkpt lat="52.193121" lon="-0.420359">
        <ele>72.494436</ele>
        <time>2024-07-06T11:05:27.000Z</time>
      </trkpt>
      <trkpt lat="52.193429" lon="-0.419839">
        <ele>71.999314</ele>
        <time>2024-07-06T11:05:32.000Z</time>
      </trkpt>
      <trkpt lat="52.194004" lon="-0.41903">
        <ele>70.211704</ele>
        <time>2024-07-06T11:05:40.000Z</time>
      </trkpt>
      <trkpt lat="52.194108" lon="-0.418825">
        <ele>69.790515</ele>
        <time>2024-07-06T11:05:42.000Z</time>
      </trkpt>
      <trkpt lat="52.194688" lon="-0.41784">
        <ele>67.502655</ele>
        <time>2024-07-06T11:05:51.000Z</time>
      </trkpt>
      <trkpt lat="52.196081" lon="-0.415768">
        <ele>60.357846</ele>
        <time>2024-07-06T11:06:12.000Z</time>
      </trkpt>
      <trkpt lat="52.196971" lon="-0.414736">
        <ele>57.618869</ele>
        <time>2024-07-06T11:06:24.000Z</time>
      </trkpt>
      <trkpt lat="52.19742" lon="-0.414104">
        <ele>56.285355</ele>
        <time>2024-07-06T11:06:31.000Z</time>
      </trkpt>
      <trkpt lat="52.197757" lon="-0.413907">
        <ele>55.77905</ele>
        <time>2024-07-06T11:06:35.000Z</time>
      </trkpt>
      <trkpt lat="52.198262" lon="-0.413919">
        <ele>56.203362</ele>
        <time>2024-07-06T11:06:41.000Z</time>
      </trkpt>
      <trkpt lat="52.19867" lon="-0.41397">
        <ele>56.546211</ele>
        <time>2024-07-06T11:06:46.000Z</time>
      </trkpt>
      <trkpt lat="52.198925" lon="-0.413887">
        <ele>56.76377</ele>
        <time>2024-07-06T11:06:49.000Z</time>
      </trkpt>
      <trkpt lat="52.199105" lon="-0.413745">
        <ele>56.936875</ele>
        <time>2024-07-06T11:06:51.000Z</time>
      </trkpt>
      <trkpt lat="52.199971" lon="-0.412513">
        <ele>59.478772</ele>
        <time>2024-07-06T11:07:04.000Z</time>
      </trkpt>
      <trkpt lat="52.200932" lon="-0.410881">
        <ele>63.683791</ele>
        <time>2024-07-06T11:07:19.000Z</time>
      </trkpt>
      <trkpt lat="52.202343" lon="-0.409266">
        <ele>69.88967</ele>
        <time>2024-07-06T11:07:38.000Z</time>
      </trkpt>
      <trkpt lat="52.202552" lon="-0.408968">
        <ele>70.658441</ele>
        <time>2024-07-06T11:07:41.000Z</time>
      </trkpt>
      <trkpt lat="52.203226" lon="-0.40739">
        <ele>73.917297</ele>
        <time>2024-07-06T11:07:54.000Z</time>
      </trkpt>
      <trkpt lat="52.203969" lon="-0.405967">
        <ele>75.283223</ele>
        <time>2024-07-06T11:08:07.000Z</time>
      </trkpt>
      <trkpt lat="52.204306" lon="-0.40588">
        <ele>75.6968</ele>
        <time>2024-07-06T11:08:11.000Z</time>
      </trkpt>
      <trkpt lat="52.205588" lon="-0.405838">
        <ele>76.644998</ele>
        <time>2024-07-06T11:08:25.000Z</time>
      </trkpt>
      <trkpt lat="52.206499" lon="-0.40572">
        <ele>77.151024</ele>
        <time>2024-07-06T11:08:35.000Z</time>
      </trkpt>
      <trkpt lat="52.20658" lon="-0.405702">
        <ele>77.154433</ele>
        <time>2024-07-06T11:08:36.000Z</time>
      </trkpt>
      <trkpt lat="52.208929" lon="-0.405271">
        <ele>77.214553</ele>
        <time>2024-07-06T11:09:02.000Z</time>
      </trkpt>
      <trkpt lat="52.210198" lon="-0.405277">
        <ele>77.173309</ele>
        <time>2024-07-06T11:09:16.000Z</time>
      </trkpt>
      <trkpt lat="52.211566" lon="-0.405418">
        <ele>77.061714</ele>
        <time>2024-07-06T11:09:31.000Z</time>
      </trkpt>
      <trkpt lat="52.211724" lon="-0.405534">
        <ele>77.048333</ele>
        <time>2024-07-06T11:09:33.000Z</time>
      </trkpt>
      <trkpt lat="52.211818" lon="-0.40577">
        <ele>77.034695</ele>
        <time>2024-07-06T11:09:35.000Z</time>
      </trkpt>
      <trkpt lat="52.212666" lon="-0.408976">
        <ele>76.877863</ele>
        <time>2024-07-06T11:09:59.000Z</time>
      </trkpt>
      <trkpt lat="52.212777" lon="-0.409187">
        <ele>76.867458</ele>
        <time>2024-07-06T11:10:01.000Z</time>
      </trkpt>
      <trkpt lat="52.212953" lon="-0.409322">
        <ele>76.856911</ele>
        <time>2024-07-06T11:10:03.000Z</time>
      </trkpt>
      <trkpt lat="52.213384" lon="-0.409378">
        <ele>76.831645</ele>
        <time>2024-07-06T11:10:08.000Z</time>
      </trkpt>
      <trkpt lat="52.214498" lon="-0.409032">
        <ele>76.879405</ele>
        <time>2024-07-06T11:10:21.000Z</time>
      </trkpt>
      <trkpt lat="52.214874" lon="-0.408992">
        <ele>76.931849</ele>
        <time>2024-07-06T11:10:25.000Z</time>
      </trkpt>
      <trkpt lat="52.215486" lon="-0.409065">
        <ele>77.016678</ele>
        <time>2024-07-06T11:10:32.000Z</time>
      </trkpt>
      <trkpt lat="52.216273" lon="-0.409214">
        <ele>77.183472</ele>
        <time>2024-07-06T11:10:41.000Z</time>
      </trkpt>
      <trkpt lat="52.2171" lon="-0.409132">
        <ele>77.38836</ele>
        <time>2024-07-06T11:10:50.000Z</time>
      </trkpt>
      <trkpt lat="52.21726" lon="-0.409102">
        <ele>77.426073</ele>
        <time>2024-07-06T11:10:52.000Z</time>
      </trkpt>
      <trkpt lat="52.217914" lon="-0.408958">
        <ele>77.570536</ele>
        <time>2024-07-06T11:10:59.000Z</time>
      </trkpt>
      <trkpt lat="52.219576" lon="-0.408501">
        <ele>77.852261</ele>
        <time>2024-07-06T11:11:18.000Z</time>
      </trkpt>
      <trkpt lat="52.219875" lon="-0.40848">
        <ele>77.852917</ele>
        <time>2024-07-06T11:11:21.000Z</time>
      </trkpt>
      <trkpt lat="52.220784" lon="-0.40864">
        <ele>77.854972</ele>
        <time>2024-07-06T11:11:31.000Z</time>
      </trkpt>
      <trkpt lat="52.221254" lon="-0.408729">
        <ele>77.810157</ele>
        <time>2024-07-06T11:11:36.000Z</time>
      </trkpt>
      <trkpt lat="52.221923" lon="-0.408839">
        <ele>77.655741</ele>
        <time>2024-07-06T11:11:43.000Z</time>
      </trkpt>
      <trkpt lat="52.222388" lon="-0.408973">
        <ele>77.548333</ele>
        <time>2024-07-06T11:11:48.000Z</time>
      </trkpt>
      <trkpt lat="52.22387" lon="-0.409772">
        <ele>77.373154</ele>
        <time>2024-07-06T11:12:05.000Z</time>
      </trkpt>
      <trkpt lat="52.224435" lon="-0.409942">
        <ele>77.334314</ele>
        <time>2024-07-06T11:12:11.000Z</time>
      </trkpt>
      <trkpt lat="52.225636" lon="-0.410195">
        <ele>77.043111</ele>
        <time>2024-07-06T11:12:24.000Z</time>
      </trkpt>
      <trkpt lat="52.225922" lon="-0.410301">
        <ele>76.966439</ele>
        <time>2024-07-06T11:12:27.000Z</time>
      </trkpt>
      <trkpt lat="52.226124" lon="-0.410323">
        <ele>76.912602</ele>
        <time>2024-07-06T11:12:29.000Z</time>
      </trkpt>
      <trkpt lat="52.226557" lon="-0.410197">
        <ele>76.712872</ele>
        <time>2024-07-06T11:12:34.000Z</time>
      </trkpt>
      <trkpt lat="52.227178" lon="-0.409867">
        <ele>76.276763</ele>
        <time>2024-07-06T11:12:41.000Z</time>
      </trkpt>
      <trkpt lat="52.228423" lon="-0.408634">
        <ele>75.465925</ele>
        <time>2024-07-06T11:12:57.000Z</time>
      </trkpt>
      <trkpt lat="52.229036" lon="-0.407868">
        <ele>75.157143</ele>
        <time>2024-07-06T11:13:06.000Z</time>
      </trkpt>
      <trkpt lat="52.229229" lon="-0.407767">
        <ele>75.069482</ele>
        <time>2024-07-06T11:13:08.000Z</time>
      </trkpt>
      <trkpt lat="52.229406" lon="-0.407939">
        <ele>74.989851</ele>
        <time>2024-07-06T11:13:10.000Z</time>
      </trkpt>
      <trkpt lat="52.229959" lon="-0.409526">
        <ele>75.094447</ele>
        <time>2024-07-06T11:13:22.000Z</time>
      </trkpt>
      <trkpt lat="52.230245" lon="-0.410218">
        <ele>75.161879</ele>
        <time>2024-07-06T11:13:28.000Z</time>
      </trkpt>
      <trkpt lat="52.230562" lon="-0.411184">
        <ele>75.458629</ele>
        <time>2024-07-06T11:13:35.000Z</time>
      </trkpt>
      <trkpt lat="52.23078" lon="-0.411628">
        <ele>75.666338</ele>
        <time>2024-07-06T11:13:39.000Z</time>
      </trkpt>
      <trkpt lat="52.231025" lon="-0.411814">
        <ele>75.83038</ele>
        <time>2024-07-06T11:13:42.000Z</time>
      </trkpt>
      <trkpt lat="52.231263" lon="-0.411869">
        <ele>75.980749</ele>
        <time>2024-07-06T11:13:45.000Z</time>
      </trkpt>
      <trkpt lat="52.2316" lon="-0.411839">
        <ele>76.189703</ele>
        <time>2024-07-06T11:13:49.000Z</time>
      </trkpt>
      <trkpt lat="52.232906" lon="-0.411481">
        <ele>76.859969</ele>
        <time>2024-07-06T11:14:04.000Z</time>
      </trkpt>
      <trkpt lat="52.233611" lon="-0.411562">
        <ele>77.187901</ele>
        <time>2024-07-06T11:14:12.000Z</time>
      </trkpt>
      <trkpt lat="52.233948" lon="-0.411685">
        <ele>77.286805</ele>
        <time>2024-07-06T11:14:16.000Z</time>
      </trkpt>
      <trkpt lat="52.234401" lon="-0.412085">
        <ele>77.428729</ele>
        <time>2024-07-06T11:14:22.000Z</time>
      </trkpt>
      <trkpt lat="52.235122" lon="-0.413408">
        <ele>77.768078</ele>
        <time>2024-07-06T11:14:34.000Z</time>
      </trkpt>
      <trkpt lat="52.235559" lon="-0.414038">
        <ele>78.046929</ele>
        <time>2024-07-06T11:14:40.000Z</time>
      </trkpt>
      <trkpt lat="52.235849" lon="-0.414223">
        <ele>78.188935</ele>
        <time>2024-07-06T11:14:43.000Z</time>
      </trkpt>
      <trkpt lat="52.236722" lon="-0.414509">
        <ele>78.521731</ele>
        <time>2024-07-06T11:14:53.000Z</time>
      </trkpt>
      <trkpt lat="52.237044" lon="-0.414727">
        <ele>78.522247</ele>
        <time>2024-07-06T11:14:57.000Z</time>
      </trkpt>
      <trkpt lat="52.237521" lon="-0.415138">
        <ele>78.52305</ele>
        <time>2024-07-06T11:15:03.000Z</time>
      </trkpt>
      <trkpt lat="52.23782" lon="-0.415553">
        <ele>78.523615</ele>
        <time>2024-07-06T11:15:07.000Z</time>
      </trkpt>
      <trkpt lat="52.237918" lon="-0.415844">
        <ele>78.523919</ele>
        <time>2024-07-06T11:15:09.000Z</time>
      </trkpt>
      <trkpt lat="52.238262" lon="-0.416262">
        <ele>78.043983</ele>
        <time>2024-07-06T11:15:14.000Z</time>
      </trkpt>
      <trkpt lat="52.238597" lon="-0.416452">
        <ele>77.481841</ele>
        <time>2024-07-06T11:15:18.000Z</time>
      </trkpt>
      <trkpt lat="52.240438" lon="-0.417134">
        <ele>73.928896</ele>
        <time>2024-07-06T11:15:39.000Z</time>
      </trkpt>
      <trkpt lat="52.241137" lon="-0.417222">
        <ele>72.333633</ele>
        <time>2024-07-06T11:15:47.000Z</time>
      </trkpt>
      <trkpt lat="52.241995" lon="-0.417598">
        <ele>70.306916</ele>
        <time>2024-07-06T11:15:57.000Z</time>
      </trkpt>
      <trkpt lat="52.242956" lon="-0.418077">
        <ele>68.026597</ele>
        <time>2024-07-06T11:16:08.000Z</time>
      </trkpt>
      <trkpt lat="52.243678" lon="-0.418191">
        <ele>66.277916</ele>
        <time>2024-07-06T11:16:16.000Z</time>
      </trkpt>
      <trkpt lat="52.244133" lon="-0.418339">
        <ele>65.138406</ele>
        <time>2024-07-06T11:16:21.000Z</time>
      </trkpt>
      <trkpt lat="52.24436" lon="-0.41856">
        <ele>64.510811</ele>
        <time>2024-07-06T11:16:24.000Z</time>
      </trkpt>
      <trkpt lat="52.245404" lon="-0.419521">
        <ele>62.369691</ele>
        <time>2024-07-06T11:16:37.000Z</time>
      </trkpt>
      <trkpt lat="52.247549" lon="-0.421247">
        <ele>61.120461</ele>
        <time>2024-07-06T11:17:04.000Z</time>
      </trkpt>
      <trkpt lat="52.248233" lon="-0.42178">
        <ele>61.470124</ele>
        <time>2024-07-06T11:17:12.000Z</time>
      </trkpt>
      <trkpt lat="52.248383" lon="-0.421893">
        <ele>61.850355</ele>
        <time>2024-07-06T11:17:14.000Z</time>
      </trkpt>
      <trkpt lat="52.249502" lon="-0.422727">
        <ele>64.438992</ele>
        <time>2024-07-06T11:17:28.000Z</time>
      </trkpt>
      <trkpt lat="52.250089" lon="-0.423309">
        <ele>65.463097</ele>
        <time>2024-07-06T11:17:36.000Z</time>
      </trkpt>
      <trkpt lat="52.250223" lon="-0.42344">
        <ele>65.640414</ele>
        <time>2024-07-06T11:17:38.000Z</time>
      </trkpt>
      <trkpt lat="52.250643" lon="-0.423872">
        <ele>66.19449</ele>
        <time>2024-07-06T11:17:44.000Z</time>
      </trkpt>
      <trkpt lat="52.25152" lon="-0.424586">
        <ele>66.280044</ele>
        <time>2024-07-06T11:17:55.000Z</time>
      </trkpt>
      <trkpt lat="52.251753" lon="-0.424723">
        <ele>65.543821</ele>
        <time>2024-07-06T11:17:58.000Z</time>
      </trkpt>
      <trkpt lat="52.253027" lon="-0.42551">
        <ele>61.641098</ele>
        <time>2024-07-06T11:18:13.000Z</time>
      </trkpt>
      <trkpt lat="52.253472" lon="-0.425647">
        <ele>59.896394</ele>
        <time>2024-07-06T11:18:18.000Z</time>
      </trkpt>
      <trkpt lat="52.253549" lon="-0.425644">
        <ele>59.602888</ele>
        <time>2024-07-06T11:18:19.000Z</time>
      </trkpt>
      <trkpt lat="52.253848" lon="-0.425593">
        <ele>58.46766</ele>
        <time>2024-07-06T11:18:22.000Z</time>
      </trkpt>
      <trkpt lat="52.254913" lon="-0.425159">
        <ele>54.469105</ele>
        <time>2024-07-06T11:18:34.000Z</time>
      </trkpt>
      <trkpt lat="52.255628" lon="-0.425278">
        <ele>52.053187</ele>
        <time>2024-07-06T11:18:42.000Z</time>
      </trkpt>
      <trkpt lat="52.255933" lon="-0.425213">
        <ele>51.053157</ele>
        <time>2024-07-06T11:18:45.000Z</time>
      </trkpt>
      <trkpt lat="52.256208" lon="-0.425047">
        <ele>50.123695</ele>
        <time>2024-07-06T11:18:48.000Z</time>
      </trkpt>
      <trkpt lat="52.256369" lon="-0.42484">
        <ele>49.440771</ele>
        <time>2024-07-06T11:18:50.000Z</time>
      </trkpt>
      <trkpt lat="52.256858" lon="-0.424262">
        <ele>47.779047</ele>
        <time>2024-07-06T11:18:57.000Z</time>
      </trkpt>
      <trkpt lat="52.257158" lon="-0.423958">
        <ele>46.842147</ele>
        <time>2024-07-06T11:19:01.000Z</time>
      </trkpt>
      <trkpt lat="52.257557" lon="-0.423567">
        <ele>45.616275</ele>
        <time>2024-07-06T11:19:06.000Z</time>
      </trkpt>
      <trkpt lat="52.257882" lon="-0.423412">
        <ele>44.701567</ele>
        <time>2024-07-06T11:19:10.000Z</time>
      </trkpt>
      <trkpt lat="52.258765" lon="-0.423333">
        <ele>43.227794</ele>
        <time>2024-07-06T11:19:20.000Z</time>
      </trkpt>
      <trkpt lat="52.259328" lon="-0.422955">
        <ele>42.313578</ele>
        <time>2024-07-06T11:19:27.000Z</time>
      </trkpt>
      <trkpt lat="52.259763" lon="-0.422517">
        <ele>41.617941</ele>
        <time>2024-07-06T11:19:33.000Z</time>
      </trkpt>
      <trkpt lat="52.260219" lon="-0.421685">
        <ele>41.089538</ele>
        <time>2024-07-06T11:19:41.000Z</time>
      </trkpt>
      <trkpt lat="52.260729" lon="-0.420482">
        <ele>40.419252</ele>
        <time>2024-07-06T11:19:51.000Z</time>
      </trkpt>
      <trkpt lat="52.26121" lon="-0.42003">
        <ele>40.13749</ele>
        <time>2024-07-06T11:19:57.000Z</time>
      </trkpt>
      <trkpt lat="52.261476" lon="-0.419825">
        <ele>40.003623</ele>
        <time>2024-07-06T11:20:00.000Z</time>
      </trkpt>
      <trkpt lat="52.262035" lon="-0.419399">
        <ele>39.726742</ele>
        <time>2024-07-06T11:20:07.000Z</time>
      </trkpt>
      <trkpt lat="52.262345" lon="-0.419149">
        <ele>39.570137</ele>
        <time>2024-07-06T11:20:11.000Z</time>
      </trkpt>
      <trkpt lat="52.262994" lon="-0.418722">
        <ele>39.541296</ele>
        <time>2024-07-06T11:20:19.000Z</time>
      </trkpt>
      <trkpt lat="52.263194" lon="-0.418559">
        <ele>39.549125</ele>
        <time>2024-07-06T11:20:21.000Z</time>
      </trkpt>
      <trkpt lat="52.266424" lon="-0.416406">
        <ele>40.120909</ele>
        <time>2024-07-06T11:21:00.000Z</time>
      </trkpt>
      <trkpt lat="52.267577" lon="-0.415708">
        <ele>40.124839</ele>
        <time>2024-07-06T11:21:14.000Z</time>
      </trkpt>
      <trkpt lat="52.269978" lon="-0.414724">
        <ele>39.435205</ele>
        <time>2024-07-06T11:21:42.000Z</time>
      </trkpt>
      <trkpt lat="52.27038" lon="-0.41438">
        <ele>39.346883</ele>
        <time>2024-07-06T11:21:47.000Z</time>
      </trkpt>
      <trkpt lat="52.270651" lon="-0.414212">
        <ele>39.2916</ele>
        <time>2024-07-06T11:21:50.000Z</time>
      </trkpt>
      <trkpt lat="52.271708" lon="-0.413951">
        <ele>39.30358</ele>
        <time>2024-07-06T11:22:02.000Z</time>
      </trkpt>
      <trkpt lat="52.274258" lon="-0.413779">
        <ele>39.520293</ele>
        <time>2024-07-06T11:22:30.000Z</time>
      </trkpt>
      <trkpt lat="52.274442" lon="-0.413754">
        <ele>39.536957</ele>
        <time>2024-07-06T11:22:32.000Z</time>
      </trkpt>
      <trkpt lat="52.274651" lon="-0.413633">
        <ele>39.474777</ele>
        <time>2024-07-06T11:22:34.000Z</time>
      </trkpt>
      <trkpt lat="52.274718" lon="-0.413544">
        <ele>39.44201</ele>
        <time>2024-07-06T11:22:35.000Z</time>
      </trkpt>
      <trkpt lat="52.274908" lon="-0.412931">
        <ele>39.288173</ele>
        <time>2024-07-06T11:22:40.000Z</time>
      </trkpt>
      <trkpt lat="52.274977" lon="-0.412687">
        <ele>39.232539</ele>
        <time>2024-07-06T11:22:42.000Z</time>
      </trkpt>
      <trkpt lat="52.275001" lon="-0.412566">
        <ele>39.205662</ele>
        <time>2024-07-06T11:22:43.000Z</time>
      </trkpt>
      <trkpt lat="52.275074" lon="-0.411872">
        <ele>39.047664</ele>
        <time>2024-07-06T11:22:48.000Z</time>
      </trkpt>
      <trkpt lat="52.275167" lon="-0.410646">
        <ele>38.54408</ele>
        <time>2024-07-06T11:22:56.000Z</time>
      </trkpt>
      <trkpt lat="52.275291" lon="-0.409963">
        <ele>38.06733</ele>
        <time>2024-07-06T11:23:01.000Z</time>
      </trkpt>
      <trkpt lat="52.275393" lon="-0.409692">
        <ele>37.845044</ele>
        <time>2024-07-06T11:23:03.000Z</time>
      </trkpt>
      <trkpt lat="52.275764" lon="-0.4093">
        <ele>37.366169</ele>
        <time>2024-07-06T11:23:08.000Z</time>
      </trkpt>
      <trkpt lat="52.275934" lon="-0.409185">
        <ele>37.157929</ele>
        <time>2024-07-06T11:23:10.000Z</time>
      </trkpt>
      <trkpt lat="52.276965" lon="-0.408957">
        <ele>37.215766</ele>
        <time>2024-07-06T11:23:22.000Z</time>
      </trkpt>
      <trkpt lat="52.277066" lon="-0.40894">
        <ele>37.251778</ele>
        <time>2024-07-06T11:23:23.000Z</time>
      </trkpt>
      <trkpt lat="52.277117" lon="-0.408916">
        <ele>37.266383</ele>
        <time>2024-07-06T11:23:24.000Z</time>
      </trkpt>
      <trkpt lat="52.278543" lon="-0.40861">
        <ele>39.225393</ele>
        <time>2024-07-06T11:23:40.000Z</time>
      </trkpt>
      <trkpt lat="52.278768" lon="-0.408545">
        <ele>39.888467</ele>
        <time>2024-07-06T11:23:43.000Z</time>
      </trkpt>
      <trkpt lat="52.278892" lon="-0.408426">
        <ele>40.239131</ele>
        <time>2024-07-06T11:23:45.000Z</time>
      </trkpt>
      <trkpt lat="52.279129" lon="-0.407907">
        <ele>41.359017</ele>
        <time>2024-07-06T11:23:49.000Z</time>
      </trkpt>
      <trkpt lat="52.279185" lon="-0.40777">
        <ele>41.633726</ele>
        <time>2024-07-06T11:23:50.000Z</time>
      </trkpt>
      <trkpt lat="52.280166" lon="-0.405872">
        <ele>48.977805</ele>
        <time>2024-07-06T11:24:07.000Z</time>
      </trkpt>
      <trkpt lat="52.281373" lon="-0.403639">
        <ele>58.665836</ele>
        <time>2024-07-06T11:24:27.000Z</time>
      </trkpt>
      <trkpt lat="52.281658" lon="-0.403233">
        <ele>60.660454</ele>
        <time>2024-07-06T11:24:31.000Z</time>
      </trkpt>
      <trkpt lat="52.282101" lon="-0.402816">
        <ele>61.95187</ele>
        <time>2024-07-06T11:24:37.000Z</time>
      </trkpt>
      <trkpt lat="52.282215" lon="-0.402704">
        <ele>62.058367</ele>
        <time>2024-07-06T11:24:38.000Z</time>
      </trkpt>
      <trkpt lat="52.282826" lon="-0.402139">
        <ele>62.643183</ele>
        <time>2024-07-06T11:24:46.000Z</time>
      </trkpt>
      <trkpt lat="52.283168" lon="-0.401929">
        <ele>62.956347</ele>
        <time>2024-07-06T11:24:50.000Z</time>
      </trkpt>
      <trkpt lat="52.283223" lon="-0.401873">
        <ele>63.008397</ele>
        <time>2024-07-06T11:24:51.000Z</time>
      </trkpt>
      <trkpt lat="52.283309" lon="-0.401764">
        <ele>63.099879</ele>
        <time>2024-07-06T11:24:52.000Z</time>
      </trkpt>
      <trkpt lat="52.283813" lon="-0.400843">
        <ele>61.854443</ele>
        <time>2024-07-06T11:25:00.000Z</time>
      </trkpt>
      <trkpt lat="52.284661" lon="-0.398802">
        <ele>58.496951</ele>
        <time>2024-07-06T11:25:17.000Z</time>
      </trkpt>
      <trkpt lat="52.285324" lon="-0.397649">
        <ele>55.945956</ele>
        <time>2024-07-06T11:25:28.000Z</time>
      </trkpt>
      <trkpt lat="52.287422" lon="-0.394658">
        <ele>48.428179</ele>
        <time>2024-07-06T11:25:59.000Z</time>
      </trkpt>
      <trkpt lat="52.289801" lon="-0.390879">
        <ele>40.64897</ele>
        <time>2024-07-06T11:26:36.000Z</time>
      </trkpt>
      <trkpt lat="52.291366" lon="-0.387715">
        <ele>37.829371</ele>
        <time>2024-07-06T11:27:04.000Z</time>
      </trkpt>
      <trkpt lat="52.291385" lon="-0.387673">
        <ele>37.798433</ele>
        <time>2024-07-06T11:27:04.000Z</time>
      </trkpt>
      <trkpt lat="52.29157" lon="-0.387267">
        <ele>37.538327</ele>
        <time>2024-07-06T11:27:07.000Z</time>
      </trkpt>
      <trkpt lat="52.292146" lon="-0.385697">
        <ele>36.741341</ele>
        <time>2024-07-06T11:27:19.000Z</time>
      </trkpt>
      <trkpt lat="52.293191" lon="-0.38336">
        <ele>35.838279</ele>
        <time>2024-07-06T11:27:39.000Z</time>
      </trkpt>
      <trkpt lat="52.293849" lon="-0.381958">
        <ele>35.425957</ele>
        <time>2024-07-06T11:27:51.000Z</time>
      </trkpt>
      <trkpt lat="52.293907" lon="-0.381844">
        <ele>35.390792</ele>
        <time>2024-07-06T11:27:52.000Z</time>
      </trkpt>
      <trkpt lat="52.294226" lon="-0.381256">
        <ele>35.304867</ele>
        <time>2024-07-06T11:27:57.000Z</time>
      </trkpt>
      <trkpt lat="52.294297" lon="-0.38111">
        <ele>35.286065</ele>
        <time>2024-07-06T11:27:58.000Z</time>
      </trkpt>
      <trkpt lat="52.294866" lon="-0.382102">
        <ele>35.159719</ele>
        <time>2024-07-06T11:28:07.000Z</time>
      </trkpt>
      <trkpt lat="52.295379" lon="-0.383076">
        <ele>35.092504</ele>
        <time>2024-07-06T11:28:16.000Z</time>
      </trkpt>
      <trkpt lat="52.296102" lon="-0.384129">
        <ele>35.087053</ele>
        <time>2024-07-06T11:28:27.000Z</time>
      </trkpt>
      <trkpt lat="52.296443" lon="-0.384687">
        <ele>35.088577</ele>
        <time>2024-07-06T11:28:32.000Z</time>
      </trkpt>
      <trkpt lat="52.296782" lon="-0.385405">
        <ele>35.660606</ele>
        <time>2024-07-06T11:28:38.000Z</time>
      </trkpt>
      <trkpt lat="52.297037" lon="-0.38626">
        <ele>36.252197</ele>
        <time>2024-07-06T11:28:44.000Z</time>
      </trkpt>
      <trkpt lat="52.29707" lon="-0.386377">
        <ele>36.338712</ele>
        <time>2024-07-06T11:28:45.000Z</time>
      </trkpt>
      <trkpt lat="52.297137" lon="-0.3867">
        <ele>36.549642</ele>
        <time>2024-07-06T11:28:47.000Z</time>
      </trkpt>
      <trkpt lat="52.297121" lon="-0.386912">
        <ele>36.680872</ele>
        <time>2024-07-06T11:28:48.000Z</time>
      </trkpt>
      <trkpt lat="52.296827" lon="-0.387281">
        <ele>36.982741</ele>
        <time>2024-07-06T11:28:52.000Z</time>
      </trkpt>
      <trkpt lat="52.29635" lon="-0.387824">
        <ele>37.269113</ele>
        <time>2024-07-06T11:28:58.000Z</time>
      </trkpt>
      <trkpt lat="52.29634" lon="-0.387936">
        <ele>37.307479</ele>
        <time>2024-07-06T11:28:59.000Z</time>
      </trkpt>
      <trkpt lat="52.296384" lon="-0.388076">
        <ele>37.355915</ele>
        <time>2024-07-06T11:29:00.000Z</time>
      </trkpt>
      <trkpt lat="52.296562" lon="-0.388403">
        <ele>37.494552</ele>
        <time>2024-07-06T11:29:03.000Z</time>
      </trkpt>
      <trkpt lat="52.297409" lon="-0.389698">
        <ele>37.470916</ele>
        <time>2024-07-06T11:29:16.000Z</time>
      </trkpt>
      <trkpt lat="52.297487" lon="-0.389869">
        <ele>37.384478</ele>
        <time>2024-07-06T11:29:17.000Z</time>
      </trkpt>
      <trkpt lat="52.297613" lon="-0.390021">
        <ele>37.280356</ele>
        <time>2024-07-06T11:29:19.000Z</time>
      </trkpt>
      <trkpt lat="52.297807" lon="-0.39004">
        <ele>37.149029</ele>
        <time>2024-07-06T11:29:21.000Z</time>
      </trkpt>
      <trkpt lat="52.29818" lon="-0.389798">
        <ele>36.875104</ele>
        <time>2024-07-06T11:29:25.000Z</time>
      </trkpt>
      <trkpt lat="52.298214" lon="-0.389785">
        <ele>36.85101</ele>
        <time>2024-07-06T11:29:25.000Z</time>
      </trkpt>
      <trkpt lat="52.298735" lon="-0.390347">
        <ele>36.615067</ele>
        <time>2024-07-06T11:29:32.000Z</time>
      </trkpt>
      <trkpt lat="52.298979" lon="-0.390882">
        <ele>36.621742</ele>
        <time>2024-07-06T11:29:37.000Z</time>
      </trkpt>
      <trkpt lat="52.299196" lon="-0.3914">
        <ele>36.627903</ele>
        <time>2024-07-06T11:29:41.000Z</time>
      </trkpt>
      <trkpt lat="52.299412" lon="-0.391964">
        <ele>36.634552</ele>
        <time>2024-07-06T11:29:46.000Z</time>
      </trkpt>
      <trkpt lat="52.299473" lon="-0.392084">
        <ele>36.636193</ele>
        <time>2024-07-06T11:29:47.000Z</time>
      </trkpt>
      <trkpt lat="52.299563" lon="-0.39247">
        <ele>36.641209</ele>
        <time>2024-07-06T11:29:50.000Z</time>
      </trkpt>
      <trkpt lat="52.299581" lon="-0.392671">
        <ele>36.662292</ele>
        <time>2024-07-06T11:29:51.000Z</time>
      </trkpt>
      <trkpt lat="52.299617" lon="-0.392785">
        <ele>36.675815</ele>
        <time>2024-07-06T11:29:52.000Z</time>
      </trkpt>
      <trkpt lat="52.299658" lon="-0.392969">
        <ele>36.697148</ele>
        <time>2024-07-06T11:29:53.000Z</time>
      </trkpt>
      <trkpt lat="52.299682" lon="-0.393083">
        <ele>36.711111</ele>
        <time>2024-07-06T11:29:54.000Z</time>
      </trkpt>
      <trkpt lat="52.299994" lon="-0.394247">
        <ele>36.84643</ele>
        <time>2024-07-06T11:30:03.000Z</time>
      </trkpt>
      <trkpt lat="52.300534" lon="-0.3959">
        <ele>36.666234</ele>
        <time>2024-07-06T11:30:16.000Z</time>
      </trkpt>
      <trkpt lat="52.300815" lon="-0.396608">
        <ele>36.384691</ele>
        <time>2024-07-06T11:30:22.000Z</time>
      </trkpt>
      <trkpt lat="52.301413" lon="-0.397481">
        <ele>35.958606</ele>
        <time>2024-07-06T11:30:31.000Z</time>
      </trkpt>
      <trkpt lat="52.301499" lon="-0.3977">
        <ele>35.92082</ele>
        <time>2024-07-06T11:30:33.000Z</time>
      </trkpt>
      <trkpt lat="52.301813" lon="-0.398341">
        <ele>35.814508</ele>
        <time>2024-07-06T11:30:39.000Z</time>
      </trkpt>
      <trkpt lat="52.30205" lon="-0.398924">
        <ele>35.72082</ele>
        <time>2024-07-06T11:30:44.000Z</time>
      </trkpt>
      <trkpt lat="52.302457" lon="-0.399949">
        <ele>35.641009</ele>
        <time>2024-07-06T11:30:52.000Z</time>
      </trkpt>
      <trkpt lat="52.303032" lon="-0.401643">
        <ele>36.614542</ele>
        <time>2024-07-06T11:31:05.000Z</time>
      </trkpt>
      <trkpt lat="52.303479" lon="-0.40241">
        <ele>37.230541</ele>
        <time>2024-07-06T11:31:12.000Z</time>
      </trkpt>
      <trkpt lat="52.304389" lon="-0.403937">
        <ele>39.21904</ele>
        <time>2024-07-06T11:31:26.000Z</time>
      </trkpt>
      <trkpt lat="52.304917" lon="-0.404857">
        <ele>39.975395</ele>
        <time>2024-07-06T11:31:35.000Z</time>
      </trkpt>
      <trkpt lat="52.305376" lon="-0.405822">
        <ele>40.318044</ele>
        <time>2024-07-06T11:31:43.000Z</time>
      </trkpt>
      <trkpt lat="52.305667" lon="-0.40673">
        <ele>40.601279</ele>
        <time>2024-07-06T11:31:50.000Z</time>
      </trkpt>
      <trkpt lat="52.305775" lon="-0.40725">
        <ele>40.553714</ele>
        <time>2024-07-06T11:31:54.000Z</time>
      </trkpt>
      <trkpt lat="52.305826" lon="-0.407976">
        <ele>40.458604</ele>
        <time>2024-07-06T11:31:59.000Z</time>
      </trkpt>
      <trkpt lat="52.305806" lon="-0.408636">
        <ele>40.371871</ele>
        <time>2024-07-06T11:32:03.000Z</time>
      </trkpt>
      <trkpt lat="52.305606" lon="-0.410259">
        <ele>40.536912</ele>
        <time>2024-07-06T11:32:14.000Z</time>
      </trkpt>
      <trkpt lat="52.305555" lon="-0.410994">
        <ele>40.907528</ele>
        <time>2024-07-06T11:32:19.000Z</time>
      </trkpt>
      <trkpt lat="52.305666" lon="-0.411691">
        <ele>41.271939</ele>
        <time>2024-07-06T11:32:24.000Z</time>
      </trkpt>
      <trkpt lat="52.306451" lon="-0.413582">
        <ele>42.55486</ele>
        <time>2024-07-06T11:32:40.000Z</time>
      </trkpt>
      <trkpt lat="52.306735" lon="-0.414162">
        <ele>42.995866</ele>
        <time>2024-07-06T11:32:45.000Z</time>
      </trkpt>
      <trkpt lat="52.307032" lon="-0.414415">
        <ele>43.320705</ele>
        <time>2024-07-06T11:32:49.000Z</time>
      </trkpt>
      <trkpt lat="52.307392" lon="-0.414629">
        <ele>43.575199</ele>
        <time>2024-07-06T11:32:53.000Z</time>
      </trkpt>
      <trkpt lat="52.307691" lon="-0.414933">
        <ele>43.735832</ele>
        <time>2024-07-06T11:32:57.000Z</time>
      </trkpt>
      <trkpt lat="52.307773" lon="-0.415053">
        <ele>43.789988</ele>
        <time>2024-07-06T11:32:58.000Z</time>
      </trkpt>
      <trkpt lat="52.307849" lon="-0.415191">
        <ele>43.840628</ele>
        <time>2024-07-06T11:32:59.000Z</time>
      </trkpt>
      <trkpt lat="52.308132" lon="-0.416365">
        <ele>44.191537</ele>
        <time>2024-07-06T11:33:08.000Z</time>
      </trkpt>
      <trkpt lat="52.308346" lon="-0.417824">
        <ele>44.631536</ele>
        <time>2024-07-06T11:33:18.000Z</time>
      </trkpt>
      <trkpt lat="52.308477" lon="-0.419653">
        <ele>45.163066</ele>
        <time>2024-07-06T11:33:31.000Z</time>
      </trkpt>
      <trkpt lat="52.308573" lon="-0.420385">
        <ele>45.062879</ele>
        <time>2024-07-06T11:33:36.000Z</time>
      </trkpt>
      <trkpt lat="52.308903" lon="-0.421356">
        <ele>44.91729</ele>
        <time>2024-07-06T11:33:44.000Z</time>
      </trkpt>
      <trkpt lat="52.309061" lon="-0.42173">
        <ele>44.857033</ele>
        <time>2024-07-06T11:33:47.000Z</time>
      </trkpt>
      <trkpt lat="52.309137" lon="-0.421931">
        <ele>44.825549</ele>
        <time>2024-07-06T11:33:49.000Z</time>
      </trkpt>
      <trkpt lat="52.30924" lon="-0.422185">
        <ele>44.784909</ele>
        <time>2024-07-06T11:33:51.000Z</time>
      </trkpt>
      <trkpt lat="52.309571" lon="-0.423082">
        <ele>44.547601</ele>
        <time>2024-07-06T11:33:58.000Z</time>
      </trkpt>
      <trkpt lat="52.309791" lon="-0.423759">
        <ele>44.375866</ele>
        <time>2024-07-06T11:34:03.000Z</time>
      </trkpt>
      <trkpt lat="52.3103" lon="-0.426041">
        <ele>44.011244</ele>
        <time>2024-07-06T11:34:20.000Z</time>
      </trkpt>
      <trkpt lat="52.310994" lon="-0.428551">
        <ele>43.922358</ele>
        <time>2024-07-06T11:34:39.000Z</time>
      </trkpt>
      <trkpt lat="52.311327" lon="-0.430246">
        <ele>43.989018</ele>
        <time>2024-07-06T11:34:51.000Z</time>
      </trkpt>
      <trkpt lat="52.311559" lon="-0.431672">
        <ele>44.056922</ele>
        <time>2024-07-06T11:35:01.000Z</time>
      </trkpt>
      <trkpt lat="52.311607" lon="-0.431978">
        <ele>44.071648</ele>
        <time>2024-07-06T11:35:03.000Z</time>
      </trkpt>
      <trkpt lat="52.312452" lon="-0.437461">
        <ele>44.160437</ele>
        <time>2024-07-06T11:35:41.000Z</time>
      </trkpt>
      <trkpt lat="52.312449" lon="-0.437642">
        <ele>44.182568</ele>
        <time>2024-07-06T11:35:42.000Z</time>
      </trkpt>
      <trkpt lat="52.312406" lon="-0.438817">
        <ele>44.330395</ele>
        <time>2024-07-06T11:35:50.000Z</time>
      </trkpt>
      <trkpt lat="52.312358" lon="-0.439252">
        <ele>44.505318</ele>
        <time>2024-07-06T11:35:53.000Z</time>
      </trkpt>
      <trkpt lat="52.31212" lon="-0.441302">
        <ele>45.542606</ele>
        <time>2024-07-06T11:36:07.000Z</time>
      </trkpt>
      <trkpt lat="52.312171" lon="-0.441823">
        <ele>45.809399</ele>
        <time>2024-07-06T11:36:11.000Z</time>
      </trkpt>
      <trkpt lat="52.312033" lon="-0.441979">
        <ele>45.865872</ele>
        <time>2024-07-06T11:36:13.000Z</time>
      </trkpt>
      <trkpt lat="52.311935" lon="-0.442441">
        <ele>45.965428</ele>
        <time>2024-07-06T11:36:16.000Z</time>
      </trkpt>
      <trkpt lat="52.311395" lon="-0.446525">
        <ele>46.691185</ele>
        <time>2024-07-06T11:36:44.000Z</time>
      </trkpt>
      <trkpt lat="52.311202" lon="-0.448322">
        <ele>47.15492</ele>
        <time>2024-07-06T11:36:56.000Z</time>
      </trkpt>
      <trkpt lat="52.31069" lon="-0.449798">
        <ele>47.791342</ele>
        <time>2024-07-06T11:37:08.000Z</time>
      </trkpt>
      <trkpt lat="52.310376" lon="-0.450703">
        <ele>48.220726</ele>
        <time>2024-07-06T11:37:15.000Z</time>
      </trkpt>
      <trkpt lat="52.309274" lon="-0.452624">
        <ele>49.261975</ele>
        <time>2024-07-06T11:37:33.000Z</time>
      </trkpt>
      <trkpt lat="52.30858" lon="-0.454145">
        <ele>49.549302</ele>
        <time>2024-07-06T11:37:46.000Z</time>
      </trkpt>
      <trkpt lat="52.308526" lon="-0.454253">
        <ele>49.570673</ele>
        <time>2024-07-06T11:37:47.000Z</time>
      </trkpt>
      <trkpt lat="52.308572" lon="-0.454135">
        <ele>49.592049</ele>
        <time>2024-07-06T11:37:48.000Z</time>
      </trkpt>
      <trkpt lat="52.309285" lon="-0.452615">
        <ele>49.214535</ele>
        <time>2024-07-06T11:38:01.000Z</time>
      </trkpt>
      <trkpt lat="52.31038" lon="-0.4507">
        <ele>48.243413</ele>
        <time>2024-07-06T11:38:19.000Z</time>
      </trkpt>
      <trkpt lat="52.310698" lon="-0.449792">
        <ele>47.760377</ele>
        <time>2024-07-06T11:38:26.000Z</time>
      </trkpt>
      <trkpt lat="52.311197" lon="-0.448318">
        <ele>47.15764</ele>
        <time>2024-07-06T11:38:37.000Z</time>
      </trkpt>
      <trkpt lat="52.311387" lon="-0.446513">
        <ele>46.651837</ele>
        <time>2024-07-06T11:38:49.000Z</time>
      </trkpt>
      <trkpt lat="52.311943" lon="-0.442443">
        <ele>45.838387</ele>
        <time>2024-07-06T11:39:17.000Z</time>
      </trkpt>
      <trkpt lat="52.312041" lon="-0.441987">
        <ele>45.665799</ele>
        <time>2024-07-06T11:39:20.000Z</time>
      </trkpt>
      <trkpt lat="52.312168" lon="-0.441825">
        <ele>45.57154</ele>
        <time>2024-07-06T11:39:22.000Z</time>
      </trkpt>
      <trkpt lat="52.312121" lon="-0.441289">
        <ele>45.383577</ele>
        <time>2024-07-06T11:39:26.000Z</time>
      </trkpt>
      <trkpt lat="52.312413" lon="-0.438823">
        <ele>44.359724</ele>
        <time>2024-07-06T11:39:43.000Z</time>
      </trkpt>
      <trkpt lat="52.312459" lon="-0.437646">
        <ele>43.950716</ele>
        <time>2024-07-06T11:39:51.000Z</time>
      </trkpt>
      <trkpt lat="52.312448" lon="-0.43746">
        <ele>43.952657</ele>
        <time>2024-07-06T11:39:52.000Z</time>
      </trkpt>
      <trkpt lat="52.311599" lon="-0.431981">
        <ele>44.105319</ele>
        <time>2024-07-06T11:40:30.000Z</time>
      </trkpt>
      <trkpt lat="52.311563" lon="-0.431671">
        <ele>44.08221</ele>
        <time>2024-07-06T11:40:32.000Z</time>
      </trkpt>
      <trkpt lat="52.311325" lon="-0.430259">
        <ele>43.974337</ele>
        <time>2024-07-06T11:40:42.000Z</time>
      </trkpt>
      <trkpt lat="52.311011" lon="-0.42856">
        <ele>43.915889</ele>
        <time>2024-07-06T11:40:54.000Z</time>
      </trkpt>
      <trkpt lat="52.310297" lon="-0.426026">
        <ele>44.020135</ele>
        <time>2024-07-06T11:41:13.000Z</time>
      </trkpt>
      <trkpt lat="52.309777" lon="-0.423768">
        <ele>44.285387</ele>
        <time>2024-07-06T11:41:29.000Z</time>
      </trkpt>
      <trkpt lat="52.309575" lon="-0.423086">
        <ele>44.497369</ele>
        <time>2024-07-06T11:41:34.000Z</time>
      </trkpt>
      <trkpt lat="52.309235" lon="-0.422185">
        <ele>44.797166</ele>
        <time>2024-07-06T11:41:41.000Z</time>
      </trkpt>
      <trkpt lat="52.309133" lon="-0.421922">
        <ele>44.883606</ele>
        <time>2024-07-06T11:41:43.000Z</time>
      </trkpt>
      <trkpt lat="52.309052" lon="-0.421736">
        <ele>44.950556</ele>
        <time>2024-07-06T11:41:45.000Z</time>
      </trkpt>
      <trkpt lat="52.308911" lon="-0.42135">
        <ele>45.078705</ele>
        <time>2024-07-06T11:41:48.000Z</time>
      </trkpt>
      <trkpt lat="52.308569" lon="-0.420398">
        <ele>45.02792</ele>
        <time>2024-07-06T11:41:56.000Z</time>
      </trkpt>
      <trkpt lat="52.308479" lon="-0.419663">
        <ele>44.984654</ele>
        <time>2024-07-06T11:42:01.000Z</time>
      </trkpt>
      <trkpt lat="52.308347" lon="-0.417817">
        <ele>44.695493</ele>
        <time>2024-07-06T11:42:14.000Z</time>
      </trkpt>
      <trkpt lat="52.30813" lon="-0.416365">
        <ele>44.224729</ele>
        <time>2024-07-06T11:42:24.000Z</time>
      </trkpt>
      <trkpt lat="52.307856" lon="-0.415198">
        <ele>43.807028</ele>
        <time>2024-07-06T11:42:32.000Z</time>
      </trkpt>
      <trkpt lat="52.307788" lon="-0.415064">
        <ele>43.741593</ele>
        <time>2024-07-06T11:42:33.000Z</time>
      </trkpt>
      <trkpt lat="52.307693" lon="-0.414934">
        <ele>43.671651</ele>
        <time>2024-07-06T11:42:34.000Z</time>
      </trkpt>
      <trkpt lat="52.307391" lon="-0.414625">
        <ele>43.464149</ele>
        <time>2024-07-06T11:42:38.000Z</time>
      </trkpt>
      <trkpt lat="52.307039" lon="-0.414424">
        <ele>43.238015</ele>
        <time>2024-07-06T11:42:42.000Z</time>
      </trkpt>
      <trkpt lat="52.306745" lon="-0.414154">
        <ele>43.039961</ele>
        <time>2024-07-06T11:42:46.000Z</time>
      </trkpt>
      <trkpt lat="52.306451" lon="-0.413582">
        <ele>42.633517</ele>
        <time>2024-07-06T11:42:51.000Z</time>
      </trkpt>
      <trkpt lat="52.305662" lon="-0.41168">
        <ele>41.103657</ele>
        <time>2024-07-06T11:43:07.000Z</time>
      </trkpt>
      <trkpt lat="52.305567" lon="-0.410991">
        <ele>40.846156</ele>
        <time>2024-07-06T11:43:12.000Z</time>
      </trkpt>
      <trkpt lat="52.305615" lon="-0.410262">
        <ele>40.67108</ele>
        <time>2024-07-06T11:43:17.000Z</time>
      </trkpt>
      <trkpt lat="52.305806" lon="-0.408637">
        <ele>40.277966</ele>
        <time>2024-07-06T11:43:28.000Z</time>
      </trkpt>
      <trkpt lat="52.305823" lon="-0.407971">
        <ele>40.352022</ele>
        <time>2024-07-06T11:43:33.000Z</time>
      </trkpt>
      <trkpt lat="52.305778" lon="-0.407247">
        <ele>40.450152</ele>
        <time>2024-07-06T11:43:38.000Z</time>
      </trkpt>
      <trkpt lat="52.305665" lon="-0.406722">
        <ele>40.523744</ele>
        <time>2024-07-06T11:43:42.000Z</time>
      </trkpt>
      <trkpt lat="52.305374" lon="-0.405833">
        <ele>40.6599</ele>
        <time>2024-07-06T11:43:49.000Z</time>
      </trkpt>
      <trkpt lat="52.30492" lon="-0.404858">
        <ele>39.893888</ele>
        <time>2024-07-06T11:43:57.000Z</time>
      </trkpt>
      <trkpt lat="52.304398" lon="-0.403938">
        <ele>39.09777</ele>
        <time>2024-07-06T11:44:06.000Z</time>
      </trkpt>
      <trkpt lat="52.303478" lon="-0.402418">
        <ele>37.377431</ele>
        <time>2024-07-06T11:44:21.000Z</time>
      </trkpt>
      <trkpt lat="52.303035" lon="-0.40164">
        <ele>36.466686</ele>
        <time>2024-07-06T11:44:28.000Z</time>
      </trkpt>
      <trkpt lat="52.302468" lon="-0.399949">
        <ele>35.829695</ele>
        <time>2024-07-06T11:44:41.000Z</time>
      </trkpt>
      <trkpt lat="52.30205" lon="-0.39892">
        <ele>35.514137</ele>
        <time>2024-07-06T11:44:49.000Z</time>
      </trkpt>
      <trkpt lat="52.301799" lon="-0.398344">
        <ele>35.731531</ele>
        <time>2024-07-06T11:44:54.000Z</time>
      </trkpt>
      <trkpt lat="52.301505" lon="-0.397704">
        <ele>35.978279</ele>
        <time>2024-07-06T11:44:59.000Z</time>
      </trkpt>
      <trkpt lat="52.301415" lon="-0.397474">
        <ele>36.065938</ele>
        <time>2024-07-06T11:45:01.000Z</time>
      </trkpt>
      <trkpt lat="52.300809" lon="-0.396612">
        <ele>36.450897</ele>
        <time>2024-07-06T11:45:10.000Z</time>
      </trkpt>
      <trkpt lat="52.300529" lon="-0.395911">
        <ele>36.604932</ele>
        <time>2024-07-06T11:45:16.000Z</time>
      </trkpt>
      <trkpt lat="52.300005" lon="-0.394233">
        <ele>36.951985</ele>
        <time>2024-07-06T11:45:29.000Z</time>
      </trkpt>
      <trkpt lat="52.299678" lon="-0.393086">
        <ele>36.765329</ele>
        <time>2024-07-06T11:45:38.000Z</time>
      </trkpt>
      <trkpt lat="52.299642" lon="-0.392966">
        <ele>36.743587</ele>
        <time>2024-07-06T11:45:39.000Z</time>
      </trkpt>
      <trkpt lat="52.299621" lon="-0.39279">
        <ele>36.71038</ele>
        <time>2024-07-06T11:45:40.000Z</time>
      </trkpt>
      <trkpt lat="52.299585" lon="-0.392668">
        <ele>36.689348</ele>
        <time>2024-07-06T11:45:41.000Z</time>
      </trkpt>
      <trkpt lat="52.299565" lon="-0.39246">
        <ele>36.656553</ele>
        <time>2024-07-06T11:45:42.000Z</time>
      </trkpt>
      <trkpt lat="52.299472" lon="-0.392095">
        <ele>36.587072</ele>
        <time>2024-07-06T11:45:45.000Z</time>
      </trkpt>
      <trkpt lat="52.299417" lon="-0.391963">
        <ele>36.55988</ele>
        <time>2024-07-06T11:45:46.000Z</time>
      </trkpt>
      <trkpt lat="52.299182" lon="-0.391387">
        <ele>36.500439</ele>
        <time>2024-07-06T11:45:51.000Z</time>
      </trkpt>
      <trkpt lat="52.298985" lon="-0.390873">
        <ele>36.61948</ele>
        <time>2024-07-06T11:45:55.000Z</time>
      </trkpt>
      <trkpt lat="52.298744" lon="-0.390343">
        <ele>36.748379</ele>
        <time>2024-07-06T11:45:59.000Z</time>
      </trkpt>
      <trkpt lat="52.298215" lon="-0.389784">
        <ele>36.944292</ele>
        <time>2024-07-06T11:46:06.000Z</time>
      </trkpt>
      <trkpt lat="52.298175" lon="-0.389802">
        <ele>36.955699</ele>
        <time>2024-07-06T11:46:06.000Z</time>
      </trkpt>
      <trkpt lat="52.297805" lon="-0.390052">
        <ele>37.100289</ele>
        <time>2024-07-06T11:46:10.000Z</time>
      </trkpt>
      <trkpt lat="52.297601" lon="-0.390034">
        <ele>37.183798</ele>
        <time>2024-07-06T11:46:12.000Z</time>
      </trkpt>
      <trkpt lat="52.29749" lon="-0.389864">
        <ele>37.250014</ele>
        <time>2024-07-06T11:46:14.000Z</time>
      </trkpt>
      <trkpt lat="52.297407" lon="-0.389703">
        <ele>37.304987</ele>
        <time>2024-07-06T11:46:15.000Z</time>
      </trkpt>
      <trkpt lat="52.296565" lon="-0.388397">
        <ele>37.794854</ele>
        <time>2024-07-06T11:46:28.000Z</time>
      </trkpt>
      <trkpt lat="52.296386" lon="-0.388072">
        <ele>37.569916</ele>
        <time>2024-07-06T11:46:31.000Z</time>
      </trkpt>
      <trkpt lat="52.296328" lon="-0.387937">
        <ele>37.478054</ele>
        <time>2024-07-06T11:46:32.000Z</time>
      </trkpt>
      <trkpt lat="52.296361" lon="-0.387825">
        <ele>37.405284</ele>
        <time>2024-07-06T11:46:33.000Z</time>
      </trkpt>
      <trkpt lat="52.296829" lon="-0.387276">
        <ele>36.862162</ele>
        <time>2024-07-06T11:46:39.000Z</time>
      </trkpt>
      <trkpt lat="52.297112" lon="-0.386918">
        <ele>36.517317</ele>
        <time>2024-07-06T11:46:43.000Z</time>
      </trkpt>
      <trkpt lat="52.297145" lon="-0.386697">
        <ele>36.395416</ele>
        <time>2024-07-06T11:46:45.000Z</time>
      </trkpt>
      <trkpt lat="52.297074" lon="-0.386388">
        <ele>36.199421</ele>
        <time>2024-07-06T11:46:47.000Z</time>
      </trkpt>
      <trkpt lat="52.297034" lon="-0.386251">
        <ele>36.119044</ele>
        <time>2024-07-06T11:46:48.000Z</time>
      </trkpt>
      <trkpt lat="52.296796" lon="-0.385405">
        <ele>35.739144</ele>
        <time>2024-07-06T11:46:54.000Z</time>
      </trkpt>
      <trkpt lat="52.296435" lon="-0.384679">
        <ele>35.376227</ele>
        <time>2024-07-06T11:47:00.000Z</time>
      </trkpt>
      <trkpt lat="52.296102" lon="-0.384131">
        <ele>35.067619</ele>
        <time>2024-07-06T11:47:05.000Z</time>
      </trkpt>
      <trkpt lat="52.295382" lon="-0.383083">
        <ele>34.764806</ele>
        <time>2024-07-06T11:47:16.000Z</time>
      </trkpt>
      <trkpt lat="52.294867" lon="-0.382098">
        <ele>34.586225</ele>
        <time>2024-07-06T11:47:25.000Z</time>
      </trkpt>
      <trkpt lat="52.2943" lon="-0.381109">
        <ele>34.320286</ele>
        <time>2024-07-06T11:47:34.000Z</time>
      </trkpt>
      <trkpt lat="52.293837" lon="-0.380247">
        <ele>34.069627</ele>
        <time>2024-07-06T11:47:42.000Z</time>
      </trkpt>
      <trkpt lat="52.29382" lon="-0.380223">
        <ele>34.062166</ele>
        <time>2024-07-06T11:47:42.000Z</time>
      </trkpt>
      <trkpt lat="52.293747" lon="-0.380109">
        <ele>34.028457</ele>
        <time>2024-07-06T11:47:43.000Z</time>
      </trkpt>
      <trkpt lat="52.293664" lon="-0.379975">
        <ele>33.985785</ele>
        <time>2024-07-06T11:47:44.000Z</time>
      </trkpt>
      <trkpt lat="52.293481" lon="-0.379858">
        <ele>33.917681</ele>
        <time>2024-07-06T11:47:46.000Z</time>
      </trkpt>
      <trkpt lat="52.292963" lon="-0.379817">
        <ele>34.260788</ele>
        <time>2024-07-06T11:47:52.000Z</time>
      </trkpt>
      <trkpt lat="52.292719" lon="-0.379723">
        <ele>34.469772</ele>
        <time>2024-07-06T11:47:55.000Z</time>
      </trkpt>
      <trkpt lat="52.292391" lon="-0.37936">
        <ele>34.788487</ele>
        <time>2024-07-06T11:47:59.000Z</time>
      </trkpt>
      <trkpt lat="52.291681" lon="-0.377263">
        <ele>36.046209</ele>
        <time>2024-07-06T11:48:15.000Z</time>
      </trkpt>
      <trkpt lat="52.291559" lon="-0.37703">
        <ele>36.226788</ele>
        <time>2024-07-06T11:48:17.000Z</time>
      </trkpt>
      <trkpt lat="52.290826" lon="-0.376196">
        <ele>36.999184</ele>
        <time>2024-07-06T11:48:27.000Z</time>
      </trkpt>
      <trkpt lat="52.290135" lon="-0.375178">
        <ele>37.549675</ele>
        <time>2024-07-06T11:48:37.000Z</time>
      </trkpt>
      <trkpt lat="52.289925" lon="-0.374895">
        <ele>37.708977</ele>
        <time>2024-07-06T11:48:40.000Z</time>
      </trkpt>
      <trkpt lat="52.289794" lon="-0.374625">
        <ele>37.83052</ele>
        <time>2024-07-06T11:48:42.000Z</time>
      </trkpt>
      <trkpt lat="52.289574" lon="-0.373727">
        <ele>38.280548</ele>
        <time>2024-07-06T11:48:49.000Z</time>
      </trkpt>
      <trkpt lat="52.288969" lon="-0.37201">
        <ele>39.513377</ele>
        <time>2024-07-06T11:49:02.000Z</time>
      </trkpt>
      <trkpt lat="52.288771" lon="-0.37168">
        <ele>39.797349</ele>
        <time>2024-07-06T11:49:05.000Z</time>
      </trkpt>
      <trkpt lat="52.287775" lon="-0.369818">
        <ele>39.548583</ele>
        <time>2024-07-06T11:49:22.000Z</time>
      </trkpt>
      <trkpt lat="52.287705" lon="-0.369685">
        <ele>39.527099</ele>
        <time>2024-07-06T11:49:23.000Z</time>
      </trkpt>
      <trkpt lat="52.287356" lon="-0.369067">
        <ele>39.252486</ele>
        <time>2024-07-06T11:49:29.000Z</time>
      </trkpt>
      <trkpt lat="52.285632" lon="-0.365891">
        <ele>37.900419</ele>
        <time>2024-07-06T11:49:58.000Z</time>
      </trkpt>
      <trkpt lat="52.2854" lon="-0.365497">
        <ele>37.85512</ele>
        <time>2024-07-06T11:50:02.000Z</time>
      </trkpt>
      <trkpt lat="52.28493" lon="-0.364853">
        <ele>38.074517</ele>
        <time>2024-07-06T11:50:09.000Z</time>
      </trkpt>
      <trkpt lat="52.284355" lon="-0.36446">
        <ele>38.827405</ele>
        <time>2024-07-06T11:50:16.000Z</time>
      </trkpt>
      <trkpt lat="52.283033" lon="-0.363569">
        <ele>40.465946</ele>
        <time>2024-07-06T11:50:32.000Z</time>
      </trkpt>
      <trkpt lat="52.28273" lon="-0.363356">
        <ele>40.793529</ele>
        <time>2024-07-06T11:50:36.000Z</time>
      </trkpt>
      <trkpt lat="52.28116" lon="-0.362315">
        <ele>41.42037</ele>
        <time>2024-07-06T11:50:55.000Z</time>
      </trkpt>
      <trkpt lat="52.280175" lon="-0.361634">
        <ele>40.864787</ele>
        <time>2024-07-06T11:51:07.000Z</time>
      </trkpt>
      <trkpt lat="52.277009" lon="-0.359784">
        <ele>32.562255</ele>
        <time>2024-07-06T11:51:44.000Z</time>
      </trkpt>
      <trkpt lat="52.276174" lon="-0.359137">
        <ele>31.213525</ele>
        <time>2024-07-06T11:51:54.000Z</time>
      </trkpt>
      <trkpt lat="52.27579" lon="-0.358501">
        <ele>30.643773</ele>
        <time>2024-07-06T11:52:00.000Z</time>
      </trkpt>
      <trkpt lat="52.275661" lon="-0.358168">
        <ele>30.395321</ele>
        <time>2024-07-06T11:52:03.000Z</time>
      </trkpt>
      <trkpt lat="52.275178" lon="-0.355794">
        <ele>29.769357</ele>
        <time>2024-07-06T11:52:20.000Z</time>
      </trkpt>
      <trkpt lat="52.273422" lon="-0.350968">
        <ele>29.156722</ele>
        <time>2024-07-06T11:52:58.000Z</time>
      </trkpt>
      <trkpt lat="52.272328" lon="-0.348138">
        <ele>28.63568</ele>
        <time>2024-07-06T11:53:21.000Z</time>
      </trkpt>
      <trkpt lat="52.271891" lon="-0.347009">
        <ele>28.580442</ele>
        <time>2024-07-06T11:53:30.000Z</time>
      </trkpt>
      <trkpt lat="52.271593" lon="-0.346628">
        <ele>28.678088</ele>
        <time>2024-07-06T11:53:34.000Z</time>
      </trkpt>
      <trkpt lat="52.272381" lon="-0.345693">
        <ele>28.929251</ele>
        <time>2024-07-06T11:53:45.000Z</time>
      </trkpt>
      <trkpt lat="52.272967" lon="-0.344996">
        <ele>28.983622</ele>
        <time>2024-07-06T11:53:53.000Z</time>
      </trkpt>
      <trkpt lat="52.273612" lon="-0.344238">
        <ele>28.998781</ele>
        <time>2024-07-06T11:54:02.000Z</time>
      </trkpt>
      <trkpt lat="52.274776" lon="-0.342831">
        <ele>29.433151</ele>
        <time>2024-07-06T11:54:18.000Z</time>
      </trkpt>
      <trkpt lat="52.27655" lon="-0.34076">
        <ele>31.384813</ele>
        <time>2024-07-06T11:54:42.000Z</time>
      </trkpt>
      <trkpt lat="52.278222" lon="-0.338762">
        <ele>34.376498</ele>
        <time>2024-07-06T11:55:05.000Z</time>
      </trkpt>
      <trkpt lat="52.278275" lon="-0.338715">
        <ele>34.467995</ele>
        <time>2024-07-06T11:55:06.000Z</time>
      </trkpt>
      <trkpt lat="52.279015" lon="-0.338097">
        <ele>35.398237</ele>
        <time>2024-07-06T11:55:15.000Z</time>
      </trkpt>
      <trkpt lat="52.28154" lon="-0.336343">
        <ele>39.707129</ele>
        <time>2024-07-06T11:55:46.000Z</time>
      </trkpt>
      <trkpt lat="52.282854" lon="-0.335338">
        <ele>46.530583</ele>
        <time>2024-07-06T11:56:02.000Z</time>
      </trkpt>
      <trkpt lat="52.283739" lon="-0.334521">
        <ele>51.20357</ele>
        <time>2024-07-06T11:56:13.000Z</time>
      </trkpt>
      <trkpt lat="52.284328" lon="-0.333737">
        <ele>54.517047</ele>
        <time>2024-07-06T11:56:21.000Z</time>
      </trkpt>
      <trkpt lat="52.284959" lon="-0.333128">
        <ele>57.341497</ele>
        <time>2024-07-06T11:56:29.000Z</time>
      </trkpt>
      <trkpt lat="52.285851" lon="-0.332225">
        <ele>60.369955</ele>
        <time>2024-07-06T11:56:41.000Z</time>
      </trkpt>
      <trkpt lat="52.28674" lon="-0.33022">
        <ele>62.529138</ele>
        <time>2024-07-06T11:56:58.000Z</time>
      </trkpt>
      <trkpt lat="52.288615" lon="-0.327208">
        <ele>61.338926</ele>
        <time>2024-07-06T11:57:27.000Z</time>
      </trkpt>
      <trkpt lat="52.288911" lon="-0.32651">
        <ele>60.5381</ele>
        <time>2024-07-06T11:57:33.000Z</time>
      </trkpt>
      <trkpt lat="52.28929" lon="-0.325088">
        <ele>59.069117</ele>
        <time>2024-07-06T11:57:44.000Z</time>
      </trkpt>
      <trkpt lat="52.289496" lon="-0.324263">
        <ele>58.517807</ele>
        <time>2024-07-06T11:57:50.000Z</time>
      </trkpt>
      <trkpt lat="52.289658" lon="-0.323699">
        <ele>58.348673</ele>
        <time>2024-07-06T11:57:54.000Z</time>
      </trkpt>
      <trkpt lat="52.28977" lon="-0.323045">
        <ele>58.164664</ele>
        <time>2024-07-06T11:57:59.000Z</time>
      </trkpt>
      <trkpt lat="52.289772" lon="-0.322557">
        <ele>58.030091</ele>
        <time>2024-07-06T11:58:02.000Z</time>
      </trkpt>
      <trkpt lat="52.289666" lon="-0.322048">
        <ele>57.884782</ele>
        <time>2024-07-06T11:58:06.000Z</time>
      </trkpt>
      <trkpt lat="52.289389" lon="-0.321456">
        <ele>57.91828</ele>
        <time>2024-07-06T11:58:11.000Z</time>
      </trkpt>
      <trkpt lat="52.289323" lon="-0.321283">
        <ele>57.948265</ele>
        <time>2024-07-06T11:58:12.000Z</time>
      </trkpt>
      <trkpt lat="52.288977" lon="-0.320838">
        <ele>58.053321</ele>
        <time>2024-07-06T11:58:17.000Z</time>
      </trkpt>
      <trkpt lat="52.288666" lon="-0.320616">
        <ele>58.134844</ele>
        <time>2024-07-06T11:58:21.000Z</time>
      </trkpt>
      <trkpt lat="52.288494" lon="-0.320413">
        <ele>58.190066</ele>
        <time>2024-07-06T11:58:23.000Z</time>
      </trkpt>
      <trkpt lat="52.28841" lon="-0.320148">
        <ele>58.23225</ele>
        <time>2024-07-06T11:58:25.000Z</time>
      </trkpt>
      <trkpt lat="52.288394" lon="-0.319804">
        <ele>58.247885</ele>
        <time>2024-07-06T11:58:27.000Z</time>
      </trkpt>
      <trkpt lat="52.288401" lon="-0.319463">
        <ele>58.161204</ele>
        <time>2024-07-06T11:58:29.000Z</time>
      </trkpt>
      <trkpt lat="52.28842" lon="-0.319049">
        <ele>58.063916</ele>
        <time>2024-07-06T11:58:32.000Z</time>
      </trkpt>
      <trkpt lat="52.288351" lon="-0.318745">
        <ele>57.982894</ele>
        <time>2024-07-06T11:58:34.000Z</time>
      </trkpt>
      <trkpt lat="52.288324" lon="-0.318686">
        <ele>57.969604</ele>
        <time>2024-07-06T11:58:35.000Z</time>
      </trkpt>
      <trkpt lat="52.288076" lon="-0.318014">
        <ele>57.776334</ele>
        <time>2024-07-06T11:58:40.000Z</time>
      </trkpt>
      <trkpt lat="52.288037" lon="-0.317881">
        <ele>57.739953</ele>
        <time>2024-07-06T11:58:41.000Z</time>
      </trkpt>
      <trkpt lat="52.28799" lon="-0.317702">
        <ele>57.693435</ele>
        <time>2024-07-06T11:58:42.000Z</time>
      </trkpt>
      <trkpt lat="52.287882" lon="-0.316929">
        <ele>57.430096</ele>
        <time>2024-07-06T11:58:47.000Z</time>
      </trkpt>
      <trkpt lat="52.287879" lon="-0.315803">
        <ele>56.806927</ele>
        <time>2024-07-06T11:58:55.000Z</time>
      </trkpt>
      <trkpt lat="52.287767" lon="-0.314521">
        <ele>56.099741</ele>
        <time>2024-07-06T11:59:04.000Z</time>
      </trkpt>
      <trkpt lat="52.287774" lon="-0.314442">
        <ele>56.054367</ele>
        <time>2024-07-06T11:59:05.000Z</time>
      </trkpt>
      <trkpt lat="52.287722" lon="-0.31416">
        <ele>55.903496</ele>
        <time>2024-07-06T11:59:07.000Z</time>
      </trkpt>
      <trkpt lat="52.28738" lon="-0.312782">
        <ele>55.22542</ele>
        <time>2024-07-06T11:59:17.000Z</time>
      </trkpt>
      <trkpt lat="52.287349" lon="-0.312205">
        <ele>54.957202</ele>
        <time>2024-07-06T11:59:21.000Z</time>
      </trkpt>
      <trkpt lat="52.287391" lon="-0.311185">
        <ele>54.468451</ele>
        <time>2024-07-06T11:59:28.000Z</time>
      </trkpt>
      <trkpt lat="52.287318" lon="-0.310406">
        <ele>54.030741</ele>
        <time>2024-07-06T11:59:33.000Z</time>
      </trkpt>
      <trkpt lat="52.287095" lon="-0.309493">
        <ele>53.494189</ele>
        <time>2024-07-06T11:59:40.000Z</time>
      </trkpt>
      <trkpt lat="52.286901" lon="-0.30891">
        <ele>53.124318</ele>
        <time>2024-07-06T11:59:45.000Z</time>
      </trkpt>
      <trkpt lat="52.286739" lon="-0.308509">
        <ele>52.836883</ele>
        <time>2024-07-06T11:59:48.000Z</time>
      </trkpt>
      <trkpt lat="52.286359" lon="-0.307418">
        <ele>51.995197</ele>
        <time>2024-07-06T11:59:57.000Z</time>
      </trkpt>
      <trkpt lat="52.28561" lon="-0.305347">
        <ele>50.630111</ele>
        <time>2024-07-06T12:00:13.000Z</time>
      </trkpt>
      <trkpt lat="52.285107" lon="-0.303699">
        <ele>49.915619</ele>
        <time>2024-07-06T12:00:26.000Z</time>
      </trkpt>
      <trkpt lat="52.285013" lon="-0.30325">
        <ele>49.854935</ele>
        <time>2024-07-06T12:00:29.000Z</time>
      </trkpt>
      <trkpt lat="52.284919" lon="-0.302888">
        <ele>49.862618</ele>
        <time>2024-07-06T12:00:32.000Z</time>
      </trkpt>
      <trkpt lat="52.284836" lon="-0.302574">
        <ele>49.869312</ele>
        <time>2024-07-06T12:00:34.000Z</time>
      </trkpt>
      <trkpt lat="52.284097" lon="-0.299081">
        <ele>49.896442</ele>
        <time>2024-07-06T12:00:59.000Z</time>
      </trkpt>
      <trkpt lat="52.284043" lon="-0.298752">
        <ele>49.894499</ele>
        <time>2024-07-06T12:01:01.000Z</time>
      </trkpt>
      <trkpt lat="52.28371" lon="-0.296688">
        <ele>49.479777</ele>
        <time>2024-07-06T12:01:16.000Z</time>
      </trkpt>
      <trkpt lat="52.283468" lon="-0.294807">
        <ele>48.902598</ele>
        <time>2024-07-06T12:01:29.000Z</time>
      </trkpt>
      <trkpt lat="52.283202" lon="-0.291911">
        <ele>48.216656</ele>
        <time>2024-07-06T12:01:49.000Z</time>
      </trkpt>
      <trkpt lat="52.283185" lon="-0.29055">
        <ele>47.953811</ele>
        <time>2024-07-06T12:01:58.000Z</time>
      </trkpt>
      <trkpt lat="52.283241" lon="-0.289877">
        <ele>47.823389</ele>
        <time>2024-07-06T12:02:03.000Z</time>
      </trkpt>
      <trkpt lat="52.283388" lon="-0.28909">
        <ele>47.570179</ele>
        <time>2024-07-06T12:02:09.000Z</time>
      </trkpt>
      <trkpt lat="52.283509" lon="-0.28849">
        <ele>47.180351</ele>
        <time>2024-07-06T12:02:13.000Z</time>
      </trkpt>
      <trkpt lat="52.283912" lon="-0.287399">
        <ele>46.394137</ele>
        <time>2024-07-06T12:02:22.000Z</time>
      </trkpt>
      <trkpt lat="52.284364" lon="-0.286561">
        <ele>45.445011</ele>
        <time>2024-07-06T12:02:30.000Z</time>
      </trkpt>
      <trkpt lat="52.284901" lon="-0.285815">
        <ele>43.689101</ele>
        <time>2024-07-06T12:02:38.000Z</time>
      </trkpt>
      <trkpt lat="52.285778" lon="-0.285089">
        <ele>41.244145</ele>
        <time>2024-07-06T12:02:49.000Z</time>
      </trkpt>
      <trkpt lat="52.288692" lon="-0.282991">
        <ele>33.64294</ele>
        <time>2024-07-06T12:03:24.000Z</time>
      </trkpt>
      <trkpt lat="52.289237" lon="-0.282492">
        <ele>33.666806</ele>
        <time>2024-07-06T12:03:31.000Z</time>
      </trkpt>
      <trkpt lat="52.289513" lon="-0.28215">
        <ele>34.436015</ele>
        <time>2024-07-06T12:03:35.000Z</time>
      </trkpt>
      <trkpt lat="52.290176" lon="-0.281099">
        <ele>36.45198</ele>
        <time>2024-07-06T12:03:45.000Z</time>
      </trkpt>
      <trkpt lat="52.290405" lon="-0.28026">
        <ele>37.35328</ele>
        <time>2024-07-06T12:03:51.000Z</time>
      </trkpt>
      <trkpt lat="52.290632" lon="-0.278963">
        <ele>38.355064</ele>
        <time>2024-07-06T12:04:00.000Z</time>
      </trkpt>
      <trkpt lat="52.290905" lon="-0.279063">
        <ele>38.701505</ele>
        <time>2024-07-06T12:04:03.000Z</time>
      </trkpt>
      <trkpt lat="52.295883" lon="-0.286228">
        <ele>43.594434</ele>
        <time>2024-07-06T12:05:17.000Z</time>
      </trkpt>
      <trkpt lat="52.296372" lon="-0.286917">
        <ele>44.306442</ele>
        <time>2024-07-06T12:05:24.000Z</time>
      </trkpt>
      <trkpt lat="52.296419" lon="-0.286984">
        <ele>44.377199</ele>
        <time>2024-07-06T12:05:25.000Z</time>
      </trkpt>
      <trkpt lat="52.298088" lon="-0.289373">
        <ele>47.537353</ele>
        <time>2024-07-06T12:05:50.000Z</time>
      </trkpt>
      <trkpt lat="52.298348" lon="-0.289741">
        <ele>47.99641</ele>
        <time>2024-07-06T12:05:54.000Z</time>
      </trkpt>
      <trkpt lat="52.299851" lon="-0.291922">
        <ele>50.798891</ele>
        <time>2024-07-06T12:06:16.000Z</time>
      </trkpt>
      <trkpt lat="52.300203" lon="-0.292448">
        <ele>51.508945</ele>
        <time>2024-07-06T12:06:21.000Z</time>
      </trkpt>
      <trkpt lat="52.301512" lon="-0.293597">
        <ele>53.391605</ele>
        <time>2024-07-06T12:06:38.000Z</time>
      </trkpt>
      <trkpt lat="52.301674" lon="-0.293689">
        <ele>53.594906</ele>
        <time>2024-07-06T12:06:40.000Z</time>
      </trkpt>
      <trkpt lat="52.304772" lon="-0.294132">
        <ele>55.89215</ele>
        <time>2024-07-06T12:07:15.000Z</time>
      </trkpt>
      <trkpt lat="52.305105" lon="-0.294293">
        <ele>56.102177</ele>
        <time>2024-07-06T12:07:19.000Z</time>
      </trkpt>
      <trkpt lat="52.305853" lon="-0.295391">
        <ele>56.702674</ele>
        <time>2024-07-06T12:07:30.000Z</time>
      </trkpt>
      <trkpt lat="52.306639" lon="-0.296275">
        <ele>57.257865</ele>
        <time>2024-07-06T12:07:41.000Z</time>
      </trkpt>
      <trkpt lat="52.306761" lon="-0.296394">
        <ele>57.343172</ele>
        <time>2024-07-06T12:07:43.000Z</time>
      </trkpt>
      <trkpt lat="52.307264" lon="-0.296786">
        <ele>57.662523</ele>
        <time>2024-07-06T12:07:49.000Z</time>
      </trkpt>
      <trkpt lat="52.307632" lon="-0.297055">
        <ele>57.670009</ele>
        <time>2024-07-06T12:07:53.000Z</time>
      </trkpt>
      <trkpt lat="52.307758" lon="-0.297232">
        <ele>57.672516</ele>
        <time>2024-07-06T12:07:55.000Z</time>
      </trkpt>
      <trkpt lat="52.307848" lon="-0.297565">
        <ele>57.676378</ele>
        <time>2024-07-06T12:07:57.000Z</time>
      </trkpt>
      <trkpt lat="52.308028" lon="-0.297723">
        <ele>57.679923</ele>
        <time>2024-07-06T12:07:59.000Z</time>
      </trkpt>
      <trkpt lat="52.309435" lon="-0.298009">
        <ele>57.137255</ele>
        <time>2024-07-06T12:08:15.000Z</time>
      </trkpt>
      <trkpt lat="52.31033" lon="-0.298205">
        <ele>56.288636</ele>
        <time>2024-07-06T12:08:25.000Z</time>
      </trkpt>
      <trkpt lat="52.311" lon="-0.298388">
        <ele>55.60184</ele>
        <time>2024-07-06T12:08:33.000Z</time>
      </trkpt>
      <trkpt lat="52.31288" lon="-0.298806">
        <ele>53.872262</ele>
        <time>2024-07-06T12:08:54.000Z</time>
      </trkpt>
      <trkpt lat="52.313249" lon="-0.298873">
        <ele>53.721095</ele>
        <time>2024-07-06T12:08:58.000Z</time>
      </trkpt>
      <trkpt lat="52.313303" lon="-0.298864">
        <ele>53.699367</ele>
        <time>2024-07-06T12:08:59.000Z</time>
      </trkpt>
      <trkpt lat="52.314387" lon="-0.298908">
        <ele>52.980016</ele>
        <time>2024-07-06T12:09:11.000Z</time>
      </trkpt>
      <trkpt lat="52.31548" lon="-0.298646">
        <ele>50.931375</ele>
        <time>2024-07-06T12:09:23.000Z</time>
      </trkpt>
      <trkpt lat="52.316098" lon="-0.298522">
        <ele>49.218918</ele>
        <time>2024-07-06T12:09:30.000Z</time>
      </trkpt>
      <trkpt lat="52.31703" lon="-0.298624">
        <ele>43.081754</ele>
        <time>2024-07-06T12:09:40.000Z</time>
      </trkpt>
      <trkpt lat="52.317684" lon="-0.298569">
        <ele>38.8749</ele>
        <time>2024-07-06T12:09:47.000Z</time>
      </trkpt>
      <trkpt lat="52.318415" lon="-0.298732">
        <ele>34.007764</ele>
        <time>2024-07-06T12:09:55.000Z</time>
      </trkpt>
      <trkpt lat="52.318953" lon="-0.29886">
        <ele>30.362881</ele>
        <time>2024-07-06T12:10:01.000Z</time>
      </trkpt>
      <trkpt lat="52.319191" lon="-0.299019">
        <ele>28.642015</ele>
        <time>2024-07-06T12:10:04.000Z</time>
      </trkpt>
      <trkpt lat="52.319661" lon="-0.299611">
        <ele>25.698104</ele>
        <time>2024-07-06T12:10:11.000Z</time>
      </trkpt>
      <trkpt lat="52.320145" lon="-0.30005">
        <ele>24.127857</ele>
        <time>2024-07-06T12:10:17.000Z</time>
      </trkpt>
      <trkpt lat="52.320532" lon="-0.300195">
        <ele>22.992236</ele>
        <time>2024-07-06T12:10:21.000Z</time>
      </trkpt>
      <trkpt lat="52.320874" lon="-0.300117">
        <ele>22.03604</ele>
        <time>2024-07-06T12:10:25.000Z</time>
      </trkpt>
      <trkpt lat="52.321446" lon="-0.299646">
        <ele>20.810146</ele>
        <time>2024-07-06T12:10:32.000Z</time>
      </trkpt>
      <trkpt lat="52.321853" lon="-0.299518">
        <ele>20.288191</ele>
        <time>2024-07-06T12:10:37.000Z</time>
      </trkpt>
      <trkpt lat="52.322438" lon="-0.299597">
        <ele>19.541291</ele>
        <time>2024-07-06T12:10:44.000Z</time>
      </trkpt>
      <trkpt lat="52.323407" lon="-0.299849">
        <ele>18.819414</ele>
        <time>2024-07-06T12:10:55.000Z</time>
      </trkpt>
      <trkpt lat="52.324467" lon="-0.300276">
        <ele>18.401772</ele>
        <time>2024-07-06T12:11:07.000Z</time>
      </trkpt>
      <trkpt lat="52.324853" lon="-0.300396">
        <ele>18.536369</ele>
        <time>2024-07-06T12:11:11.000Z</time>
      </trkpt>
      <trkpt lat="52.324943" lon="-0.300403">
        <ele>18.601762</ele>
        <time>2024-07-06T12:11:12.000Z</time>
      </trkpt>
      <trkpt lat="52.325228" lon="-0.3005">
        <ele>18.79907</ele>
        <time>2024-07-06T12:11:15.000Z</time>
      </trkpt>
      <trkpt lat="52.326073" lon="-0.300818">
        <ele>19.409964</ele>
        <time>2024-07-06T12:11:25.000Z</time>
      </trkpt>
      <trkpt lat="52.326681" lon="-0.300856">
        <ele>19.758309</ele>
        <time>2024-07-06T12:11:32.000Z</time>
      </trkpt>
      <trkpt lat="52.327356" lon="-0.300645">
        <ele>20.054097</ele>
        <time>2024-07-06T12:11:40.000Z</time>
      </trkpt>
      <trkpt lat="52.328225" lon="-0.300893">
        <ele>20.48436</ele>
        <time>2024-07-06T12:11:50.000Z</time>
      </trkpt>
      <trkpt lat="52.328657" lon="-0.300941">
        <ele>20.879285</ele>
        <time>2024-07-06T12:11:55.000Z</time>
      </trkpt>
      <trkpt lat="52.329383" lon="-0.30092">
        <ele>21.53386</ele>
        <time>2024-07-06T12:12:03.000Z</time>
      </trkpt>
      <trkpt lat="52.33021" lon="-0.300792">
        <ele>22.427975</ele>
        <time>2024-07-06T12:12:12.000Z</time>
      </trkpt>
      <trkpt lat="52.330738" lon="-0.300751">
        <ele>23.138368</ele>
        <time>2024-07-06T12:12:18.000Z</time>
      </trkpt>
      <trkpt lat="52.330782" lon="-0.300746">
        <ele>23.207703</ele>
        <time>2024-07-06T12:12:18.000Z</time>
      </trkpt>
      <trkpt lat="52.331079" lon="-0.300722">
        <ele>23.59143</ele>
        <time>2024-07-06T12:12:21.000Z</time>
      </trkpt>
      <trkpt lat="52.331062" lon="-0.300726">
        <ele>23.591434</ele>
        <time>2024-07-06T12:12:21.000Z</time>
      </trkpt>
      <trkpt lat="52.331074" lon="-0.300729">
        <ele>23.591434</ele>
        <time>2024-07-06T12:12:21.000Z</time>
      </trkpt>
      <trkpt lat="52.33163" lon="-0.300742">
        <ele>24.341642</ele>
        <time>2024-07-06T12:12:27.000Z</time>
      </trkpt>
      <trkpt lat="52.331902" lon="-0.300603">
        <ele>24.357259</ele>
        <time>2024-07-06T12:12:30.000Z</time>
      </trkpt>
      <trkpt lat="52.331992" lon="-0.300519">
        <ele>24.286194</ele>
        <time>2024-07-06T12:12:31.000Z</time>
      </trkpt>
      <trkpt lat="52.331841" lon="-0.300288">
        <ele>24.146248</ele>
        <time>2024-07-06T12:12:33.000Z</time>
      </trkpt>
      <trkpt lat="52.331532" lon="-0.300278">
        <ele>23.937772</ele>
        <time>2024-07-06T12:12:36.000Z</time>
      </trkpt>
      <trkpt lat="52.331202" lon="-0.300424">
        <ele>23.703569</ele>
        <time>2024-07-06T12:12:40.000Z</time>
      </trkpt>
      <trkpt lat="52.331052" lon="-0.300564">
        <ele>23.582811</ele>
        <time>2024-07-06T12:12:42.000Z</time>
      </trkpt>
      <trkpt lat="52.331066" lon="-0.300721">
        <ele>23.516032</ele>
        <time>2024-07-06T12:12:43.000Z</time>
      </trkpt>
      <trkpt lat="52.33107" lon="-0.300724">
        <ele>23.516044</ele>
        <time>2024-07-06T12:12:43.000Z</time>
      </trkpt>
      <trkpt lat="52.33078" lon="-0.300744">
        <ele>23.321864</ele>
        <time>2024-07-06T12:12:46.000Z</time>
      </trkpt>
      <trkpt lat="52.330736" lon="-0.30076">
        <ele>23.286786</ele>
        <time>2024-07-06T12:12:47.000Z</time>
      </trkpt>
      <trkpt lat="52.330211" lon="-0.300788">
        <ele>22.61712</ele>
        <time>2024-07-06T12:12:53.000Z</time>
      </trkpt>
      <trkpt lat="52.329385" lon="-0.300912">
        <ele>21.471078</ele>
        <time>2024-07-06T12:13:02.000Z</time>
      </trkpt>
      <trkpt lat="52.328665" lon="-0.300935">
        <ele>20.705161</ele>
        <time>2024-07-06T12:13:10.000Z</time>
      </trkpt>
      <trkpt lat="52.328227" lon="-0.300885">
        <ele>20.530442</ele>
        <time>2024-07-06T12:13:15.000Z</time>
      </trkpt>
      <trkpt lat="52.327347" lon="-0.300655">
        <ele>20.175203</ele>
        <time>2024-07-06T12:13:25.000Z</time>
      </trkpt>
      <trkpt lat="52.326692" lon="-0.300853">
        <ele>19.757642</ele>
        <time>2024-07-06T12:13:32.000Z</time>
      </trkpt>
      <trkpt lat="52.326077" lon="-0.30082">
        <ele>19.291243</ele>
        <time>2024-07-06T12:13:39.000Z</time>
      </trkpt>
      <trkpt lat="52.325222" lon="-0.300512">
        <ele>18.705022</ele>
        <time>2024-07-06T12:13:49.000Z</time>
      </trkpt>
      <trkpt lat="52.32494" lon="-0.300407">
        <ele>18.669651</ele>
        <time>2024-07-06T12:13:52.000Z</time>
      </trkpt>
      <trkpt lat="52.324852" lon="-0.300385">
        <ele>18.657913</ele>
        <time>2024-07-06T12:13:53.000Z</time>
      </trkpt>
      <trkpt lat="52.324458" lon="-0.300286">
        <ele>18.607969</ele>
        <time>2024-07-06T12:13:57.000Z</time>
      </trkpt>
      <trkpt lat="52.32341" lon="-0.299842">
        <ele>18.66005</ele>
        <time>2024-07-06T12:14:09.000Z</time>
      </trkpt>
      <trkpt lat="52.322441" lon="-0.299603">
        <ele>19.604271</ele>
        <time>2024-07-06T12:14:20.000Z</time>
      </trkpt>
      <trkpt lat="52.321858" lon="-0.299513">
        <ele>20.177578</ele>
        <time>2024-07-06T12:14:27.000Z</time>
      </trkpt>
      <trkpt lat="52.321447" lon="-0.299638">
        <ele>20.899403</ele>
        <time>2024-07-06T12:14:32.000Z</time>
      </trkpt>
      <trkpt lat="52.320878" lon="-0.300123">
        <ele>22.137726</ele>
        <time>2024-07-06T12:14:39.000Z</time>
      </trkpt>
      <trkpt lat="52.320537" lon="-0.300177">
        <ele>22.777457</ele>
        <time>2024-07-06T12:14:43.000Z</time>
      </trkpt>
      <trkpt lat="52.320139" lon="-0.300051">
        <ele>23.537222</ele>
        <time>2024-07-06T12:14:48.000Z</time>
      </trkpt>
      <trkpt lat="52.319653" lon="-0.299597">
        <ele>26.136601</ele>
        <time>2024-07-06T12:14:54.000Z</time>
      </trkpt>
      <trkpt lat="52.319198" lon="-0.299012">
        <ele>29.06819</ele>
        <time>2024-07-06T12:15:00.000Z</time>
      </trkpt>
      <trkpt lat="52.318942" lon="-0.298854">
        <ele>30.364164</ele>
        <time>2024-07-06T12:15:03.000Z</time>
      </trkpt>
      <trkpt lat="52.318411" lon="-0.298718">
        <ele>33.344843</ele>
        <time>2024-07-06T12:15:09.000Z</time>
      </trkpt>
      <trkpt lat="52.317671" lon="-0.298574">
        <ele>38.817895</ele>
        <time>2024-07-06T12:15:17.000Z</time>
      </trkpt>
      <trkpt lat="52.317026" lon="-0.298622">
        <ele>43.634101</ele>
        <time>2024-07-06T12:15:24.000Z</time>
      </trkpt>
      <trkpt lat="52.316093" lon="-0.298519">
        <ele>48.367763</ele>
        <time>2024-07-06T12:15:34.000Z</time>
      </trkpt>
      <trkpt lat="52.315477" lon="-0.298645">
        <ele>50.681942</ele>
        <time>2024-07-06T12:15:41.000Z</time>
      </trkpt>
      <trkpt lat="52.314391" lon="-0.298899">
        <ele>53.045761</ele>
        <time>2024-07-06T12:15:53.000Z</time>
      </trkpt>
      <trkpt lat="52.313302" lon="-0.298873">
        <ele>53.53915</ele>
        <time>2024-07-06T12:16:05.000Z</time>
      </trkpt>
      <trkpt lat="52.313255" lon="-0.298866">
        <ele>53.564336</ele>
        <time>2024-07-06T12:16:06.000Z</time>
      </trkpt>
      <trkpt lat="52.312871" lon="-0.298809">
        <ele>53.842568</ele>
        <time>2024-07-06T12:16:10.000Z</time>
      </trkpt>
      <trkpt lat="52.311005" lon="-0.298382">
        <ele>55.551208</ele>
        <time>2024-07-06T12:16:31.000Z</time>
      </trkpt>
      <trkpt lat="52.31033" lon="-0.298201">
        <ele>56.313441</ele>
        <time>2024-07-06T12:16:39.000Z</time>
      </trkpt>
      <trkpt lat="52.309419" lon="-0.297996">
        <ele>57.247152</ele>
        <time>2024-07-06T12:16:49.000Z</time>
      </trkpt>
      <trkpt lat="52.308042" lon="-0.297731">
        <ele>57.774669</ele>
        <time>2024-07-06T12:17:04.000Z</time>
      </trkpt>
      <trkpt lat="52.307862" lon="-0.297557">
        <ele>57.853791</ele>
        <time>2024-07-06T12:17:06.000Z</time>
      </trkpt>
      <trkpt lat="52.307744" lon="-0.297223">
        <ele>57.787018</ele>
        <time>2024-07-06T12:17:09.000Z</time>
      </trkpt>
      <trkpt lat="52.307642" lon="-0.297065">
        <ele>57.721549</ele>
        <time>2024-07-06T12:17:11.000Z</time>
      </trkpt>
      <trkpt lat="52.307254" lon="-0.296781">
        <ele>57.539383</ele>
        <time>2024-07-06T12:17:16.000Z</time>
      </trkpt>
      <trkpt lat="52.306773" lon="-0.296385">
        <ele>57.297478</ele>
        <time>2024-07-06T12:17:22.000Z</time>
      </trkpt>
      <trkpt lat="52.306644" lon="-0.296277">
        <ele>57.232863</ele>
        <time>2024-07-06T12:17:24.000Z</time>
      </trkpt>
      <trkpt lat="52.305856" lon="-0.295401">
        <ele>56.712767</ele>
        <time>2024-07-06T12:17:35.000Z</time>
      </trkpt>
      <trkpt lat="52.305106" lon="-0.294304">
        <ele>56.103957</ele>
        <time>2024-07-06T12:17:46.000Z</time>
      </trkpt>
      <trkpt lat="52.304758" lon="-0.294134">
        <ele>55.891842</ele>
        <time>2024-07-06T12:17:50.000Z</time>
      </trkpt>
      <trkpt lat="52.301676" lon="-0.29368">
        <ele>53.676393</ele>
        <time>2024-07-06T12:18:24.000Z</time>
      </trkpt>
      <trkpt lat="52.301494" lon="-0.293594">
        <ele>53.530711</ele>
        <time>2024-07-06T12:18:26.000Z</time>
      </trkpt>
      <trkpt lat="52.300212" lon="-0.292464">
        <ele>51.471502</ele>
        <time>2024-07-06T12:18:42.000Z</time>
      </trkpt>
      <trkpt lat="52.299845" lon="-0.291931">
        <ele>50.763147</ele>
        <time>2024-07-06T12:18:47.000Z</time>
      </trkpt>
      <trkpt lat="52.298346" lon="-0.28975">
        <ele>47.996979</ele>
        <time>2024-07-06T12:19:09.000Z</time>
      </trkpt>
      <trkpt lat="52.298087" lon="-0.289382">
        <ele>47.515194</ele>
        <time>2024-07-06T12:19:13.000Z</time>
      </trkpt>
      <trkpt lat="52.296421" lon="-0.286985">
        <ele>44.407223</ele>
        <time>2024-07-06T12:19:38.000Z</time>
      </trkpt>
      <trkpt lat="52.296373" lon="-0.286907">
        <ele>44.319511</ele>
        <time>2024-07-06T12:19:39.000Z</time>
      </trkpt>
      <trkpt lat="52.295872" lon="-0.286218">
        <ele>43.43698</ele>
        <time>2024-07-06T12:19:46.000Z</time>
      </trkpt>
      <trkpt lat="52.290917" lon="-0.279058">
        <ele>38.749539</ele>
        <time>2024-07-06T12:21:00.000Z</time>
      </trkpt>
      <trkpt lat="52.290625" lon="-0.278965">
        <ele>38.525835</ele>
        <time>2024-07-06T12:21:03.000Z</time>
      </trkpt>
      <trkpt lat="52.290392" lon="-0.280257">
        <ele>37.298308</ele>
        <time>2024-07-06T12:21:12.000Z</time>
      </trkpt>
      <trkpt lat="52.290181" lon="-0.281091">
        <ele>36.108125</ele>
        <time>2024-07-06T12:21:18.000Z</time>
      </trkpt>
      <trkpt lat="52.289515" lon="-0.282151">
        <ele>34.343781</ele>
        <time>2024-07-06T12:21:28.000Z</time>
      </trkpt>
      <trkpt lat="52.289238" lon="-0.282489">
        <ele>34.290656</ele>
        <time>2024-07-06T12:21:32.000Z</time>
      </trkpt>
      <trkpt lat="52.288696" lon="-0.283">
        <ele>34.195394</ele>
        <time>2024-07-06T12:21:39.000Z</time>
      </trkpt>
      <trkpt lat="52.28577" lon="-0.28509">
        <ele>41.160767</ele>
        <time>2024-07-06T12:22:15.000Z</time>
      </trkpt>
      <trkpt lat="52.284911" lon="-0.285821">
        <ele>43.928955</ele>
        <time>2024-07-06T12:22:26.000Z</time>
      </trkpt>
      <trkpt lat="52.284354" lon="-0.286566">
        <ele>45.246886</ele>
        <time>2024-07-06T12:22:34.000Z</time>
      </trkpt>
      <trkpt lat="52.28392" lon="-0.287397">
        <ele>46.337409</ele>
        <time>2024-07-06T12:22:41.000Z</time>
      </trkpt>
      <trkpt lat="52.283513" lon="-0.288506">
        <ele>47.327232</ele>
        <time>2024-07-06T12:22:50.000Z</time>
      </trkpt>
      <trkpt lat="52.283373" lon="-0.289083">
        <ele>47.508526</ele>
        <time>2024-07-06T12:22:54.000Z</time>
      </trkpt>
      <trkpt lat="52.283242" lon="-0.289885">
        <ele>47.745516</ele>
        <time>2024-07-06T12:23:00.000Z</time>
      </trkpt>
      <trkpt lat="52.283185" lon="-0.290544">
        <ele>47.939243</ele>
        <time>2024-07-06T12:23:05.000Z</time>
      </trkpt>
      <trkpt lat="52.283199" lon="-0.291897">
        <ele>48.240238</ele>
        <time>2024-07-06T12:23:14.000Z</time>
      </trkpt>
      <trkpt lat="52.283472" lon="-0.294799">
        <ele>48.916139</ele>
        <time>2024-07-06T12:23:34.000Z</time>
      </trkpt>
      <trkpt lat="52.283705" lon="-0.2967">
        <ele>49.534057</ele>
        <time>2024-07-06T12:23:47.000Z</time>
      </trkpt>
      <trkpt lat="52.284029" lon="-0.298766">
        <ele>49.874051</ele>
        <time>2024-07-06T12:24:02.000Z</time>
      </trkpt>
      <trkpt lat="52.284092" lon="-0.299081">
        <ele>49.926274</ele>
        <time>2024-07-06T12:24:04.000Z</time>
      </trkpt>
      <trkpt lat="52.284823" lon="-0.302578">
        <ele>49.800573</ele>
        <time>2024-07-06T12:24:29.000Z</time>
      </trkpt>
      <trkpt lat="52.284918" lon="-0.302897">
        <ele>49.871659</ele>
        <time>2024-07-06T12:24:31.000Z</time>
      </trkpt>
      <trkpt lat="52.285011" lon="-0.303251">
        <ele>49.953175</ele>
        <time>2024-07-06T12:24:34.000Z</time>
      </trkpt>
      <trkpt lat="52.285108" lon="-0.303682">
        <ele>50.05129</ele>
        <time>2024-07-06T12:24:37.000Z</time>
      </trkpt>
      <trkpt lat="52.285607" lon="-0.305355">
        <ele>50.548977</ele>
        <time>2024-07-06T12:24:50.000Z</time>
      </trkpt>
      <trkpt lat="52.286371" lon="-0.307421">
        <ele>51.988068</ele>
        <time>2024-07-06T12:25:06.000Z</time>
      </trkpt>
      <trkpt lat="52.286753" lon="-0.308513">
        <ele>52.779744</ele>
        <time>2024-07-06T12:25:15.000Z</time>
      </trkpt>
      <trkpt lat="52.286907" lon="-0.308908">
        <ele>53.086174</ele>
        <time>2024-07-06T12:25:18.000Z</time>
      </trkpt>
      <trkpt lat="52.287111" lon="-0.309491">
        <ele>53.517197</ele>
        <time>2024-07-06T12:25:23.000Z</time>
      </trkpt>
      <trkpt lat="52.287316" lon="-0.310402">
        <ele>54.10441</ele>
        <time>2024-07-06T12:25:30.000Z</time>
      </trkpt>
      <trkpt lat="52.2874" lon="-0.311179">
        <ele>54.46667</ele>
        <time>2024-07-06T12:25:35.000Z</time>
      </trkpt>
      <trkpt lat="52.287361" lon="-0.312198">
        <ele>54.933076</ele>
        <time>2024-07-06T12:25:42.000Z</time>
      </trkpt>
      <trkpt lat="52.287379" lon="-0.312789">
        <ele>55.20062</ele>
        <time>2024-07-06T12:25:46.000Z</time>
      </trkpt>
      <trkpt lat="52.287723" lon="-0.314154">
        <ele>55.949334</ele>
        <time>2024-07-06T12:25:56.000Z</time>
      </trkpt>
      <trkpt lat="52.287761" lon="-0.314445">
        <ele>56.098246</ele>
        <time>2024-07-06T12:25:58.000Z</time>
      </trkpt>
      <trkpt lat="52.287771" lon="-0.314529">
        <ele>56.141037</ele>
        <time>2024-07-06T12:25:59.000Z</time>
      </trkpt>
      <trkpt lat="52.287875" lon="-0.31579">
        <ele>56.808177</ele>
        <time>2024-07-06T12:26:08.000Z</time>
      </trkpt>
      <trkpt lat="52.287874" lon="-0.316935">
        <ele>57.314559</ele>
        <time>2024-07-06T12:26:16.000Z</time>
      </trkpt>
      <trkpt lat="52.287981" lon="-0.317704">
        <ele>57.661803</ele>
        <time>2024-07-06T12:26:21.000Z</time>
      </trkpt>
      <trkpt lat="52.288031" lon="-0.317871">
        <ele>57.745673</ele>
        <time>2024-07-06T12:26:22.000Z</time>
      </trkpt>
      <trkpt lat="52.288072" lon="-0.31802">
        <ele>57.811274</ele>
        <time>2024-07-06T12:26:23.000Z</time>
      </trkpt>
      <trkpt lat="52.288332" lon="-0.318683">
        <ele>58.159717</ele>
        <time>2024-07-06T12:26:28.000Z</time>
      </trkpt>
      <trkpt lat="52.288347" lon="-0.318744">
        <ele>58.164093</ele>
        <time>2024-07-06T12:26:28.000Z</time>
      </trkpt>
      <trkpt lat="52.288413" lon="-0.319053">
        <ele>58.150354</ele>
        <time>2024-07-06T12:26:30.000Z</time>
      </trkpt>
      <trkpt lat="52.28841" lon="-0.31945">
        <ele>58.133867</ele>
        <time>2024-07-06T12:26:33.000Z</time>
      </trkpt>
      <trkpt lat="52.288385" lon="-0.319814">
        <ele>58.119191</ele>
        <time>2024-07-06T12:26:35.000Z</time>
      </trkpt>
      <trkpt lat="52.288422" lon="-0.320153">
        <ele>58.105062</ele>
        <time>2024-07-06T12:26:37.000Z</time>
      </trkpt>
      <trkpt lat="52.288482" lon="-0.320413">
        <ele>58.09336</ele>
        <time>2024-07-06T12:26:39.000Z</time>
      </trkpt>
      <trkpt lat="52.288681" lon="-0.320615">
        <ele>58.078066</ele>
        <time>2024-07-06T12:26:42.000Z</time>
      </trkpt>
      <trkpt lat="52.288992" lon="-0.32083">
        <ele>58.055452</ele>
        <time>2024-07-06T12:26:46.000Z</time>
      </trkpt>
      <trkpt lat="52.289319" lon="-0.321294">
        <ele>58.032227</ele>
        <time>2024-07-06T12:26:51.000Z</time>
      </trkpt>
      <trkpt lat="52.289381" lon="-0.321461">
        <ele>58.026545</ele>
        <time>2024-07-06T12:26:52.000Z</time>
      </trkpt>
      <trkpt lat="52.289674" lon="-0.322043">
        <ele>58.005392</ele>
        <time>2024-07-06T12:26:57.000Z</time>
      </trkpt>
      <trkpt lat="52.289756" lon="-0.322549">
        <ele>57.990499</ele>
        <time>2024-07-06T12:27:01.000Z</time>
      </trkpt>
      <trkpt lat="52.289762" lon="-0.323055">
        <ele>57.976732</ele>
        <time>2024-07-06T12:27:04.000Z</time>
      </trkpt>
      <trkpt lat="52.28965" lon="-0.323689">
        <ele>58.090296</ele>
        <time>2024-07-06T12:27:08.000Z</time>
      </trkpt>
      <trkpt lat="52.289506" lon="-0.32426">
        <ele>58.579502</ele>
        <time>2024-07-06T12:27:12.000Z</time>
      </trkpt>
      <trkpt lat="52.289279" lon="-0.32508">
        <ele>59.291898</ele>
        <time>2024-07-06T12:27:18.000Z</time>
      </trkpt>
      <trkpt lat="52.288909" lon="-0.326511">
        <ele>60.50832</ele>
        <time>2024-07-06T12:27:29.000Z</time>
      </trkpt>
      <trkpt lat="52.288619" lon="-0.327205">
        <ele>61.138588</ele>
        <time>2024-07-06T12:27:35.000Z</time>
      </trkpt>
      <trkpt lat="52.286758" lon="-0.330235">
        <ele>62.862622</ele>
        <time>2024-07-06T12:28:04.000Z</time>
      </trkpt>
      <trkpt lat="52.28585" lon="-0.33224">
        <ele>60.273185</ele>
        <time>2024-07-06T12:28:21.000Z</time>
      </trkpt>
      <trkpt lat="52.284954" lon="-0.333135">
        <ele>57.288946</ele>
        <time>2024-07-06T12:28:33.000Z</time>
      </trkpt>
      <trkpt lat="52.28433" lon="-0.333739">
        <ele>54.601791</ele>
        <time>2024-07-06T12:28:41.000Z</time>
      </trkpt>
      <trkpt lat="52.283724" lon="-0.334515">
        <ele>51.524956</ele>
        <time>2024-07-06T12:28:50.000Z</time>
      </trkpt>
      <trkpt lat="52.282848" lon="-0.335352">
        <ele>46.208859</ele>
        <time>2024-07-06T12:29:01.000Z</time>
      </trkpt>
      <trkpt lat="52.281532" lon="-0.336335">
        <ele>40.429174</ele>
        <time>2024-07-06T12:29:17.000Z</time>
      </trkpt>
      <trkpt lat="52.279012" lon="-0.3381">
        <ele>35.350874</ele>
        <time>2024-07-06T12:29:47.000Z</time>
      </trkpt>
      <trkpt lat="52.278277" lon="-0.338725">
        <ele>34.325893</ele>
        <time>2024-07-06T12:29:56.000Z</time>
      </trkpt>
      <trkpt lat="52.278217" lon="-0.33876">
        <ele>34.250673</ele>
        <time>2024-07-06T12:29:57.000Z</time>
      </trkpt>
      <trkpt lat="52.276535" lon="-0.340765">
        <ele>31.424719</ele>
        <time>2024-07-06T12:30:20.000Z</time>
      </trkpt>
      <trkpt lat="52.274779" lon="-0.342831">
        <ele>29.310141</ele>
        <time>2024-07-06T12:30:44.000Z</time>
      </trkpt>
      <trkpt lat="52.273598" lon="-0.344225">
        <ele>29.078087</ele>
        <time>2024-07-06T12:31:00.000Z</time>
      </trkpt>
      <trkpt lat="52.272954" lon="-0.344999">
        <ele>29.078879</ele>
        <time>2024-07-06T12:31:09.000Z</time>
      </trkpt>
      <trkpt lat="52.272374" lon="-0.345679">
        <ele>29.145005</ele>
        <time>2024-07-06T12:31:17.000Z</time>
      </trkpt>
      <trkpt lat="52.271605" lon="-0.346626">
        <ele>29.279266</ele>
        <time>2024-07-06T12:31:28.000Z</time>
      </trkpt>
      <trkpt lat="52.271482" lon="-0.346527">
        <ele>29.372909</ele>
        <time>2024-07-06T12:31:30.000Z</time>
      </trkpt>
      <trkpt lat="52.270844" lon="-0.346336">
        <ele>29.81854</ele>
        <time>2024-07-06T12:31:37.000Z</time>
      </trkpt>
      <trkpt lat="52.27082" lon="-0.346322">
        <ele>29.841646</ele>
        <time>2024-07-06T12:31:37.000Z</time>
      </trkpt>
      <trkpt lat="52.2706" lon="-0.346286">
        <ele>29.994664</ele>
        <time>2024-07-06T12:31:39.000Z</time>
      </trkpt>
      <trkpt lat="52.270316" lon="-0.346184">
        <ele>30.201864</ele>
        <time>2024-07-06T12:31:42.000Z</time>
      </trkpt>
      <trkpt lat="52.269864" lon="-0.346023">
        <ele>30.500664</ele>
        <time>2024-07-06T12:31:47.000Z</time>
      </trkpt>
      <trkpt lat="52.269161" lon="-0.345669">
        <ele>30.750335</ele>
        <time>2024-07-06T12:31:55.000Z</time>
      </trkpt>
      <trkpt lat="52.268918" lon="-0.34556">
        <ele>30.840674</ele>
        <time>2024-07-06T12:31:58.000Z</time>
      </trkpt>
      <trkpt lat="52.268556" lon="-0.345469">
        <ele>30.964137</ele>
        <time>2024-07-06T12:32:02.000Z</time>
      </trkpt>
      <trkpt lat="52.268289" lon="-0.345301">
        <ele>31.063849</ele>
        <time>2024-07-06T12:32:05.000Z</time>
      </trkpt>
      <trkpt lat="52.26815" lon="-0.344478">
        <ele>30.59862</ele>
        <time>2024-07-06T12:32:11.000Z</time>
      </trkpt>
      <trkpt lat="52.268108" lon="-0.344041">
        <ele>30.276773</ele>
        <time>2024-07-06T12:32:14.000Z</time>
      </trkpt>
      <trkpt lat="52.268097" lon="-0.343943">
        <ele>30.20344</ele>
        <time>2024-07-06T12:32:15.000Z</time>
      </trkpt>
      <trkpt lat="52.267971" lon="-0.342874">
        <ele>29.406448</ele>
        <time>2024-07-06T12:32:22.000Z</time>
      </trkpt>
      <trkpt lat="52.267897" lon="-0.342328">
        <ele>29.00296</ele>
        <time>2024-07-06T12:32:26.000Z</time>
      </trkpt>
      <trkpt lat="52.267764" lon="-0.341547">
        <ele>28.208681</ele>
        <time>2024-07-06T12:32:32.000Z</time>
      </trkpt>
      <trkpt lat="52.26759" lon="-0.340585">
        <ele>27.196903</ele>
        <time>2024-07-06T12:32:39.000Z</time>
      </trkpt>
      <trkpt lat="52.267514" lon="-0.340209">
        <ele>26.806391</ele>
        <time>2024-07-06T12:32:42.000Z</time>
      </trkpt>
      <trkpt lat="52.267119" lon="-0.338105">
        <ele>25.464525</ele>
        <time>2024-07-06T12:32:57.000Z</time>
      </trkpt>
      <trkpt lat="52.267089" lon="-0.33798">
        <ele>25.412549</ele>
        <time>2024-07-06T12:32:58.000Z</time>
      </trkpt>
      <trkpt lat="52.267018" lon="-0.337578">
        <ele>25.248349</ele>
        <time>2024-07-06T12:33:01.000Z</time>
      </trkpt>
      <trkpt lat="52.266639" lon="-0.335712">
        <ele>25.071617</ele>
        <time>2024-07-06T12:33:14.000Z</time>
      </trkpt>
      <trkpt lat="52.266301" lon="-0.334024">
        <ele>25.43574</ele>
        <time>2024-07-06T12:33:26.000Z</time>
      </trkpt>
      <trkpt lat="52.265897" lon="-0.333">
        <ele>25.804342</ele>
        <time>2024-07-06T12:33:34.000Z</time>
      </trkpt>
      <trkpt lat="52.264363" lon="-0.331201">
        <ele>26.585319</ele>
        <time>2024-07-06T12:33:55.000Z</time>
      </trkpt>
      <trkpt lat="52.264154" lon="-0.330887">
        <ele>26.652918</ele>
        <time>2024-07-06T12:33:58.000Z</time>
      </trkpt>
      <trkpt lat="52.263944" lon="-0.330477">
        <ele>26.731179</ele>
        <time>2024-07-06T12:34:02.000Z</time>
      </trkpt>
      <trkpt lat="52.261168" lon="-0.321861">
        <ele>25.222977</ele>
        <time>2024-07-06T12:35:08.000Z</time>
      </trkpt>
      <trkpt lat="52.260796" lon="-0.320938">
        <ele>24.881168</ele>
        <time>2024-07-06T12:35:16.000Z</time>
      </trkpt>
      <trkpt lat="52.260483" lon="-0.319892">
        <ele>24.519382</ele>
        <time>2024-07-06T12:35:24.000Z</time>
      </trkpt>
      <trkpt lat="52.260115" lon="-0.31909">
        <ele>24.255998</ele>
        <time>2024-07-06T12:35:31.000Z</time>
      </trkpt>
      <trkpt lat="52.259791" lon="-0.318516">
        <ele>24.078986</ele>
        <time>2024-07-06T12:35:36.000Z</time>
      </trkpt>
      <trkpt lat="52.258183" lon="-0.314668">
        <ele>23.086023</ele>
        <time>2024-07-06T12:36:08.000Z</time>
      </trkpt>
      <trkpt lat="52.257683" lon="-0.31343">
        <ele>22.499923</ele>
        <time>2024-07-06T12:36:18.000Z</time>
      </trkpt>
      <trkpt lat="52.257222" lon="-0.31226">
        <ele>21.958214</ele>
        <time>2024-07-06T12:36:27.000Z</time>
      </trkpt>
      <trkpt lat="52.256627" lon="-0.311256">
        <ele>21.974582</ele>
        <time>2024-07-06T12:36:37.000Z</time>
      </trkpt>
      <trkpt lat="52.256373" lon="-0.311115">
        <ele>21.979949</ele>
        <time>2024-07-06T12:36:40.000Z</time>
      </trkpt>
      <trkpt lat="52.255589" lon="-0.310954">
        <ele>22.158246</ele>
        <time>2024-07-06T12:36:49.000Z</time>
      </trkpt>
      <trkpt lat="52.255375" lon="-0.310757">
        <ele>22.507383</ele>
        <time>2024-07-06T12:36:52.000Z</time>
      </trkpt>
      <trkpt lat="52.254403" lon="-0.309347">
        <ele>24.323607</ele>
        <time>2024-07-06T12:37:06.000Z</time>
      </trkpt>
      <trkpt lat="52.254192" lon="-0.308918">
        <ele>24.951745</ele>
        <time>2024-07-06T12:37:10.000Z</time>
      </trkpt>
      <trkpt lat="52.253806" lon="-0.308107">
        <ele>26.346438</ele>
        <time>2024-07-06T12:37:17.000Z</time>
      </trkpt>
      <trkpt lat="52.253287" lon="-0.307121">
        <ele>28.060849</ele>
        <time>2024-07-06T12:37:26.000Z</time>
      </trkpt>
      <trkpt lat="52.253116" lon="-0.306885">
        <ele>28.535289</ele>
        <time>2024-07-06T12:37:28.000Z</time>
      </trkpt>
      <trkpt lat="52.252911" lon="-0.306821">
        <ele>28.949035</ele>
        <time>2024-07-06T12:37:30.000Z</time>
      </trkpt>
      <trkpt lat="52.25209" lon="-0.307006">
        <ele>30.527847</ele>
        <time>2024-07-06T12:37:39.000Z</time>
      </trkpt>
      <trkpt lat="52.25138" lon="-0.307127">
        <ele>31.849061</ele>
        <time>2024-07-06T12:37:47.000Z</time>
      </trkpt>
      <trkpt lat="52.250447" lon="-0.306797">
        <ele>32.490193</ele>
        <time>2024-07-06T12:37:58.000Z</time>
      </trkpt>
      <trkpt lat="52.249818" lon="-0.306726">
        <ele>32.911006</ele>
        <time>2024-07-06T12:38:05.000Z</time>
      </trkpt>
      <trkpt lat="52.249226" lon="-0.30666">
        <ele>33.139261</ele>
        <time>2024-07-06T12:38:12.000Z</time>
      </trkpt>
      <trkpt lat="52.24899" lon="-0.306576">
        <ele>33.191073</ele>
        <time>2024-07-06T12:38:15.000Z</time>
      </trkpt>
      <trkpt lat="52.248577" lon="-0.30627">
        <ele>33.295353</ele>
        <time>2024-07-06T12:38:20.000Z</time>
      </trkpt>
      <trkpt lat="52.248098" lon="-0.305457">
        <ele>33.452636</ele>
        <time>2024-07-06T12:38:28.000Z</time>
      </trkpt>
      <trkpt lat="52.247482" lon="-0.30367">
        <ele>33.622977</ele>
        <time>2024-07-06T12:38:42.000Z</time>
      </trkpt>
      <trkpt lat="52.247329" lon="-0.30327">
        <ele>33.660643</ele>
        <time>2024-07-06T12:38:45.000Z</time>
      </trkpt>
      <trkpt lat="52.247092" lon="-0.302624">
        <ele>33.67343</ele>
        <time>2024-07-06T12:38:50.000Z</time>
      </trkpt>
      <trkpt lat="52.246792" lon="-0.302104">
        <ele>33.612565</ele>
        <time>2024-07-06T12:38:55.000Z</time>
      </trkpt>
      <trkpt lat="52.246349" lon="-0.301422">
        <ele>33.528229</ele>
        <time>2024-07-06T12:39:02.000Z</time>
      </trkpt>
      <trkpt lat="52.24547" lon="-0.300351">
        <ele>32.935436</ele>
        <time>2024-07-06T12:39:14.000Z</time>
      </trkpt>
      <trkpt lat="52.245176" lon="-0.299984">
        <ele>32.557436</ele>
        <time>2024-07-06T12:39:18.000Z</time>
      </trkpt>
      <trkpt lat="52.24496" lon="-0.299613">
        <ele>32.253344</ele>
        <time>2024-07-06T12:39:21.000Z</time>
      </trkpt>
      <trkpt lat="52.244275" lon="-0.298777">
        <ele>31.516542</ele>
        <time>2024-07-06T12:39:31.000Z</time>
      </trkpt>
      <trkpt lat="52.243981" lon="-0.298425">
        <ele>31.306819</ele>
        <time>2024-07-06T12:39:35.000Z</time>
      </trkpt>
      <trkpt lat="52.24362" lon="-0.29773">
        <ele>30.992871</ele>
        <time>2024-07-06T12:39:41.000Z</time>
      </trkpt>
      <trkpt lat="52.242791" lon="-0.295868">
        <ele>31.181123</ele>
        <time>2024-07-06T12:39:57.000Z</time>
      </trkpt>
      <trkpt lat="52.242646" lon="-0.295453">
        <ele>31.372389</ele>
        <time>2024-07-06T12:40:00.000Z</time>
      </trkpt>
      <trkpt lat="52.242412" lon="-0.294395">
        <ele>31.824149</ele>
        <time>2024-07-06T12:40:08.000Z</time>
      </trkpt>
      <trkpt lat="52.242278" lon="-0.293962">
        <ele>31.983987</ele>
        <time>2024-07-06T12:40:11.000Z</time>
      </trkpt>
      <trkpt lat="52.242056" lon="-0.293628">
        <ele>32.129373</ele>
        <time>2024-07-06T12:40:14.000Z</time>
      </trkpt>
      <trkpt lat="52.241867" lon="-0.293463">
        <ele>32.239892</ele>
        <time>2024-07-06T12:40:16.000Z</time>
      </trkpt>
      <trkpt lat="52.241375" lon="-0.293253">
        <ele>32.489089</ele>
        <time>2024-07-06T12:40:22.000Z</time>
      </trkpt>
      <trkpt lat="52.241188" lon="-0.293218">
        <ele>32.58641</ele>
        <time>2024-07-06T12:40:24.000Z</time>
      </trkpt>
      <trkpt lat="52.240562" lon="-0.29315">
        <ele>32.682172</ele>
        <time>2024-07-06T12:40:31.000Z</time>
      </trkpt>
      <trkpt lat="52.240209" lon="-0.292964">
        <ele>32.619678</ele>
        <time>2024-07-06T12:40:35.000Z</time>
      </trkpt>
      <trkpt lat="52.239599" lon="-0.292164">
        <ele>32.486209</ele>
        <time>2024-07-06T12:40:44.000Z</time>
      </trkpt>
      <trkpt lat="52.239445" lon="-0.291871">
        <ele>32.444584</ele>
        <time>2024-07-06T12:40:47.000Z</time>
      </trkpt>
      <trkpt lat="52.239254" lon="-0.291533">
        <ele>32.410012</ele>
        <time>2024-07-06T12:40:50.000Z</time>
      </trkpt>
      <trkpt lat="52.239098" lon="-0.291053">
        <ele>32.37466</ele>
        <time>2024-07-06T12:40:54.000Z</time>
      </trkpt>
      <trkpt lat="52.238315" lon="-0.287879">
        <ele>32.258343</ele>
        <time>2024-07-06T12:41:17.000Z</time>
      </trkpt>
      <trkpt lat="52.237793" lon="-0.286301">
        <ele>32.297716</ele>
        <time>2024-07-06T12:41:29.000Z</time>
      </trkpt>
      <trkpt lat="52.237757" lon="-0.286167">
        <ele>32.312012</ele>
        <time>2024-07-06T12:41:30.000Z</time>
      </trkpt>
      <trkpt lat="52.237436" lon="-0.28525">
        <ele>32.403913</ele>
        <time>2024-07-06T12:41:37.000Z</time>
      </trkpt>
      <trkpt lat="52.23706" lon="-0.284211">
        <ele>32.510237</ele>
        <time>2024-07-06T12:41:45.000Z</time>
      </trkpt>
      <trkpt lat="52.236693" lon="-0.283359">
        <ele>32.425641</ele>
        <time>2024-07-06T12:41:52.000Z</time>
      </trkpt>
      <trkpt lat="52.236468" lon="-0.28291">
        <ele>32.334218</ele>
        <time>2024-07-06T12:41:56.000Z</time>
      </trkpt>
      <trkpt lat="52.236381" lon="-0.282766">
        <ele>32.303914</ele>
        <time>2024-07-06T12:41:57.000Z</time>
      </trkpt>
      <trkpt lat="52.236307" lon="-0.282626">
        <ele>32.275361</ele>
        <time>2024-07-06T12:41:58.000Z</time>
      </trkpt>
      <trkpt lat="52.236296" lon="-0.282626">
        <ele>32.273497</ele>
        <time>2024-07-06T12:41:58.000Z</time>
      </trkpt>
      <trkpt lat="52.23611" lon="-0.282279">
        <ele>32.202926</ele>
        <time>2024-07-06T12:42:01.000Z</time>
      </trkpt>
      <trkpt lat="52.236082" lon="-0.282235">
        <ele>32.192246</ele>
        <time>2024-07-06T12:42:01.000Z</time>
      </trkpt>
      <trkpt lat="52.23603" lon="-0.282089">
        <ele>32.164176</ele>
        <time>2024-07-06T12:42:02.000Z</time>
      </trkpt>
      <trkpt lat="52.235898" lon="-0.281782">
        <ele>32.108532</ele>
        <time>2024-07-06T12:42:05.000Z</time>
      </trkpt>
      <trkpt lat="52.235123" lon="-0.279796">
        <ele>30.564945</ele>
        <time>2024-07-06T12:42:21.000Z</time>
      </trkpt>
      <trkpt lat="52.234868" lon="-0.278983">
        <ele>29.796876</ele>
        <time>2024-07-06T12:42:27.000Z</time>
      </trkpt>
      <trkpt lat="52.234473" lon="-0.277686">
        <ele>27.445328</ele>
        <time>2024-07-06T12:42:37.000Z</time>
      </trkpt>
      <trkpt lat="52.234129" lon="-0.277104">
        <ele>26.170892</ele>
        <time>2024-07-06T12:42:43.000Z</time>
      </trkpt>
      <trkpt lat="52.233944" lon="-0.276855">
        <ele>25.530735</ele>
        <time>2024-07-06T12:42:46.000Z</time>
      </trkpt>
      <trkpt lat="52.233652" lon="-0.27658">
        <ele>24.527176</ele>
        <time>2024-07-06T12:42:50.000Z</time>
      </trkpt>
      <trkpt lat="52.233256" lon="-0.27638">
        <ele>23.24403</ele>
        <time>2024-07-06T12:42:55.000Z</time>
      </trkpt>
      <trkpt lat="52.232678" lon="-0.276116">
        <ele>21.448963</ele>
        <time>2024-07-06T12:43:02.000Z</time>
      </trkpt>
      <trkpt lat="52.232565" lon="-0.276082">
        <ele>21.088848</ele>
        <time>2024-07-06T12:43:03.000Z</time>
      </trkpt>
      <trkpt lat="52.232326" lon="-0.27602">
        <ele>20.362984</ele>
        <time>2024-07-06T12:43:06.000Z</time>
      </trkpt>
      <trkpt lat="52.232196" lon="-0.276005">
        <ele>19.984461</ele>
        <time>2024-07-06T12:43:07.000Z</time>
      </trkpt>
      <trkpt lat="52.232004" lon="-0.276021">
        <ele>19.660547</ele>
        <time>2024-07-06T12:43:09.000Z</time>
      </trkpt>
      <trkpt lat="52.230587" lon="-0.27618">
        <ele>17.680925</ele>
        <time>2024-07-06T12:43:25.000Z</time>
      </trkpt>
      <trkpt lat="52.230221" lon="-0.276237">
        <ele>17.38135</ele>
        <time>2024-07-06T12:43:29.000Z</time>
      </trkpt>
      <trkpt lat="52.230051" lon="-0.276254">
        <ele>17.2425653588</ele>
        <time>2024-07-06T12:43:31.000Z</time>
      </trkpt>
      <trkpt lat="52.229937" lon="-0.276283">
        <ele>17.1485512829</ele>
        <time>2024-07-06T12:43:32.000Z</time>
      </trkpt>
      <trkpt lat="52.229863" lon="-0.276311">
        <ele>17.0866539817</ele>
        <time>2024-07-06T12:43:33.000Z</time>
      </trkpt>
      <trkpt lat="52.229783" lon="-0.276313">
        <ele>17.0214580814</ele>
        <time>2024-07-06T12:43:34.000Z</time>
      </trkpt>
      <trkpt lat="52.229687" lon="-0.276348">
        <ele>16.9413055052</ele>
        <time>2024-07-06T12:43:35.000Z</time>
      </trkpt>
      <trkpt lat="52.229654" lon="-0.276354">
        <ele>16.9142491197</ele>
        <time>2024-07-06T12:43:35.000Z</time>
      </trkpt>
      <trkpt lat="52.229421" lon="-0.276404">
        <ele>16.7227553349</ele>
        <time>2024-07-06T12:43:38.000Z</time>
      </trkpt>
      <trkpt lat="52.229375" lon="-0.276401">
        <ele>16.6852421929</ele>
        <time>2024-07-06T12:43:39.000Z</time>
      </trkpt>
      <trkpt lat="52.229297" lon="-0.27642">
        <ele>16.6209801142</ele>
        <time>2024-07-06T12:43:40.000Z</time>
      </trkpt>
      <trkpt lat="52.229272" lon="-0.276436">
        <ele>16.5990995073</ele>
        <time>2024-07-06T12:43:40.000Z</time>
      </trkpt>
      <trkpt lat="52.22921" lon="-0.276442">
        <ele>16.548489933</ele>
        <time>2024-07-06T12:43:41.000Z</time>
      </trkpt>
      <trkpt lat="52.229196" lon="-0.276448">
        <ele>16.5366954902</ele>
        <time>2024-07-06T12:43:41.000Z</time>
      </trkpt>
      <trkpt lat="52.229196" lon="-0.276377">
        <ele>16.5012593094</ele>
        <time>2024-07-06T12:43:41.000Z</time>
      </trkpt>
      <trkpt lat="52.229063" lon="-0.275657">
        <ele>16.1259193567</ele>
        <time>2024-07-06T12:43:46.000Z</time>
      </trkpt>
      <trkpt lat="52.229064" lon="-0.275644">
        <ele>16.1193800551</ele>
        <time>2024-07-06T12:43:46.000Z</time>
      </trkpt>
    </trkseg>
  </trk>
</gpx>

<!--
Performance optimized by W3 Total Cache. Learn more: https://www.boldgrid.com/w3-total-cache/?utm_source=w3tc&utm_medium=footer_comment&utm_campaign=free_plugin

Page Caching using Disk: Enhanced{w3tc_pagecache_reject_reason} 

Served from: www.aquabike.world @ 2026-05-10 07:12:16 by W3 Total Cache
-->